<?xml version="1.0" encoding="utf-8"?>
<gpx xmlns:xsi="http://www.w3.org/2001/XMLSchema-instance" xmlns:xsd="http://www.w3.org/2001/XMLSchema" version="1.1" creator="Shapelink.com" xmlns="http://www.topografix.com/GPX/1/1" xmlns:gpxtpx="http://www.garmin.com/xmlschemas/TrackPointExtension/v1">
  <metadata>
    <name>Løping 4.13 km, 2016-04-21</name>
    <desc></desc>
    <author><name>Stein Falk-Larssen</name></author> 
    <time>1970-01-01T01:00:00Z</time>
  </metadata>
  <trk>
    <name>Løping 4.13 km, 2016-04-21</name>
    <trkseg>
      <trkpt lat="63.43869817" lon="10.488006">
        <ele>7.01</ele>
        <time>1970-01-01T01:00:00Z</time>
      </trkpt>
      <trkpt lat="63.43870267" lon="10.48799817">
        <ele>7.163</ele>
        <time>1970-01-01T01:00:00Z</time>
      </trkpt>
      <trkpt lat="63.43871033" lon="10.48798383">
        <ele>7.163</ele>
        <time>1970-01-01T01:00:00Z</time>
      </trkpt>
      <trkpt lat="63.43872133" lon="10.48796583">
        <ele>7.163</ele>
        <time>1970-01-01T01:00:00Z</time>
      </trkpt>
      <trkpt lat="63.4387315" lon="10.48794467">
        <ele>7.163</ele>
        <time>1970-01-01T01:00:00Z</time>
      </trkpt>
      <trkpt lat="63.43874133" lon="10.48792017">
        <ele>7.315</ele>
        <time>1970-01-01T01:00:00Z</time>
      </trkpt>
      <trkpt lat="63.4387505" lon="10.48789117">
        <ele>7.315</ele>
        <time>1970-01-01T01:00:00Z</time>
      </trkpt>
      <trkpt lat="63.4387615" lon="10.48786033">
        <ele>7.468</ele>
        <time>1970-01-01T01:00:00Z</time>
      </trkpt>
      <trkpt lat="63.43877433" lon="10.48782833">
        <ele>7.468</ele>
        <time>1970-01-01T01:00:00Z</time>
      </trkpt>
      <trkpt lat="63.43879033" lon="10.48779267">
        <ele>7.468</ele>
        <time>1970-01-01T01:00:00Z</time>
      </trkpt>
      <trkpt lat="63.43880917" lon="10.4877565">
        <ele>7.468</ele>
        <time>1970-01-01T01:00:00Z</time>
      </trkpt>
      <trkpt lat="63.4388305" lon="10.48771917">
        <ele>7.62</ele>
        <time>1970-01-01T01:00:00Z</time>
      </trkpt>
      <trkpt lat="63.438852" lon="10.48767883">
        <ele>7.62</ele>
        <time>1970-01-01T01:00:00Z</time>
      </trkpt>
      <trkpt lat="63.43887417" lon="10.4876355">
        <ele>7.62</ele>
        <time>1970-01-01T01:00:00Z</time>
      </trkpt>
      <trkpt lat="63.43890067" lon="10.48759583">
        <ele>7.62</ele>
        <time>1970-01-01T01:00:00Z</time>
      </trkpt>
      <trkpt lat="63.43892717" lon="10.48756067">
        <ele>7.468</ele>
        <time>1970-01-01T01:00:00Z</time>
      </trkpt>
      <trkpt lat="63.43895267" lon="10.48753167">
        <ele>7.468</ele>
        <time>1970-01-01T01:00:00Z</time>
      </trkpt>
      <trkpt lat="63.43897417" lon="10.48750133">
        <ele>7.468</ele>
        <time>1970-01-01T01:00:00Z</time>
      </trkpt>
      <trkpt lat="63.438998" lon="10.48747067">
        <ele>7.468</ele>
        <time>1970-01-01T01:00:00Z</time>
      </trkpt>
      <trkpt lat="63.439025" lon="10.48743583">
        <ele>7.315</ele>
        <time>1970-01-01T01:00:00Z</time>
      </trkpt>
      <trkpt lat="63.43905317" lon="10.487401">
        <ele>7.315</ele>
        <time>1970-01-01T01:00:00Z</time>
      </trkpt>
      <trkpt lat="63.43908117" lon="10.48737017">
        <ele>7.315</ele>
        <time>1970-01-01T01:00:00Z</time>
      </trkpt>
      <trkpt lat="63.43910867" lon="10.48734017">
        <ele>7.315</ele>
        <time>1970-01-01T01:00:00Z</time>
      </trkpt>
      <trkpt lat="63.439138" lon="10.487308">
        <ele>7.163</ele>
        <time>1970-01-01T01:00:00Z</time>
      </trkpt>
      <trkpt lat="63.43916833" lon="10.48727367">
        <ele>7.163</ele>
        <time>1970-01-01T01:00:00Z</time>
      </trkpt>
      <trkpt lat="63.43919767" lon="10.48723733">
        <ele>6.858</ele>
        <time>1970-01-01T01:00:00Z</time>
      </trkpt>
      <trkpt lat="63.43922483" lon="10.48720333">
        <ele>6.858</ele>
        <time>1970-01-01T01:00:00Z</time>
      </trkpt>
      <trkpt lat="63.43925233" lon="10.487169">
        <ele>6.706</ele>
        <time>1970-01-01T01:00:00Z</time>
      </trkpt>
      <trkpt lat="63.43928117" lon="10.487135">
        <ele>6.706</ele>
        <time>1970-01-01T01:00:00Z</time>
      </trkpt>
      <trkpt lat="63.439312" lon="10.48710083">
        <ele>6.553</ele>
        <time>1970-01-01T01:00:00Z</time>
      </trkpt>
      <trkpt lat="63.4393435" lon="10.48706867">
        <ele>6.553</ele>
        <time>1970-01-01T01:00:00Z</time>
      </trkpt>
      <trkpt lat="63.4393745" lon="10.48704017">
        <ele>6.401</ele>
        <time>1970-01-01T01:00:00Z</time>
      </trkpt>
      <trkpt lat="63.43940633" lon="10.48701217">
        <ele>6.401</ele>
        <time>1970-01-01T01:00:00Z</time>
      </trkpt>
      <trkpt lat="63.43943667" lon="10.48698333">
        <ele>6.401</ele>
        <time>1970-01-01T01:00:00Z</time>
      </trkpt>
      <trkpt lat="63.43946867" lon="10.4869525">
        <ele>6.401</ele>
        <time>1970-01-01T01:00:00Z</time>
      </trkpt>
      <trkpt lat="63.43949883" lon="10.48692433">
        <ele>6.248</ele>
        <time>1970-01-01T01:00:00Z</time>
      </trkpt>
      <trkpt lat="63.43952783" lon="10.48689417">
        <ele>6.248</ele>
        <time>1970-01-01T01:00:00Z</time>
      </trkpt>
      <trkpt lat="63.43956133" lon="10.4868695">
        <ele>6.096</ele>
        <time>1970-01-01T01:00:00Z</time>
      </trkpt>
      <trkpt lat="63.43959433" lon="10.48684667">
        <ele>6.096</ele>
        <time>1970-01-01T01:00:00Z</time>
      </trkpt>
      <trkpt lat="63.43963217" lon="10.48682967">
        <ele>6.096</ele>
        <time>1970-01-01T01:00:00Z</time>
      </trkpt>
      <trkpt lat="63.43966717" lon="10.48681433">
        <ele>6.096</ele>
        <time>1970-01-01T01:00:00Z</time>
      </trkpt>
      <trkpt lat="63.43970267" lon="10.48679933">
        <ele>5.944</ele>
        <time>1970-01-01T01:00:00Z</time>
      </trkpt>
      <trkpt lat="63.439736" lon="10.48678783">
        <ele>5.944</ele>
        <time>1970-01-01T01:00:00Z</time>
      </trkpt>
      <trkpt lat="63.439768" lon="10.48677983">
        <ele>5.944</ele>
        <time>1970-01-01T01:00:00Z</time>
      </trkpt>
      <trkpt lat="63.4398" lon="10.48677283">
        <ele>5.944</ele>
        <time>1970-01-01T01:00:00Z</time>
      </trkpt>
      <trkpt lat="63.43983" lon="10.486767">
        <ele>5.944</ele>
        <time>1970-01-01T01:00:00Z</time>
      </trkpt>
      <trkpt lat="63.43985833" lon="10.48675817">
        <ele>5.944</ele>
        <time>1970-01-01T01:00:00Z</time>
      </trkpt>
      <trkpt lat="63.43988583" lon="10.48675183">
        <ele>5.791</ele>
        <time>1970-01-01T01:00:00Z</time>
      </trkpt>
      <trkpt lat="63.43991383" lon="10.48674267">
        <ele>5.791</ele>
        <time>1970-01-01T01:00:00Z</time>
      </trkpt>
      <trkpt lat="63.439941" lon="10.48673433">
        <ele>5.791</ele>
        <time>1970-01-01T01:00:00Z</time>
      </trkpt>
      <trkpt lat="63.43996633" lon="10.4867215">
        <ele>5.791</ele>
        <time>1970-01-01T01:00:00Z</time>
      </trkpt>
      <trkpt lat="63.43999" lon="10.48670433">
        <ele>5.791</ele>
        <time>1970-01-01T01:00:00Z</time>
      </trkpt>
      <trkpt lat="63.4400105" lon="10.4866835">
        <ele>5.791</ele>
        <time>1970-01-01T01:00:00Z</time>
      </trkpt>
      <trkpt lat="63.4400315" lon="10.48666417">
        <ele>5.639</ele>
        <time>1970-01-01T01:00:00Z</time>
      </trkpt>
      <trkpt lat="63.44005433" lon="10.4866485">
        <ele>5.639</ele>
        <time>1970-01-01T01:00:00Z</time>
      </trkpt>
      <trkpt lat="63.44007767" lon="10.48663683">
        <ele>5.639</ele>
        <time>1970-01-01T01:00:00Z</time>
      </trkpt>
      <trkpt lat="63.44010183" lon="10.48662317">
        <ele>5.639</ele>
        <time>1970-01-01T01:00:00Z</time>
      </trkpt>
      <trkpt lat="63.4401235" lon="10.48661083">
        <ele>5.486</ele>
        <time>1970-01-01T01:00:00Z</time>
      </trkpt>
      <trkpt lat="63.44014417" lon="10.4865985">
        <ele>5.486</ele>
        <time>1970-01-01T01:00:00Z</time>
      </trkpt>
      <trkpt lat="63.4401635" lon="10.48658983">
        <ele>5.486</ele>
        <time>1970-01-01T01:00:00Z</time>
      </trkpt>
      <trkpt lat="63.44018367" lon="10.48658383">
        <ele>5.486</ele>
        <time>1970-01-01T01:00:00Z</time>
      </trkpt>
      <trkpt lat="63.4402075" lon="10.48657567">
        <ele>5.334</ele>
        <time>1970-01-01T01:00:00Z</time>
      </trkpt>
      <trkpt lat="63.44023233" lon="10.48657033">
        <ele>5.334</ele>
        <time>1970-01-01T01:00:00Z</time>
      </trkpt>
      <trkpt lat="63.44025683" lon="10.4865655">
        <ele>5.334</ele>
        <time>1970-01-01T01:00:00Z</time>
      </trkpt>
      <trkpt lat="63.44028217" lon="10.48657133">
        <ele>5.334</ele>
        <time>1970-01-01T01:00:00Z</time>
      </trkpt>
      <trkpt lat="63.44030883" lon="10.48657767">
        <ele>5.334</ele>
        <time>1970-01-01T01:00:00Z</time>
      </trkpt>
      <trkpt lat="63.44034333" lon="10.48658467">
        <ele>5.334</ele>
        <time>1970-01-01T01:00:00Z</time>
      </trkpt>
      <trkpt lat="63.44037917" lon="10.48658617">
        <ele>5.334</ele>
        <time>1970-01-01T01:00:00Z</time>
      </trkpt>
      <trkpt lat="63.44041683" lon="10.48659217">
        <ele>5.334</ele>
        <time>1970-01-01T01:00:00Z</time>
      </trkpt>
      <trkpt lat="63.4404515" lon="10.48660717">
        <ele>5.334</ele>
        <time>1970-01-01T01:00:00Z</time>
      </trkpt>
      <trkpt lat="63.440483" lon="10.48662883">
        <ele>5.334</ele>
        <time>1970-01-01T01:00:00Z</time>
      </trkpt>
      <trkpt lat="63.4405155" lon="10.48665867">
        <ele>5.334</ele>
        <time>1970-01-01T01:00:00Z</time>
      </trkpt>
      <trkpt lat="63.4405415" lon="10.48668683">
        <ele>5.334</ele>
        <time>1970-01-01T01:00:00Z</time>
      </trkpt>
      <trkpt lat="63.4405645" lon="10.48671767">
        <ele>5.334</ele>
        <time>1970-01-01T01:00:00Z</time>
      </trkpt>
      <trkpt lat="63.440582" lon="10.48673733">
        <ele>5.334</ele>
        <time>1970-01-01T01:00:00Z</time>
      </trkpt>
      <trkpt lat="63.440601" lon="10.486755">
        <ele>5.334</ele>
        <time>1970-01-01T01:00:00Z</time>
      </trkpt>
      <trkpt lat="63.44062083" lon="10.48677083">
        <ele>5.334</ele>
        <time>1970-01-01T01:00:00Z</time>
      </trkpt>
      <trkpt lat="63.44064367" lon="10.48679333">
        <ele>5.486</ele>
        <time>1970-01-01T01:00:00Z</time>
      </trkpt>
      <trkpt lat="63.44067133" lon="10.4868175">
        <ele>5.486</ele>
        <time>1970-01-01T01:00:00Z</time>
      </trkpt>
      <trkpt lat="63.44070667" lon="10.4868355">
        <ele>5.486</ele>
        <time>1970-01-01T01:00:00Z</time>
      </trkpt>
      <trkpt lat="63.440744" lon="10.48684567">
        <ele>5.486</ele>
        <time>1970-01-01T01:00:00Z</time>
      </trkpt>
      <trkpt lat="63.44077883" lon="10.48684833">
        <ele>5.639</ele>
        <time>1970-01-01T01:00:00Z</time>
      </trkpt>
      <trkpt lat="63.44081317" lon="10.48684883">
        <ele>5.639</ele>
        <time>1970-01-01T01:00:00Z</time>
      </trkpt>
      <trkpt lat="63.44085067" lon="10.48684817">
        <ele>5.639</ele>
        <time>1970-01-01T01:00:00Z</time>
      </trkpt>
      <trkpt lat="63.4408885" lon="10.48684717">
        <ele>5.639</ele>
        <time>1970-01-01T01:00:00Z</time>
      </trkpt>
      <trkpt lat="63.4409225" lon="10.4868525">
        <ele>5.639</ele>
        <time>1970-01-01T01:00:00Z</time>
      </trkpt>
      <trkpt lat="63.44095117" lon="10.486864">
        <ele>5.639</ele>
        <time>1970-01-01T01:00:00Z</time>
      </trkpt>
      <trkpt lat="63.44097833" lon="10.4868865">
        <ele>5.639</ele>
        <time>1970-01-01T01:00:00Z</time>
      </trkpt>
      <trkpt lat="63.44100433" lon="10.4869125">
        <ele>5.639</ele>
        <time>1970-01-01T01:00:00Z</time>
      </trkpt>
      <trkpt lat="63.44102667" lon="10.48693833">
        <ele>5.639</ele>
        <time>1970-01-01T01:00:00Z</time>
      </trkpt>
      <trkpt lat="63.4410525" lon="10.48696017">
        <ele>5.639</ele>
        <time>1970-01-01T01:00:00Z</time>
      </trkpt>
      <trkpt lat="63.4410775" lon="10.486979">
        <ele>5.791</ele>
        <time>1970-01-01T01:00:00Z</time>
      </trkpt>
      <trkpt lat="63.44110917" lon="10.48700733">
        <ele>5.791</ele>
        <time>1970-01-01T01:00:00Z</time>
      </trkpt>
      <trkpt lat="63.4411385" lon="10.48704">
        <ele>5.791</ele>
        <time>1970-01-01T01:00:00Z</time>
      </trkpt>
      <trkpt lat="63.44116867" lon="10.48706983">
        <ele>5.791</ele>
        <time>1970-01-01T01:00:00Z</time>
      </trkpt>
      <trkpt lat="63.44119367" lon="10.48708">
        <ele>5.791</ele>
        <time>1970-01-01T01:00:00Z</time>
      </trkpt>
      <trkpt lat="63.44122017" lon="10.48708433">
        <ele>5.791</ele>
        <time>1970-01-01T01:00:00Z</time>
      </trkpt>
      <trkpt lat="63.4412505" lon="10.48708467">
        <ele>5.639</ele>
        <time>1970-01-01T01:00:00Z</time>
      </trkpt>
      <trkpt lat="63.44128383" lon="10.48708933">
        <ele>5.639</ele>
        <time>1970-01-01T01:00:00Z</time>
      </trkpt>
      <trkpt lat="63.4413155" lon="10.48708967">
        <ele>5.639</ele>
        <time>1970-01-01T01:00:00Z</time>
      </trkpt>
      <trkpt lat="63.44134717" lon="10.48708867">
        <ele>5.639</ele>
        <time>1970-01-01T01:00:00Z</time>
      </trkpt>
      <trkpt lat="63.44137517" lon="10.48708233">
        <ele>5.486</ele>
        <time>1970-01-01T01:00:00Z</time>
      </trkpt>
      <trkpt lat="63.441402" lon="10.48706867">
        <ele>5.486</ele>
        <time>1970-01-01T01:00:00Z</time>
      </trkpt>
      <trkpt lat="63.44142167" lon="10.487042">
        <ele>5.334</ele>
        <time>1970-01-01T01:00:00Z</time>
      </trkpt>
      <trkpt lat="63.44144" lon="10.48699717">
        <ele>5.334</ele>
        <time>1970-01-01T01:00:00Z</time>
      </trkpt>
      <trkpt lat="63.44145467" lon="10.486945">
        <ele>5.029</ele>
        <time>1970-01-01T01:00:00Z</time>
      </trkpt>
      <trkpt lat="63.4414685" lon="10.48689467">
        <ele>5.029</ele>
        <time>1970-01-01T01:00:00Z</time>
      </trkpt>
      <trkpt lat="63.44147967" lon="10.486851">
        <ele>4.724</ele>
        <time>1970-01-01T01:00:00Z</time>
      </trkpt>
      <trkpt lat="63.44149067" lon="10.48680767">
        <ele>4.724</ele>
        <time>1970-01-01T01:00:00Z</time>
      </trkpt>
      <trkpt lat="63.4415035" lon="10.486756">
        <ele>4.42</ele>
        <time>1970-01-01T01:00:00Z</time>
      </trkpt>
      <trkpt lat="63.4415165" lon="10.48670817">
        <ele>4.42</ele>
        <time>1970-01-01T01:00:00Z</time>
      </trkpt>
      <trkpt lat="63.4415275" lon="10.48665217">
        <ele>4.267</ele>
        <time>1970-01-01T01:00:00Z</time>
      </trkpt>
      <trkpt lat="63.441533" lon="10.48659467">
        <ele>4.267</ele>
        <time>1970-01-01T01:00:00Z</time>
      </trkpt>
      <trkpt lat="63.44153717" lon="10.48653283">
        <ele>4.115</ele>
        <time>1970-01-01T01:00:00Z</time>
      </trkpt>
      <trkpt lat="63.44154233" lon="10.48647483">
        <ele>4.115</ele>
        <time>1970-01-01T01:00:00Z</time>
      </trkpt>
      <trkpt lat="63.4415515" lon="10.4864235">
        <ele>3.962</ele>
        <time>1970-01-01T01:00:00Z</time>
      </trkpt>
      <trkpt lat="63.441564" lon="10.48637067">
        <ele>3.962</ele>
        <time>1970-01-01T01:00:00Z</time>
      </trkpt>
      <trkpt lat="63.441577" lon="10.48631567">
        <ele>3.962</ele>
        <time>1970-01-01T01:00:00Z</time>
      </trkpt>
      <trkpt lat="63.441591" lon="10.4862615">
        <ele>3.962</ele>
        <time>1970-01-01T01:00:00Z</time>
      </trkpt>
      <trkpt lat="63.44160367" lon="10.48621033">
        <ele>3.962</ele>
        <time>1970-01-01T01:00:00Z</time>
      </trkpt>
      <trkpt lat="63.441618" lon="10.4861645">
        <ele>3.962</ele>
        <time>1970-01-01T01:00:00Z</time>
      </trkpt>
      <trkpt lat="63.44162967" lon="10.4861225">
        <ele>3.962</ele>
        <time>1970-01-01T01:00:00Z</time>
      </trkpt>
      <trkpt lat="63.44164333" lon="10.48608217">
        <ele>3.962</ele>
        <time>1970-01-01T01:00:00Z</time>
      </trkpt>
      <trkpt lat="63.441655" lon="10.486046">
        <ele>4.115</ele>
        <time>1970-01-01T01:00:00Z</time>
      </trkpt>
      <trkpt lat="63.44166867" lon="10.48600583">
        <ele>4.115</ele>
        <time>1970-01-01T01:00:00Z</time>
      </trkpt>
      <trkpt lat="63.44168217" lon="10.485971">
        <ele>4.267</ele>
        <time>1970-01-01T01:00:00Z</time>
      </trkpt>
      <trkpt lat="63.44169883" lon="10.485934">
        <ele>4.267</ele>
        <time>1970-01-01T01:00:00Z</time>
      </trkpt>
      <trkpt lat="63.44171717" lon="10.485898">
        <ele>4.572</ele>
        <time>1970-01-01T01:00:00Z</time>
      </trkpt>
      <trkpt lat="63.441733" lon="10.48585917">
        <ele>4.572</ele>
        <time>1970-01-01T01:00:00Z</time>
      </trkpt>
      <trkpt lat="63.4417485" lon="10.48582067">
        <ele>4.724</ele>
        <time>1970-01-01T01:00:00Z</time>
      </trkpt>
      <trkpt lat="63.44176517" lon="10.48578283">
        <ele>4.724</ele>
        <time>1970-01-01T01:00:00Z</time>
      </trkpt>
      <trkpt lat="63.4417825" lon="10.48574583">
        <ele>5.029</ele>
        <time>1970-01-01T01:00:00Z</time>
      </trkpt>
      <trkpt lat="63.44179867" lon="10.48570567">
        <ele>5.029</ele>
        <time>1970-01-01T01:00:00Z</time>
      </trkpt>
      <trkpt lat="63.44181233" lon="10.48566683">
        <ele>5.182</ele>
        <time>1970-01-01T01:00:00Z</time>
      </trkpt>
      <trkpt lat="63.4418275" lon="10.48562017">
        <ele>5.182</ele>
        <time>1970-01-01T01:00:00Z</time>
      </trkpt>
      <trkpt lat="63.4418415" lon="10.48557233">
        <ele>5.486</ele>
        <time>1970-01-01T01:00:00Z</time>
      </trkpt>
      <trkpt lat="63.441856" lon="10.48552233">
        <ele>5.486</ele>
        <time>1970-01-01T01:00:00Z</time>
      </trkpt>
      <trkpt lat="63.44187183" lon="10.48546983">
        <ele>5.791</ele>
        <time>1970-01-01T01:00:00Z</time>
      </trkpt>
      <trkpt lat="63.44188867" lon="10.48541767">
        <ele>5.791</ele>
        <time>1970-01-01T01:00:00Z</time>
      </trkpt>
      <trkpt lat="63.44190233" lon="10.48536317">
        <ele>6.096</ele>
        <time>1970-01-01T01:00:00Z</time>
      </trkpt>
      <trkpt lat="63.44191317" lon="10.4853015">
        <ele>6.096</ele>
        <time>1970-01-01T01:00:00Z</time>
      </trkpt>
      <trkpt lat="63.441923" lon="10.48523917">
        <ele>6.553</ele>
        <time>1970-01-01T01:00:00Z</time>
      </trkpt>
      <trkpt lat="63.4419345" lon="10.485177">
        <ele>6.553</ele>
        <time>1970-01-01T01:00:00Z</time>
      </trkpt>
      <trkpt lat="63.44193983" lon="10.48512983">
        <ele>6.858</ele>
        <time>1970-01-01T01:00:00Z</time>
      </trkpt>
      <trkpt lat="63.44194317" lon="10.48508483">
        <ele>6.858</ele>
        <time>1970-01-01T01:00:00Z</time>
      </trkpt>
      <trkpt lat="63.44194233" lon="10.48503133">
        <ele>7.163</ele>
        <time>1970-01-01T01:00:00Z</time>
      </trkpt>
      <trkpt lat="63.44194467" lon="10.48497617">
        <ele>7.163</ele>
        <time>1970-01-01T01:00:00Z</time>
      </trkpt>
      <trkpt lat="63.44194483" lon="10.48491983">
        <ele>7.468</ele>
        <time>1970-01-01T01:00:00Z</time>
      </trkpt>
      <trkpt lat="63.44194433" lon="10.484868">
        <ele>7.468</ele>
        <time>1970-01-01T01:00:00Z</time>
      </trkpt>
      <trkpt lat="63.441942" lon="10.48481283">
        <ele>7.925</ele>
        <time>1970-01-01T01:00:00Z</time>
      </trkpt>
      <trkpt lat="63.44194183" lon="10.48475583">
        <ele>7.925</ele>
        <time>1970-01-01T01:00:00Z</time>
      </trkpt>
      <trkpt lat="63.44193933" lon="10.48471017">
        <ele>8.23</ele>
        <time>1970-01-01T01:00:00Z</time>
      </trkpt>
      <trkpt lat="63.44193017" lon="10.48466433">
        <ele>8.23</ele>
        <time>1970-01-01T01:00:00Z</time>
      </trkpt>
      <trkpt lat="63.44191833" lon="10.484626">
        <ele>8.687</ele>
        <time>1970-01-01T01:00:00Z</time>
      </trkpt>
      <trkpt lat="63.44190683" lon="10.4845795">
        <ele>8.687</ele>
        <time>1970-01-01T01:00:00Z</time>
      </trkpt>
      <trkpt lat="63.44190217" lon="10.48454083">
        <ele>8.992</ele>
        <time>1970-01-01T01:00:00Z</time>
      </trkpt>
      <trkpt lat="63.4418925" lon="10.48449667">
        <ele>8.992</ele>
        <time>1970-01-01T01:00:00Z</time>
      </trkpt>
      <trkpt lat="63.441879" lon="10.48445767">
        <ele>9.449</ele>
        <time>1970-01-01T01:00:00Z</time>
      </trkpt>
      <trkpt lat="63.44186083" lon="10.48441817">
        <ele>9.449</ele>
        <time>1970-01-01T01:00:00Z</time>
      </trkpt>
      <trkpt lat="63.44184167" lon="10.4843835">
        <ele>9.754</ele>
        <time>1970-01-01T01:00:00Z</time>
      </trkpt>
      <trkpt lat="63.44181817" lon="10.4843505">
        <ele>9.754</ele>
        <time>1970-01-01T01:00:00Z</time>
      </trkpt>
      <trkpt lat="63.44179717" lon="10.4843205">
        <ele>10.059</ele>
        <time>1970-01-01T01:00:00Z</time>
      </trkpt>
      <trkpt lat="63.441777" lon="10.48429083">
        <ele>10.059</ele>
        <time>1970-01-01T01:00:00Z</time>
      </trkpt>
      <trkpt lat="63.44175733" lon="10.484263">
        <ele>10.363</ele>
        <time>1970-01-01T01:00:00Z</time>
      </trkpt>
      <trkpt lat="63.44173717" lon="10.48423867">
        <ele>10.363</ele>
        <time>1970-01-01T01:00:00Z</time>
      </trkpt>
      <trkpt lat="63.44171467" lon="10.48421717">
        <ele>10.668</ele>
        <time>1970-01-01T01:00:00Z</time>
      </trkpt>
      <trkpt lat="63.44169517" lon="10.4841955">
        <ele>10.668</ele>
        <time>1970-01-01T01:00:00Z</time>
      </trkpt>
      <trkpt lat="63.44167433" lon="10.4841745">
        <ele>10.973</ele>
        <time>1970-01-01T01:00:00Z</time>
      </trkpt>
      <trkpt lat="63.441654" lon="10.48415567">
        <ele>10.973</ele>
        <time>1970-01-01T01:00:00Z</time>
      </trkpt>
      <trkpt lat="63.44163383" lon="10.4841355">
        <ele>11.278</ele>
        <time>1970-01-01T01:00:00Z</time>
      </trkpt>
      <trkpt lat="63.4416135" lon="10.48411233">
        <ele>11.278</ele>
        <time>1970-01-01T01:00:00Z</time>
      </trkpt>
      <trkpt lat="63.44159683" lon="10.48407733">
        <ele>11.583</ele>
        <time>1970-01-01T01:00:00Z</time>
      </trkpt>
      <trkpt lat="63.441579" lon="10.48403367">
        <ele>11.583</ele>
        <time>1970-01-01T01:00:00Z</time>
      </trkpt>
      <trkpt lat="63.44155867" lon="10.4839815">
        <ele>11.887</ele>
        <time>1970-01-01T01:00:00Z</time>
      </trkpt>
      <trkpt lat="63.44153767" lon="10.48392967">
        <ele>11.887</ele>
        <time>1970-01-01T01:00:00Z</time>
      </trkpt>
      <trkpt lat="63.44152033" lon="10.48387917">
        <ele>12.192</ele>
        <time>1970-01-01T01:00:00Z</time>
      </trkpt>
      <trkpt lat="63.44150333" lon="10.4838335">
        <ele>12.192</ele>
        <time>1970-01-01T01:00:00Z</time>
      </trkpt>
      <trkpt lat="63.44148717" lon="10.483796">
        <ele>12.497</ele>
        <time>1970-01-01T01:00:00Z</time>
      </trkpt>
      <trkpt lat="63.44146717" lon="10.48376433">
        <ele>12.497</ele>
        <time>1970-01-01T01:00:00Z</time>
      </trkpt>
      <trkpt lat="63.441449" lon="10.48373583">
        <ele>12.802</ele>
        <time>1970-01-01T01:00:00Z</time>
      </trkpt>
      <trkpt lat="63.44142983" lon="10.4837065">
        <ele>12.802</ele>
        <time>1970-01-01T01:00:00Z</time>
      </trkpt>
      <trkpt lat="63.44141433" lon="10.48367283">
        <ele>13.107</ele>
        <time>1970-01-01T01:00:00Z</time>
      </trkpt>
      <trkpt lat="63.44140133" lon="10.48362967">
        <ele>13.107</ele>
        <time>1970-01-01T01:00:00Z</time>
      </trkpt>
      <trkpt lat="63.44138867" lon="10.4835755">
        <ele>13.259</ele>
        <time>1970-01-01T01:00:00Z</time>
      </trkpt>
      <trkpt lat="63.44137683" lon="10.48351617">
        <ele>13.259</ele>
        <time>1970-01-01T01:00:00Z</time>
      </trkpt>
      <trkpt lat="63.44136417" lon="10.48345183">
        <ele>13.564</ele>
        <time>1970-01-01T01:00:00Z</time>
      </trkpt>
      <trkpt lat="63.44135117" lon="10.48339417">
        <ele>13.564</ele>
        <time>1970-01-01T01:00:00Z</time>
      </trkpt>
      <trkpt lat="63.44133567" lon="10.48333933">
        <ele>13.869</ele>
        <time>1970-01-01T01:00:00Z</time>
      </trkpt>
      <trkpt lat="63.4413185" lon="10.48328833">
        <ele>13.869</ele>
        <time>1970-01-01T01:00:00Z</time>
      </trkpt>
      <trkpt lat="63.44130183" lon="10.48324017">
        <ele>14.173</ele>
        <time>1970-01-01T01:00:00Z</time>
      </trkpt>
      <trkpt lat="63.44128533" lon="10.483185">
        <ele>14.173</ele>
        <time>1970-01-01T01:00:00Z</time>
      </trkpt>
      <trkpt lat="63.44126933" lon="10.48312083">
        <ele>14.478</ele>
        <time>1970-01-01T01:00:00Z</time>
      </trkpt>
      <trkpt lat="63.44124967" lon="10.48304933">
        <ele>14.478</ele>
        <time>1970-01-01T01:00:00Z</time>
      </trkpt>
      <trkpt lat="63.44123" lon="10.4829785">
        <ele>14.783</ele>
        <time>1970-01-01T01:00:00Z</time>
      </trkpt>
      <trkpt lat="63.44120967" lon="10.48291217">
        <ele>14.783</ele>
        <time>1970-01-01T01:00:00Z</time>
      </trkpt>
      <trkpt lat="63.44118667" lon="10.48284117">
        <ele>15.24</ele>
        <time>1970-01-01T01:00:00Z</time>
      </trkpt>
      <trkpt lat="63.44116517" lon="10.48277467">
        <ele>15.24</ele>
        <time>1970-01-01T01:00:00Z</time>
      </trkpt>
      <trkpt lat="63.44113883" lon="10.48270917">
        <ele>15.545</ele>
        <time>1970-01-01T01:00:00Z</time>
      </trkpt>
      <trkpt lat="63.44111067" lon="10.48264383">
        <ele>15.545</ele>
        <time>1970-01-01T01:00:00Z</time>
      </trkpt>
      <trkpt lat="63.44107933" lon="10.48257967">
        <ele>15.697</ele>
        <time>1970-01-01T01:00:00Z</time>
      </trkpt>
      <trkpt lat="63.44104867" lon="10.482518">
        <ele>15.697</ele>
        <time>1970-01-01T01:00:00Z</time>
      </trkpt>
      <trkpt lat="63.44102233" lon="10.48246233">
        <ele>15.85</ele>
        <time>1970-01-01T01:00:00Z</time>
      </trkpt>
      <trkpt lat="63.440995" lon="10.48240583">
        <ele>15.85</ele>
        <time>1970-01-01T01:00:00Z</time>
      </trkpt>
      <trkpt lat="63.44097083" lon="10.482352">
        <ele>16.002</ele>
        <time>1970-01-01T01:00:00Z</time>
      </trkpt>
      <trkpt lat="63.4409485" lon="10.48229867">
        <ele>16.002</ele>
        <time>1970-01-01T01:00:00Z</time>
      </trkpt>
      <trkpt lat="63.440928" lon="10.48224383">
        <ele>16.002</ele>
        <time>1970-01-01T01:00:00Z</time>
      </trkpt>
      <trkpt lat="63.440909" lon="10.482177">
        <ele>16.002</ele>
        <time>1970-01-01T01:00:00Z</time>
      </trkpt>
      <trkpt lat="63.44089117" lon="10.48210083">
        <ele>16.002</ele>
        <time>1970-01-01T01:00:00Z</time>
      </trkpt>
      <trkpt lat="63.44087633" lon="10.48201567">
        <ele>16.002</ele>
        <time>1970-01-01T01:00:00Z</time>
      </trkpt>
      <trkpt lat="63.4408615" lon="10.48192783">
        <ele>16.002</ele>
        <time>1970-01-01T01:00:00Z</time>
      </trkpt>
      <trkpt lat="63.44084967" lon="10.481847">
        <ele>16.002</ele>
        <time>1970-01-01T01:00:00Z</time>
      </trkpt>
      <trkpt lat="63.44083783" lon="10.48177">
        <ele>15.85</ele>
        <time>1970-01-01T01:00:00Z</time>
      </trkpt>
      <trkpt lat="63.440829" lon="10.48170283">
        <ele>15.85</ele>
        <time>1970-01-01T01:00:00Z</time>
      </trkpt>
      <trkpt lat="63.44081983" lon="10.48162817">
        <ele>15.697</ele>
        <time>1970-01-01T01:00:00Z</time>
      </trkpt>
      <trkpt lat="63.4408095" lon="10.4815525">
        <ele>15.697</ele>
        <time>1970-01-01T01:00:00Z</time>
      </trkpt>
      <trkpt lat="63.44079817" lon="10.48147267">
        <ele>15.545</ele>
        <time>1970-01-01T01:00:00Z</time>
      </trkpt>
      <trkpt lat="63.44078667" lon="10.4813945">
        <ele>15.545</ele>
        <time>1970-01-01T01:00:00Z</time>
      </trkpt>
      <trkpt lat="63.44077917" lon="10.48132067">
        <ele>15.24</ele>
        <time>1970-01-01T01:00:00Z</time>
      </trkpt>
      <trkpt lat="63.44077" lon="10.48124367">
        <ele>15.24</ele>
        <time>1970-01-01T01:00:00Z</time>
      </trkpt>
      <trkpt lat="63.440761" lon="10.48117117">
        <ele>15.088</ele>
        <time>1970-01-01T01:00:00Z</time>
      </trkpt>
      <trkpt lat="63.44075017" lon="10.48109833">
        <ele>15.088</ele>
        <time>1970-01-01T01:00:00Z</time>
      </trkpt>
      <trkpt lat="63.44074017" lon="10.48103033">
        <ele>14.783</ele>
        <time>1970-01-01T01:00:00Z</time>
      </trkpt>
      <trkpt lat="63.44072833" lon="10.48096183">
        <ele>14.783</ele>
        <time>1970-01-01T01:00:00Z</time>
      </trkpt>
      <trkpt lat="63.44071667" lon="10.48089267">
        <ele>14.478</ele>
        <time>1970-01-01T01:00:00Z</time>
      </trkpt>
      <trkpt lat="63.44070517" lon="10.4808275">
        <ele>14.478</ele>
        <time>1970-01-01T01:00:00Z</time>
      </trkpt>
      <trkpt lat="63.4406935" lon="10.480761">
        <ele>14.326</ele>
        <time>1970-01-01T01:00:00Z</time>
      </trkpt>
      <trkpt lat="63.44067933" lon="10.48069767">
        <ele>14.326</ele>
        <time>1970-01-01T01:00:00Z</time>
      </trkpt>
      <trkpt lat="63.44066533" lon="10.48063717">
        <ele>14.021</ele>
        <time>1970-01-01T01:00:00Z</time>
      </trkpt>
      <trkpt lat="63.44064883" lon="10.48058083">
        <ele>14.021</ele>
        <time>1970-01-01T01:00:00Z</time>
      </trkpt>
      <trkpt lat="63.44063183" lon="10.480529">
        <ele>13.716</ele>
        <time>1970-01-01T01:00:00Z</time>
      </trkpt>
      <trkpt lat="63.440614" lon="10.4804755">
        <ele>13.716</ele>
        <time>1970-01-01T01:00:00Z</time>
      </trkpt>
      <trkpt lat="63.44059867" lon="10.48042317">
        <ele>13.411</ele>
        <time>1970-01-01T01:00:00Z</time>
      </trkpt>
      <trkpt lat="63.4405835" lon="10.48036817">
        <ele>13.411</ele>
        <time>1970-01-01T01:00:00Z</time>
      </trkpt>
      <trkpt lat="63.44056633" lon="10.480311">
        <ele>13.107</ele>
        <time>1970-01-01T01:00:00Z</time>
      </trkpt>
      <trkpt lat="63.4405485" lon="10.48025167">
        <ele>13.107</ele>
        <time>1970-01-01T01:00:00Z</time>
      </trkpt>
      <trkpt lat="63.440533" lon="10.4801885">
        <ele>12.802</ele>
        <time>1970-01-01T01:00:00Z</time>
      </trkpt>
      <trkpt lat="63.44052017" lon="10.48012817">
        <ele>12.802</ele>
        <time>1970-01-01T01:00:00Z</time>
      </trkpt>
      <trkpt lat="63.4405085" lon="10.48006483">
        <ele>12.649</ele>
        <time>1970-01-01T01:00:00Z</time>
      </trkpt>
      <trkpt lat="63.44049433" lon="10.48000017">
        <ele>12.649</ele>
        <time>1970-01-01T01:00:00Z</time>
      </trkpt>
      <trkpt lat="63.44048067" lon="10.47993383">
        <ele>12.345</ele>
        <time>1970-01-01T01:00:00Z</time>
      </trkpt>
      <trkpt lat="63.44046567" lon="10.47986217">
        <ele>12.345</ele>
        <time>1970-01-01T01:00:00Z</time>
      </trkpt>
      <trkpt lat="63.44045333" lon="10.479794">
        <ele>12.04</ele>
        <time>1970-01-01T01:00:00Z</time>
      </trkpt>
      <trkpt lat="63.4404445" lon="10.479724">
        <ele>12.04</ele>
        <time>1970-01-01T01:00:00Z</time>
      </trkpt>
      <trkpt lat="63.44043867" lon="10.47966517">
        <ele>11.735</ele>
        <time>1970-01-01T01:00:00Z</time>
      </trkpt>
      <trkpt lat="63.44043217" lon="10.47960717">
        <ele>11.735</ele>
        <time>1970-01-01T01:00:00Z</time>
      </trkpt>
      <trkpt lat="63.440423" lon="10.47954933">
        <ele>11.43</ele>
        <time>1970-01-01T01:00:00Z</time>
      </trkpt>
      <trkpt lat="63.44041183" lon="10.47948983">
        <ele>11.43</ele>
        <time>1970-01-01T01:00:00Z</time>
      </trkpt>
      <trkpt lat="63.4404015" lon="10.4794275">
        <ele>11.278</ele>
        <time>1970-01-01T01:00:00Z</time>
      </trkpt>
      <trkpt lat="63.44038733" lon="10.4793685">
        <ele>11.278</ele>
        <time>1970-01-01T01:00:00Z</time>
      </trkpt>
      <trkpt lat="63.4403755" lon="10.4793085">
        <ele>11.125</ele>
        <time>1970-01-01T01:00:00Z</time>
      </trkpt>
      <trkpt lat="63.440363" lon="10.4792475">
        <ele>11.125</ele>
        <time>1970-01-01T01:00:00Z</time>
      </trkpt>
      <trkpt lat="63.44035617" lon="10.47918717">
        <ele>10.973</ele>
        <time>1970-01-01T01:00:00Z</time>
      </trkpt>
      <trkpt lat="63.44034783" lon="10.47912733">
        <ele>10.973</ele>
        <time>1970-01-01T01:00:00Z</time>
      </trkpt>
      <trkpt lat="63.44034233" lon="10.4790745">
        <ele>10.821</ele>
        <time>1970-01-01T01:00:00Z</time>
      </trkpt>
      <trkpt lat="63.440336" lon="10.47902017">
        <ele>10.821</ele>
        <time>1970-01-01T01:00:00Z</time>
      </trkpt>
      <trkpt lat="63.44032917" lon="10.478966">
        <ele>10.668</ele>
        <time>1970-01-01T01:00:00Z</time>
      </trkpt>
      <trkpt lat="63.440319" lon="10.47891083">
        <ele>10.668</ele>
        <time>1970-01-01T01:00:00Z</time>
      </trkpt>
      <trkpt lat="63.44030683" lon="10.47885933">
        <ele>10.668</ele>
        <time>1970-01-01T01:00:00Z</time>
      </trkpt>
      <trkpt lat="63.44029633" lon="10.478808">
        <ele>10.668</ele>
        <time>1970-01-01T01:00:00Z</time>
      </trkpt>
      <trkpt lat="63.44028683" lon="10.47875533">
        <ele>10.516</ele>
        <time>1970-01-01T01:00:00Z</time>
      </trkpt>
      <trkpt lat="63.44027883" lon="10.4787005">
        <ele>10.516</ele>
        <time>1970-01-01T01:00:00Z</time>
      </trkpt>
      <trkpt lat="63.440267" lon="10.47864867">
        <ele>10.516</ele>
        <time>1970-01-01T01:00:00Z</time>
      </trkpt>
      <trkpt lat="63.44025467" lon="10.4786">
        <ele>10.516</ele>
        <time>1970-01-01T01:00:00Z</time>
      </trkpt>
      <trkpt lat="63.44024117" lon="10.47855167">
        <ele>10.363</ele>
        <time>1970-01-01T01:00:00Z</time>
      </trkpt>
      <trkpt lat="63.44022867" lon="10.47850417">
        <ele>10.363</ele>
        <time>1970-01-01T01:00:00Z</time>
      </trkpt>
      <trkpt lat="63.44021533" lon="10.478457">
        <ele>10.363</ele>
        <time>1970-01-01T01:00:00Z</time>
      </trkpt>
      <trkpt lat="63.440203" lon="10.47840767">
        <ele>10.363</ele>
        <time>1970-01-01T01:00:00Z</time>
      </trkpt>
      <trkpt lat="63.44019067" lon="10.47835767">
        <ele>10.363</ele>
        <time>1970-01-01T01:00:00Z</time>
      </trkpt>
      <trkpt lat="63.44017583" lon="10.47829933">
        <ele>10.363</ele>
        <time>1970-01-01T01:00:00Z</time>
      </trkpt>
      <trkpt lat="63.44016" lon="10.478244">
        <ele>10.211</ele>
        <time>1970-01-01T01:00:00Z</time>
      </trkpt>
      <trkpt lat="63.44014417" lon="10.47818667">
        <ele>10.211</ele>
        <time>1970-01-01T01:00:00Z</time>
      </trkpt>
      <trkpt lat="63.440132" lon="10.47813533">
        <ele>10.211</ele>
        <time>1970-01-01T01:00:00Z</time>
      </trkpt>
      <trkpt lat="63.44011933" lon="10.47808267">
        <ele>10.211</ele>
        <time>1970-01-01T01:00:00Z</time>
      </trkpt>
      <trkpt lat="63.44010867" lon="10.478025">
        <ele>10.363</ele>
        <time>1970-01-01T01:00:00Z</time>
      </trkpt>
      <trkpt lat="63.44009617" lon="10.4779665">
        <ele>10.363</ele>
        <time>1970-01-01T01:00:00Z</time>
      </trkpt>
      <trkpt lat="63.44008167" lon="10.47790867">
        <ele>10.363</ele>
        <time>1970-01-01T01:00:00Z</time>
      </trkpt>
      <trkpt lat="63.440064" lon="10.47785833">
        <ele>10.363</ele>
        <time>1970-01-01T01:00:00Z</time>
      </trkpt>
      <trkpt lat="63.44004767" lon="10.47780333">
        <ele>10.516</ele>
        <time>1970-01-01T01:00:00Z</time>
      </trkpt>
      <trkpt lat="63.44003267" lon="10.47774333">
        <ele>10.516</ele>
        <time>1970-01-01T01:00:00Z</time>
      </trkpt>
      <trkpt lat="63.44001733" lon="10.477681">
        <ele>10.668</ele>
        <time>1970-01-01T01:00:00Z</time>
      </trkpt>
      <trkpt lat="63.44000117" lon="10.47761733">
        <ele>10.668</ele>
        <time>1970-01-01T01:00:00Z</time>
      </trkpt>
      <trkpt lat="63.4399865" lon="10.477555">
        <ele>10.668</ele>
        <time>1970-01-01T01:00:00Z</time>
      </trkpt>
      <trkpt lat="63.43997417" lon="10.4774855">
        <ele>10.668</ele>
        <time>1970-01-01T01:00:00Z</time>
      </trkpt>
      <trkpt lat="63.43996217" lon="10.4774195">
        <ele>10.821</ele>
        <time>1970-01-01T01:00:00Z</time>
      </trkpt>
      <trkpt lat="63.43995083" lon="10.47735267">
        <ele>10.821</ele>
        <time>1970-01-01T01:00:00Z</time>
      </trkpt>
      <trkpt lat="63.43993817" lon="10.47728933">
        <ele>10.821</ele>
        <time>1970-01-01T01:00:00Z</time>
      </trkpt>
      <trkpt lat="63.439926" lon="10.47722917">
        <ele>10.821</ele>
        <time>1970-01-01T01:00:00Z</time>
      </trkpt>
      <trkpt lat="63.439913" lon="10.47716383">
        <ele>10.973</ele>
        <time>1970-01-01T01:00:00Z</time>
      </trkpt>
      <trkpt lat="63.4399005" lon="10.4771035">
        <ele>10.973</ele>
        <time>1970-01-01T01:00:00Z</time>
      </trkpt>
      <trkpt lat="63.43988783" lon="10.47703883">
        <ele>10.973</ele>
        <time>1970-01-01T01:00:00Z</time>
      </trkpt>
      <trkpt lat="63.439874" lon="10.47698233">
        <ele>10.973</ele>
        <time>1970-01-01T01:00:00Z</time>
      </trkpt>
      <trkpt lat="63.43986033" lon="10.476926">
        <ele>10.973</ele>
        <time>1970-01-01T01:00:00Z</time>
      </trkpt>
      <trkpt lat="63.4398465" lon="10.47687133">
        <ele>10.973</ele>
        <time>1970-01-01T01:00:00Z</time>
      </trkpt>
      <trkpt lat="63.43983367" lon="10.4768165">
        <ele>10.821</ele>
        <time>1970-01-01T01:00:00Z</time>
      </trkpt>
      <trkpt lat="63.43982117" lon="10.47675733">
        <ele>10.821</ele>
        <time>1970-01-01T01:00:00Z</time>
      </trkpt>
      <trkpt lat="63.43980783" lon="10.476704">
        <ele>10.821</ele>
        <time>1970-01-01T01:00:00Z</time>
      </trkpt>
      <trkpt lat="63.43979317" lon="10.47665017">
        <ele>10.821</ele>
        <time>1970-01-01T01:00:00Z</time>
      </trkpt>
      <trkpt lat="63.439776" lon="10.47659867">
        <ele>10.668</ele>
        <time>1970-01-01T01:00:00Z</time>
      </trkpt>
      <trkpt lat="63.43975783" lon="10.4765445">
        <ele>10.668</ele>
        <time>1970-01-01T01:00:00Z</time>
      </trkpt>
      <trkpt lat="63.43973817" lon="10.476492">
        <ele>10.668</ele>
        <time>1970-01-01T01:00:00Z</time>
      </trkpt>
      <trkpt lat="63.43971667" lon="10.47644367">
        <ele>10.668</ele>
        <time>1970-01-01T01:00:00Z</time>
      </trkpt>
      <trkpt lat="63.43969367" lon="10.4763985">
        <ele>10.516</ele>
        <time>1970-01-01T01:00:00Z</time>
      </trkpt>
      <trkpt lat="63.43967083" lon="10.47635983">
        <ele>10.516</ele>
        <time>1970-01-01T01:00:00Z</time>
      </trkpt>
      <trkpt lat="63.43964783" lon="10.4763285">
        <ele>10.363</ele>
        <time>1970-01-01T01:00:00Z</time>
      </trkpt>
      <trkpt lat="63.439624" lon="10.47630667">
        <ele>10.363</ele>
        <time>1970-01-01T01:00:00Z</time>
      </trkpt>
      <trkpt lat="63.4396" lon="10.47629217">
        <ele>10.363</ele>
        <time>1970-01-01T01:00:00Z</time>
      </trkpt>
      <trkpt lat="63.43957667" lon="10.47628133">
        <ele>10.363</ele>
        <time>1970-01-01T01:00:00Z</time>
      </trkpt>
      <trkpt lat="63.43955383" lon="10.47627267">
        <ele>10.363</ele>
        <time>1970-01-01T01:00:00Z</time>
      </trkpt>
      <trkpt lat="63.43953117" lon="10.47626517">
        <ele>10.363</ele>
        <time>1970-01-01T01:00:00Z</time>
      </trkpt>
      <trkpt lat="63.43950817" lon="10.47626133">
        <ele>10.211</ele>
        <time>1970-01-01T01:00:00Z</time>
      </trkpt>
      <trkpt lat="63.43948533" lon="10.47625817">
        <ele>10.211</ele>
        <time>1970-01-01T01:00:00Z</time>
      </trkpt>
      <trkpt lat="63.43946217" lon="10.4762565">
        <ele>10.211</ele>
        <time>1970-01-01T01:00:00Z</time>
      </trkpt>
      <trkpt lat="63.43943883" lon="10.47625867">
        <ele>10.211</ele>
        <time>1970-01-01T01:00:00Z</time>
      </trkpt>
      <trkpt lat="63.43941483" lon="10.47626">
        <ele>10.211</ele>
        <time>1970-01-01T01:00:00Z</time>
      </trkpt>
      <trkpt lat="63.4393905" lon="10.47626017">
        <ele>10.211</ele>
        <time>1970-01-01T01:00:00Z</time>
      </trkpt>
      <trkpt lat="63.43936733" lon="10.47625217">
        <ele>10.211</ele>
        <time>1970-01-01T01:00:00Z</time>
      </trkpt>
      <trkpt lat="63.43934367" lon="10.47624317">
        <ele>10.211</ele>
        <time>1970-01-01T01:00:00Z</time>
      </trkpt>
      <trkpt lat="63.439319" lon="10.47623133">
        <ele>10.211</ele>
        <time>1970-01-01T01:00:00Z</time>
      </trkpt>
      <trkpt lat="63.43929283" lon="10.4762195">
        <ele>10.211</ele>
        <time>1970-01-01T01:00:00Z</time>
      </trkpt>
      <trkpt lat="63.43926583" lon="10.47620517">
        <ele>10.211</ele>
        <time>1970-01-01T01:00:00Z</time>
      </trkpt>
      <trkpt lat="63.43923933" lon="10.4761935">
        <ele>10.211</ele>
        <time>1970-01-01T01:00:00Z</time>
      </trkpt>
      <trkpt lat="63.43921217" lon="10.476181">
        <ele>10.211</ele>
        <time>1970-01-01T01:00:00Z</time>
      </trkpt>
      <trkpt lat="63.43918567" lon="10.47617167">
        <ele>10.211</ele>
        <time>1970-01-01T01:00:00Z</time>
      </trkpt>
      <trkpt lat="63.43915767" lon="10.47616233">
        <ele>10.059</ele>
        <time>1970-01-01T01:00:00Z</time>
      </trkpt>
      <trkpt lat="63.4391325" lon="10.47615717">
        <ele>10.059</ele>
        <time>1970-01-01T01:00:00Z</time>
      </trkpt>
      <trkpt lat="63.4391095" lon="10.476153">
        <ele>10.059</ele>
        <time>1970-01-01T01:00:00Z</time>
      </trkpt>
      <trkpt lat="63.43908917" lon="10.47615133">
        <ele>10.059</ele>
        <time>1970-01-01T01:00:00Z</time>
      </trkpt>
      <trkpt lat="63.43906883" lon="10.47614817">
        <ele>10.059</ele>
        <time>1970-01-01T01:00:00Z</time>
      </trkpt>
      <trkpt lat="63.43904633" lon="10.476144">
        <ele>10.059</ele>
        <time>1970-01-01T01:00:00Z</time>
      </trkpt>
      <trkpt lat="63.43902417" lon="10.4761365">
        <ele>10.059</ele>
        <time>1970-01-01T01:00:00Z</time>
      </trkpt>
      <trkpt lat="63.43900117" lon="10.47612733">
        <ele>10.059</ele>
        <time>1970-01-01T01:00:00Z</time>
      </trkpt>
      <trkpt lat="63.43897917" lon="10.47611533">
        <ele>10.059</ele>
        <time>1970-01-01T01:00:00Z</time>
      </trkpt>
      <trkpt lat="63.438956" lon="10.47610433">
        <ele>10.059</ele>
        <time>1970-01-01T01:00:00Z</time>
      </trkpt>
      <trkpt lat="63.43893017" lon="10.47609033">
        <ele>10.059</ele>
        <time>1970-01-01T01:00:00Z</time>
      </trkpt>
      <trkpt lat="63.43890567" lon="10.47607517">
        <ele>10.059</ele>
        <time>1970-01-01T01:00:00Z</time>
      </trkpt>
      <trkpt lat="63.43888133" lon="10.47605467">
        <ele>10.211</ele>
        <time>1970-01-01T01:00:00Z</time>
      </trkpt>
      <trkpt lat="63.43885717" lon="10.47603383">
        <ele>10.211</ele>
        <time>1970-01-01T01:00:00Z</time>
      </trkpt>
      <trkpt lat="63.4388315" lon="10.4760155">
        <ele>10.211</ele>
        <time>1970-01-01T01:00:00Z</time>
      </trkpt>
      <trkpt lat="63.438805" lon="10.47600117">
        <ele>10.211</ele>
        <time>1970-01-01T01:00:00Z</time>
      </trkpt>
      <trkpt lat="63.43878033" lon="10.475995">
        <ele>10.363</ele>
        <time>1970-01-01T01:00:00Z</time>
      </trkpt>
      <trkpt lat="63.438751" lon="10.47599317">
        <ele>10.363</ele>
        <time>1970-01-01T01:00:00Z</time>
      </trkpt>
      <trkpt lat="63.43872033" lon="10.47599433">
        <ele>10.363</ele>
        <time>1970-01-01T01:00:00Z</time>
      </trkpt>
      <trkpt lat="63.43869017" lon="10.47599033">
        <ele>10.363</ele>
        <time>1970-01-01T01:00:00Z</time>
      </trkpt>
      <trkpt lat="63.43866317" lon="10.47597917">
        <ele>10.516</ele>
        <time>1970-01-01T01:00:00Z</time>
      </trkpt>
      <trkpt lat="63.43863683" lon="10.47596433">
        <ele>10.516</ele>
        <time>1970-01-01T01:00:00Z</time>
      </trkpt>
      <trkpt lat="63.43860817" lon="10.4759445">
        <ele>10.668</ele>
        <time>1970-01-01T01:00:00Z</time>
      </trkpt>
      <trkpt lat="63.43857883" lon="10.47592067">
        <ele>10.668</ele>
        <time>1970-01-01T01:00:00Z</time>
      </trkpt>
      <trkpt lat="63.43855183" lon="10.47589033">
        <ele>10.668</ele>
        <time>1970-01-01T01:00:00Z</time>
      </trkpt>
      <trkpt lat="63.43852583" lon="10.4758555">
        <ele>10.668</ele>
        <time>1970-01-01T01:00:00Z</time>
      </trkpt>
      <trkpt lat="63.438506" lon="10.47581117">
        <ele>10.821</ele>
        <time>1970-01-01T01:00:00Z</time>
      </trkpt>
      <trkpt lat="63.43848867" lon="10.475755">
        <ele>10.821</ele>
        <time>1970-01-01T01:00:00Z</time>
      </trkpt>
      <trkpt lat="63.438472" lon="10.47569167">
        <ele>10.973</ele>
        <time>1970-01-01T01:00:00Z</time>
      </trkpt>
      <trkpt lat="63.438454" lon="10.47563183">
        <ele>10.973</ele>
        <time>1970-01-01T01:00:00Z</time>
      </trkpt>
      <trkpt lat="63.43843467" lon="10.47557083">
        <ele>10.973</ele>
        <time>1970-01-01T01:00:00Z</time>
      </trkpt>
      <trkpt lat="63.43841683" lon="10.47550467">
        <ele>10.973</ele>
        <time>1970-01-01T01:00:00Z</time>
      </trkpt>
      <trkpt lat="63.438401" lon="10.47543617">
        <ele>10.973</ele>
        <time>1970-01-01T01:00:00Z</time>
      </trkpt>
      <trkpt lat="63.43838883" lon="10.47536533">
        <ele>10.973</ele>
        <time>1970-01-01T01:00:00Z</time>
      </trkpt>
      <trkpt lat="63.4383815" lon="10.4753025">
        <ele>10.821</ele>
        <time>1970-01-01T01:00:00Z</time>
      </trkpt>
      <trkpt lat="63.438377" lon="10.47523467">
        <ele>10.821</ele>
        <time>1970-01-01T01:00:00Z</time>
      </trkpt>
      <trkpt lat="63.43837133" lon="10.4751665">
        <ele>10.821</ele>
        <time>1970-01-01T01:00:00Z</time>
      </trkpt>
      <trkpt lat="63.4383635" lon="10.47509233">
        <ele>10.821</ele>
        <time>1970-01-01T01:00:00Z</time>
      </trkpt>
      <trkpt lat="63.43835817" lon="10.47501583">
        <ele>10.821</ele>
        <time>1970-01-01T01:00:00Z</time>
      </trkpt>
      <trkpt lat="63.43835117" lon="10.47494017">
        <ele>10.821</ele>
        <time>1970-01-01T01:00:00Z</time>
      </trkpt>
      <trkpt lat="63.43834633" lon="10.47486717">
        <ele>10.668</ele>
        <time>1970-01-01T01:00:00Z</time>
      </trkpt>
      <trkpt lat="63.43833917" lon="10.47479417">
        <ele>10.668</ele>
        <time>1970-01-01T01:00:00Z</time>
      </trkpt>
      <trkpt lat="63.43833233" lon="10.474722">
        <ele>10.668</ele>
        <time>1970-01-01T01:00:00Z</time>
      </trkpt>
      <trkpt lat="63.43832517" lon="10.47464533">
        <ele>10.668</ele>
        <time>1970-01-01T01:00:00Z</time>
      </trkpt>
      <trkpt lat="63.43831933" lon="10.47457317">
        <ele>10.516</ele>
        <time>1970-01-01T01:00:00Z</time>
      </trkpt>
      <trkpt lat="63.438316" lon="10.47450233">
        <ele>10.516</ele>
        <time>1970-01-01T01:00:00Z</time>
      </trkpt>
      <trkpt lat="63.43831233" lon="10.47443567">
        <ele>10.516</ele>
        <time>1970-01-01T01:00:00Z</time>
      </trkpt>
      <trkpt lat="63.4383085" lon="10.47437033">
        <ele>10.516</ele>
        <time>1970-01-01T01:00:00Z</time>
      </trkpt>
      <trkpt lat="63.438305" lon="10.47430083">
        <ele>10.363</ele>
        <time>1970-01-01T01:00:00Z</time>
      </trkpt>
      <trkpt lat="63.4383015" lon="10.47423283">
        <ele>10.363</ele>
        <time>1970-01-01T01:00:00Z</time>
      </trkpt>
      <trkpt lat="63.438298" lon="10.47416333">
        <ele>10.211</ele>
        <time>1970-01-01T01:00:00Z</time>
      </trkpt>
      <trkpt lat="63.43829683" lon="10.47409767">
        <ele>10.211</ele>
        <time>1970-01-01T01:00:00Z</time>
      </trkpt>
      <trkpt lat="63.4383" lon="10.47402933">
        <ele>10.059</ele>
        <time>1970-01-01T01:00:00Z</time>
      </trkpt>
      <trkpt lat="63.43830517" lon="10.4739585">
        <ele>10.059</ele>
        <time>1970-01-01T01:00:00Z</time>
      </trkpt>
      <trkpt lat="63.43831067" lon="10.47388733">
        <ele>9.754</ele>
        <time>1970-01-01T01:00:00Z</time>
      </trkpt>
      <trkpt lat="63.43831317" lon="10.47381617">
        <ele>9.754</ele>
        <time>1970-01-01T01:00:00Z</time>
      </trkpt>
      <trkpt lat="63.43831567" lon="10.47374833">
        <ele>9.449</ele>
        <time>1970-01-01T01:00:00Z</time>
      </trkpt>
      <trkpt lat="63.43831817" lon="10.4736825">
        <ele>9.449</ele>
        <time>1970-01-01T01:00:00Z</time>
      </trkpt>
      <trkpt lat="63.43832633" lon="10.47361933">
        <ele>9.144</ele>
        <time>1970-01-01T01:00:00Z</time>
      </trkpt>
      <trkpt lat="63.43833533" lon="10.47355633">
        <ele>9.144</ele>
        <time>1970-01-01T01:00:00Z</time>
      </trkpt>
      <trkpt lat="63.43834333" lon="10.47349367">
        <ele>8.839</ele>
        <time>1970-01-01T01:00:00Z</time>
      </trkpt>
      <trkpt lat="63.438347" lon="10.4734345">
        <ele>8.839</ele>
        <time>1970-01-01T01:00:00Z</time>
      </trkpt>
      <trkpt lat="63.438349" lon="10.47337933">
        <ele>8.687</ele>
        <time>1970-01-01T01:00:00Z</time>
      </trkpt>
      <trkpt lat="63.43835217" lon="10.47332283">
        <ele>8.687</ele>
        <time>1970-01-01T01:00:00Z</time>
      </trkpt>
      <trkpt lat="63.43835583" lon="10.473265">
        <ele>8.382</ele>
        <time>1970-01-01T01:00:00Z</time>
      </trkpt>
      <trkpt lat="63.43835933" lon="10.47320483">
        <ele>8.382</ele>
        <time>1970-01-01T01:00:00Z</time>
      </trkpt>
      <trkpt lat="63.43836217" lon="10.4731485">
        <ele>8.23</ele>
        <time>1970-01-01T01:00:00Z</time>
      </trkpt>
      <trkpt lat="63.43836667" lon="10.473098">
        <ele>8.23</ele>
        <time>1970-01-01T01:00:00Z</time>
      </trkpt>
      <trkpt lat="63.438374" lon="10.47305117">
        <ele>8.077</ele>
        <time>1970-01-01T01:00:00Z</time>
      </trkpt>
      <trkpt lat="63.43838433" lon="10.47300867">
        <ele>8.077</ele>
        <time>1970-01-01T01:00:00Z</time>
      </trkpt>
      <trkpt lat="63.43839567" lon="10.47296667">
        <ele>7.772</ele>
        <time>1970-01-01T01:00:00Z</time>
      </trkpt>
      <trkpt lat="63.4384065" lon="10.47293167">
        <ele>7.772</ele>
        <time>1970-01-01T01:00:00Z</time>
      </trkpt>
      <trkpt lat="63.4384155" lon="10.4729025">
        <ele>7.62</ele>
        <time>1970-01-01T01:00:00Z</time>
      </trkpt>
      <trkpt lat="63.438423" lon="10.47287767">
        <ele>7.62</ele>
        <time>1970-01-01T01:00:00Z</time>
      </trkpt>
      <trkpt lat="63.43842817" lon="10.47285583">
        <ele>7.468</ele>
        <time>1970-01-01T01:00:00Z</time>
      </trkpt>
      <trkpt lat="63.4384345" lon="10.47283717">
        <ele>7.468</ele>
        <time>1970-01-01T01:00:00Z</time>
      </trkpt>
      <trkpt lat="63.43844467" lon="10.472813">
        <ele>7.468</ele>
        <time>1970-01-01T01:00:00Z</time>
      </trkpt>
      <trkpt lat="63.43845433" lon="10.47278783">
        <ele>7.468</ele>
        <time>1970-01-01T01:00:00Z</time>
      </trkpt>
      <trkpt lat="63.43846817" lon="10.47276883">
        <ele>7.315</ele>
        <time>1970-01-01T01:00:00Z</time>
      </trkpt>
      <trkpt lat="63.43848983" lon="10.47276533">
        <ele>7.315</ele>
        <time>1970-01-01T01:00:00Z</time>
      </trkpt>
      <trkpt lat="63.438514" lon="10.47276917">
        <ele>7.163</ele>
        <time>1970-01-01T01:00:00Z</time>
      </trkpt>
      <trkpt lat="63.43853683" lon="10.47277633">
        <ele>7.163</ele>
        <time>1970-01-01T01:00:00Z</time>
      </trkpt>
      <trkpt lat="63.43855067" lon="10.472786">
        <ele>7.01</ele>
        <time>1970-01-01T01:00:00Z</time>
      </trkpt>
      <trkpt lat="63.43856783" lon="10.4727975">
        <ele>7.01</ele>
        <time>1970-01-01T01:00:00Z</time>
      </trkpt>
      <trkpt lat="63.43858333" lon="10.47280283">
        <ele>6.858</ele>
        <time>1970-01-01T01:00:00Z</time>
      </trkpt>
      <trkpt lat="63.43859817" lon="10.47280233">
        <ele>6.858</ele>
        <time>1970-01-01T01:00:00Z</time>
      </trkpt>
      <trkpt lat="63.43861183" lon="10.47279483">
        <ele>6.858</ele>
        <time>1970-01-01T01:00:00Z</time>
      </trkpt>
      <trkpt lat="63.43863033" lon="10.47278867">
        <ele>6.858</ele>
        <time>1970-01-01T01:00:00Z</time>
      </trkpt>
      <trkpt lat="63.4386545" lon="10.47277817">
        <ele>6.706</ele>
        <time>1970-01-01T01:00:00Z</time>
      </trkpt>
      <trkpt lat="63.43868083" lon="10.472771">
        <ele>6.706</ele>
        <time>1970-01-01T01:00:00Z</time>
      </trkpt>
      <trkpt lat="63.438704" lon="10.4727635">
        <ele>6.401</ele>
        <time>1970-01-01T01:00:00Z</time>
      </trkpt>
      <trkpt lat="63.438726" lon="10.47276433">
        <ele>6.401</ele>
        <time>1970-01-01T01:00:00Z</time>
      </trkpt>
      <trkpt lat="63.43874783" lon="10.47275317">
        <ele>6.248</ele>
        <time>1970-01-01T01:00:00Z</time>
      </trkpt>
      <trkpt lat="63.43877017" lon="10.47273283">
        <ele>6.248</ele>
        <time>1970-01-01T01:00:00Z</time>
      </trkpt>
      <trkpt lat="63.43879217" lon="10.4726985">
        <ele>6.248</ele>
        <time>1970-01-01T01:00:00Z</time>
      </trkpt>
      <trkpt lat="63.438812" lon="10.47266317">
        <ele>6.248</ele>
        <time>1970-01-01T01:00:00Z</time>
      </trkpt>
      <trkpt lat="63.43883067" lon="10.472627">
        <ele>6.096</ele>
        <time>1970-01-01T01:00:00Z</time>
      </trkpt>
      <trkpt lat="63.4388525" lon="10.472593">
        <ele>6.096</ele>
        <time>1970-01-01T01:00:00Z</time>
      </trkpt>
      <trkpt lat="63.43887383" lon="10.4725605">
        <ele>6.096</ele>
        <time>1970-01-01T01:00:00Z</time>
      </trkpt>
      <trkpt lat="63.43889467" lon="10.47253417">
        <ele>6.096</ele>
        <time>1970-01-01T01:00:00Z</time>
      </trkpt>
      <trkpt lat="63.43891333" lon="10.4725135">
        <ele>5.944</ele>
        <time>1970-01-01T01:00:00Z</time>
      </trkpt>
      <trkpt lat="63.43893317" lon="10.4725">
        <ele>5.944</ele>
        <time>1970-01-01T01:00:00Z</time>
      </trkpt>
      <trkpt lat="63.438951" lon="10.4724845">
        <ele>5.944</ele>
        <time>1970-01-01T01:00:00Z</time>
      </trkpt>
      <trkpt lat="63.438968" lon="10.47246617">
        <ele>5.944</ele>
        <time>1970-01-01T01:00:00Z</time>
      </trkpt>
      <trkpt lat="63.43898733" lon="10.47244333">
        <ele>5.791</ele>
        <time>1970-01-01T01:00:00Z</time>
      </trkpt>
      <trkpt lat="63.43900733" lon="10.47241367">
        <ele>5.791</ele>
        <time>1970-01-01T01:00:00Z</time>
      </trkpt>
      <trkpt lat="63.43902267" lon="10.472378">
        <ele>5.791</ele>
        <time>1970-01-01T01:00:00Z</time>
      </trkpt>
      <trkpt lat="63.43903217" lon="10.47233917">
        <ele>5.791</ele>
        <time>1970-01-01T01:00:00Z</time>
      </trkpt>
      <trkpt lat="63.43904167" lon="10.472309">
        <ele>5.791</ele>
        <time>1970-01-01T01:00:00Z</time>
      </trkpt>
      <trkpt lat="63.43905217" lon="10.472283">
        <ele>5.791</ele>
        <time>1970-01-01T01:00:00Z</time>
      </trkpt>
      <trkpt lat="63.4390645" lon="10.47225917">
        <ele>5.639</ele>
        <time>1970-01-01T01:00:00Z</time>
      </trkpt>
      <trkpt lat="63.43907617" lon="10.472235">
        <ele>5.639</ele>
        <time>1970-01-01T01:00:00Z</time>
      </trkpt>
      <trkpt lat="63.43909383" lon="10.47221283">
        <ele>5.486</ele>
        <time>1970-01-01T01:00:00Z</time>
      </trkpt>
      <trkpt lat="63.43912017" lon="10.47218783">
        <ele>5.486</ele>
        <time>1970-01-01T01:00:00Z</time>
      </trkpt>
      <trkpt lat="63.43915333" lon="10.47216433">
        <ele>5.182</ele>
        <time>1970-01-01T01:00:00Z</time>
      </trkpt>
      <trkpt lat="63.4391835" lon="10.47214167">
        <ele>5.182</ele>
        <time>1970-01-01T01:00:00Z</time>
      </trkpt>
      <trkpt lat="63.43921183" lon="10.472123">
        <ele>4.877</ele>
        <time>1970-01-01T01:00:00Z</time>
      </trkpt>
      <trkpt lat="63.43924167" lon="10.472104">
        <ele>4.877</ele>
        <time>1970-01-01T01:00:00Z</time>
      </trkpt>
      <trkpt lat="63.43927833" lon="10.47208783">
        <ele>4.42</ele>
        <time>1970-01-01T01:00:00Z</time>
      </trkpt>
      <trkpt lat="63.43931333" lon="10.47207867">
        <ele>4.42</ele>
        <time>1970-01-01T01:00:00Z</time>
      </trkpt>
      <trkpt lat="63.43934733" lon="10.472073">
        <ele>4.115</ele>
        <time>1970-01-01T01:00:00Z</time>
      </trkpt>
      <trkpt lat="63.43937717" lon="10.472068">
        <ele>4.115</ele>
        <time>1970-01-01T01:00:00Z</time>
      </trkpt>
      <trkpt lat="63.439405" lon="10.4720575">
        <ele>3.81</ele>
        <time>1970-01-01T01:00:00Z</time>
      </trkpt>
      <trkpt lat="63.43942917" lon="10.47203933">
        <ele>3.81</ele>
        <time>1970-01-01T01:00:00Z</time>
      </trkpt>
      <trkpt lat="63.43944967" lon="10.47201517">
        <ele>3.658</ele>
        <time>1970-01-01T01:00:00Z</time>
      </trkpt>
      <trkpt lat="63.439474" lon="10.47199683">
        <ele>3.658</ele>
        <time>1970-01-01T01:00:00Z</time>
      </trkpt>
      <trkpt lat="63.43950117" lon="10.47198367">
        <ele>3.353</ele>
        <time>1970-01-01T01:00:00Z</time>
      </trkpt>
      <trkpt lat="63.43952917" lon="10.47197683">
        <ele>3.353</ele>
        <time>1970-01-01T01:00:00Z</time>
      </trkpt>
      <trkpt lat="63.43955283" lon="10.47196833">
        <ele>3.048</ele>
        <time>1970-01-01T01:00:00Z</time>
      </trkpt>
      <trkpt lat="63.43957867" lon="10.47195267">
        <ele>3.048</ele>
        <time>1970-01-01T01:00:00Z</time>
      </trkpt>
      <trkpt lat="63.43960633" lon="10.47193">
        <ele>2.743</ele>
        <time>1970-01-01T01:00:00Z</time>
      </trkpt>
      <trkpt lat="63.43963783" lon="10.47190917">
        <ele>2.743</ele>
        <time>1970-01-01T01:00:00Z</time>
      </trkpt>
      <trkpt lat="63.4396695" lon="10.47189517">
        <ele>2.591</ele>
        <time>1970-01-01T01:00:00Z</time>
      </trkpt>
      <trkpt lat="63.4397" lon="10.47188733">
        <ele>2.591</ele>
        <time>1970-01-01T01:00:00Z</time>
      </trkpt>
      <trkpt lat="63.43973083" lon="10.471882">
        <ele>2.438</ele>
        <time>1970-01-01T01:00:00Z</time>
      </trkpt>
      <trkpt lat="63.439759" lon="10.471883">
        <ele>2.438</ele>
        <time>1970-01-01T01:00:00Z</time>
      </trkpt>
      <trkpt lat="63.4397895" lon="10.47188183">
        <ele>2.286</ele>
        <time>1970-01-01T01:00:00Z</time>
      </trkpt>
      <trkpt lat="63.4398205" lon="10.47187667">
        <ele>2.286</ele>
        <time>1970-01-01T01:00:00Z</time>
      </trkpt>
      <trkpt lat="63.43985083" lon="10.471861">
        <ele>2.134</ele>
        <time>1970-01-01T01:00:00Z</time>
      </trkpt>
      <trkpt lat="63.43987917" lon="10.47184267">
        <ele>2.134</ele>
        <time>1970-01-01T01:00:00Z</time>
      </trkpt>
      <trkpt lat="63.4399045" lon="10.47182383">
        <ele>1.981</ele>
        <time>1970-01-01T01:00:00Z</time>
      </trkpt>
      <trkpt lat="63.43992783" lon="10.4718045">
        <ele>1.981</ele>
        <time>1970-01-01T01:00:00Z</time>
      </trkpt>
      <trkpt lat="63.43994917" lon="10.4717845">
        <ele>1.829</ele>
        <time>1970-01-01T01:00:00Z</time>
      </trkpt>
      <trkpt lat="63.43996617" lon="10.471754">
        <ele>1.829</ele>
        <time>1970-01-01T01:00:00Z</time>
      </trkpt>
      <trkpt lat="63.4399845" lon="10.4717255">
        <ele>1.676</ele>
        <time>1970-01-01T01:00:00Z</time>
      </trkpt>
      <trkpt lat="63.44000483" lon="10.47169483">
        <ele>1.676</ele>
        <time>1970-01-01T01:00:00Z</time>
      </trkpt>
      <trkpt lat="63.44002717" lon="10.47166817">
        <ele>1.524</ele>
        <time>1970-01-01T01:00:00Z</time>
      </trkpt>
      <trkpt lat="63.4400475" lon="10.47163683">
        <ele>1.524</ele>
        <time>1970-01-01T01:00:00Z</time>
      </trkpt>
      <trkpt lat="63.44006583" lon="10.47160583">
        <ele>1.219</ele>
        <time>1970-01-01T01:00:00Z</time>
      </trkpt>
      <trkpt lat="63.44008183" lon="10.47157967">
        <ele>1.219</ele>
        <time>1970-01-01T01:00:00Z</time>
      </trkpt>
      <trkpt lat="63.44010017" lon="10.4715595">
        <ele>1.067</ele>
        <time>1970-01-01T01:00:00Z</time>
      </trkpt>
      <trkpt lat="63.440121" lon="10.47154183">
        <ele>1.067</ele>
        <time>1970-01-01T01:00:00Z</time>
      </trkpt>
      <trkpt lat="63.44015033" lon="10.47152733">
        <ele>0.914</ele>
        <time>1970-01-01T01:00:00Z</time>
      </trkpt>
      <trkpt lat="63.44018217" lon="10.471512">
        <ele>0.914</ele>
        <time>1970-01-01T01:00:00Z</time>
      </trkpt>
      <trkpt lat="63.44021933" lon="10.47150017">
        <ele>0.762</ele>
        <time>1970-01-01T01:00:00Z</time>
      </trkpt>
      <trkpt lat="63.44025817" lon="10.4714865">
        <ele>0.762</ele>
        <time>1970-01-01T01:00:00Z</time>
      </trkpt>
      <trkpt lat="63.440312" lon="10.47146967">
        <ele>0.762</ele>
        <time>1970-01-01T01:00:00Z</time>
      </trkpt>
      <trkpt lat="63.440371" lon="10.4714535">
        <ele>0.762</ele>
        <time>1970-01-01T01:00:00Z</time>
      </trkpt>
      <trkpt lat="63.44043117" lon="10.471429">
        <ele>0.61</ele>
        <time>1970-01-01T01:00:00Z</time>
      </trkpt>
      <trkpt lat="63.44047517" lon="10.4714015">
        <ele>0.61</ele>
        <time>1970-01-01T01:00:00Z</time>
      </trkpt>
      <trkpt lat="63.44050867" lon="10.471366">
        <ele>0.457</ele>
        <time>1970-01-01T01:00:00Z</time>
      </trkpt>
      <trkpt lat="63.44053467" lon="10.471334">
        <ele>0.457</ele>
        <time>1970-01-01T01:00:00Z</time>
      </trkpt>
      <trkpt lat="63.440561" lon="10.471304">
        <ele>0.457</ele>
        <time>1970-01-01T01:00:00Z</time>
      </trkpt>
      <trkpt lat="63.4405865" lon="10.47127483">
        <ele>0.457</ele>
        <time>1970-01-01T01:00:00Z</time>
      </trkpt>
      <trkpt lat="63.44061517" lon="10.4712495">
        <ele>0.305</ele>
        <time>1970-01-01T01:00:00Z</time>
      </trkpt>
      <trkpt lat="63.440647" lon="10.47122583">
        <ele>0.305</ele>
        <time>1970-01-01T01:00:00Z</time>
      </trkpt>
      <trkpt lat="63.44067883" lon="10.47120317">
        <ele>0.152</ele>
        <time>1970-01-01T01:00:00Z</time>
      </trkpt>
      <trkpt lat="63.440711" lon="10.47117883">
        <ele>0.152</ele>
        <time>1970-01-01T01:00:00Z</time>
      </trkpt>
      <trkpt lat="63.44073783" lon="10.47115083">
        <ele>0</ele>
        <time>1970-01-01T01:00:00Z</time>
      </trkpt>
      <trkpt lat="63.440765" lon="10.47111583">
        <ele>0</ele>
        <time>1970-01-01T01:00:00Z</time>
      </trkpt>
      <trkpt lat="63.4407885" lon="10.47108">
        <ele>0</ele>
        <time>1970-01-01T01:00:00Z</time>
      </trkpt>
      <trkpt lat="63.44081783" lon="10.47105333">
        <ele>0</ele>
        <time>1970-01-01T01:00:00Z</time>
      </trkpt>
      <trkpt lat="63.44084667" lon="10.47103">
        <ele>0</ele>
        <time>1970-01-01T01:00:00Z</time>
      </trkpt>
      <trkpt lat="63.44087617" lon="10.47100667">
        <ele>0</ele>
        <time>1970-01-01T01:00:00Z</time>
      </trkpt>
      <trkpt lat="63.440905" lon="10.47097733">
        <ele>0</ele>
        <time>1970-01-01T01:00:00Z</time>
      </trkpt>
      <trkpt lat="63.44093583" lon="10.47095417">
        <ele>0</ele>
        <time>1970-01-01T01:00:00Z</time>
      </trkpt>
      <trkpt lat="63.440966" lon="10.47093017">
        <ele>0</ele>
        <time>1970-01-01T01:00:00Z</time>
      </trkpt>
      <trkpt lat="63.44099117" lon="10.470908">
        <ele>0</ele>
        <time>1970-01-01T01:00:00Z</time>
      </trkpt>
      <trkpt lat="63.44101683" lon="10.47088367">
        <ele>0</ele>
        <time>1970-01-01T01:00:00Z</time>
      </trkpt>
      <trkpt lat="63.44104467" lon="10.47086017">
        <ele>0</ele>
        <time>1970-01-01T01:00:00Z</time>
      </trkpt>
      <trkpt lat="63.44107533" lon="10.47083683">
        <ele>0</ele>
        <time>1970-01-01T01:00:00Z</time>
      </trkpt>
      <trkpt lat="63.441104" lon="10.470815">
        <ele>0</ele>
        <time>1970-01-01T01:00:00Z</time>
      </trkpt>
      <trkpt lat="63.441133" lon="10.47079567">
        <ele>0</ele>
        <time>1970-01-01T01:00:00Z</time>
      </trkpt>
      <trkpt lat="63.44115817" lon="10.47077583">
        <ele>0</ele>
        <time>1970-01-01T01:00:00Z</time>
      </trkpt>
      <trkpt lat="63.44118617" lon="10.47075683">
        <ele>0</ele>
        <time>1970-01-01T01:00:00Z</time>
      </trkpt>
      <trkpt lat="63.44121483" lon="10.470741">
        <ele>0</ele>
        <time>1970-01-01T01:00:00Z</time>
      </trkpt>
      <trkpt lat="63.441247" lon="10.47072517">
        <ele>0</ele>
        <time>1970-01-01T01:00:00Z</time>
      </trkpt>
      <trkpt lat="63.44127767" lon="10.4707075">
        <ele>0</ele>
        <time>1970-01-01T01:00:00Z</time>
      </trkpt>
      <trkpt lat="63.44130617" lon="10.47068617">
        <ele>0</ele>
        <time>1970-01-01T01:00:00Z</time>
      </trkpt>
      <trkpt lat="63.441333" lon="10.4706645">
        <ele>0</ele>
        <time>1970-01-01T01:00:00Z</time>
      </trkpt>
      <trkpt lat="63.44136083" lon="10.47064467">
        <ele>0</ele>
        <time>1970-01-01T01:00:00Z</time>
      </trkpt>
      <trkpt lat="63.44138917" lon="10.47062633">
        <ele>0</ele>
        <time>1970-01-01T01:00:00Z</time>
      </trkpt>
      <trkpt lat="63.44141833" lon="10.47061033">
        <ele>0</ele>
        <time>1970-01-01T01:00:00Z</time>
      </trkpt>
      <trkpt lat="63.44144483" lon="10.470596">
        <ele>0</ele>
        <time>1970-01-01T01:00:00Z</time>
      </trkpt>
      <trkpt lat="63.44147067" lon="10.47058167">
        <ele>0</ele>
        <time>1970-01-01T01:00:00Z</time>
      </trkpt>
      <trkpt lat="63.441495" lon="10.47056517">
        <ele>0</ele>
        <time>1970-01-01T01:00:00Z</time>
      </trkpt>
      <trkpt lat="63.44151933" lon="10.47055017">
        <ele>0</ele>
        <time>1970-01-01T01:00:00Z</time>
      </trkpt>
      <trkpt lat="63.44154433" lon="10.47053717">
        <ele>0</ele>
        <time>1970-01-01T01:00:00Z</time>
      </trkpt>
      <trkpt lat="63.44156817" lon="10.47052983">
        <ele>0</ele>
        <time>1970-01-01T01:00:00Z</time>
      </trkpt>
      <trkpt lat="63.441594" lon="10.4705205">
        <ele>0</ele>
        <time>1970-01-01T01:00:00Z</time>
      </trkpt>
      <trkpt lat="63.441621" lon="10.47051217">
        <ele>0</ele>
        <time>1970-01-01T01:00:00Z</time>
      </trkpt>
      <trkpt lat="63.44164967" lon="10.47050233">
        <ele>0</ele>
        <time>1970-01-01T01:00:00Z</time>
      </trkpt>
      <trkpt lat="63.441678" lon="10.47049417">
        <ele>0</ele>
        <time>1970-01-01T01:00:00Z</time>
      </trkpt>
      <trkpt lat="63.441707" lon="10.47048467">
        <ele>0</ele>
        <time>1970-01-01T01:00:00Z</time>
      </trkpt>
      <trkpt lat="63.4417415" lon="10.470472">
        <ele>0</ele>
        <time>1970-01-01T01:00:00Z</time>
      </trkpt>
      <trkpt lat="63.44177767" lon="10.470457">
        <ele>0</ele>
        <time>1970-01-01T01:00:00Z</time>
      </trkpt>
      <trkpt lat="63.44181583" lon="10.470444">
        <ele>0</ele>
        <time>1970-01-01T01:00:00Z</time>
      </trkpt>
      <trkpt lat="63.4418505" lon="10.4704335">
        <ele>0</ele>
        <time>1970-01-01T01:00:00Z</time>
      </trkpt>
      <trkpt lat="63.44188767" lon="10.470425">
        <ele>0</ele>
        <time>1970-01-01T01:00:00Z</time>
      </trkpt>
      <trkpt lat="63.44192133" lon="10.47041467">
        <ele>0</ele>
        <time>1970-01-01T01:00:00Z</time>
      </trkpt>
      <trkpt lat="63.44195467" lon="10.47041067">
        <ele>0</ele>
        <time>1970-01-01T01:00:00Z</time>
      </trkpt>
      <trkpt lat="63.441984" lon="10.47040717">
        <ele>0</ele>
        <time>1970-01-01T01:00:00Z</time>
      </trkpt>
      <trkpt lat="63.44201033" lon="10.470402">
        <ele>0.152</ele>
        <time>1970-01-01T01:00:00Z</time>
      </trkpt>
      <trkpt lat="63.44203517" lon="10.47038983">
        <ele>0.152</ele>
        <time>1970-01-01T01:00:00Z</time>
      </trkpt>
      <trkpt lat="63.44205783" lon="10.470376">
        <ele>0.152</ele>
        <time>1970-01-01T01:00:00Z</time>
      </trkpt>
      <trkpt lat="63.4420835" lon="10.47036367">
        <ele>0.152</ele>
        <time>1970-01-01T01:00:00Z</time>
      </trkpt>
      <trkpt lat="63.442107" lon="10.47035033">
        <ele>0.152</ele>
        <time>1970-01-01T01:00:00Z</time>
      </trkpt>
      <trkpt lat="63.44212983" lon="10.47033917">
        <ele>0.152</ele>
        <time>1970-01-01T01:00:00Z</time>
      </trkpt>
      <trkpt lat="63.44214667" lon="10.47032933">
        <ele>0.152</ele>
        <time>1970-01-01T01:00:00Z</time>
      </trkpt>
      <trkpt lat="63.44216067" lon="10.47031933">
        <ele>0.152</ele>
        <time>1970-01-01T01:00:00Z</time>
      </trkpt>
      <trkpt lat="63.4421705" lon="10.47030933">
        <ele>0.305</ele>
        <time>1970-01-01T01:00:00Z</time>
      </trkpt>
      <trkpt lat="63.44218017" lon="10.47030233">
        <ele>0.305</ele>
        <time>1970-01-01T01:00:00Z</time>
      </trkpt>
      <trkpt lat="63.44219183" lon="10.4703005">
        <ele>0.305</ele>
        <time>1970-01-01T01:00:00Z</time>
      </trkpt>
      <trkpt lat="63.44220683" lon="10.4703035">
        <ele>0.305</ele>
        <time>1970-01-01T01:00:00Z</time>
      </trkpt>
      <trkpt lat="63.44222183" lon="10.47030817">
        <ele>0.305</ele>
        <time>1970-01-01T01:00:00Z</time>
      </trkpt>
      <trkpt lat="63.4422375" lon="10.47031133">
        <ele>0.305</ele>
        <time>1970-01-01T01:00:00Z</time>
      </trkpt>
      <trkpt lat="63.4422535" lon="10.47031283">
        <ele>0.305</ele>
        <time>1970-01-01T01:00:00Z</time>
      </trkpt>
      <trkpt lat="63.44227183" lon="10.47031467">
        <ele>0.305</ele>
        <time>1970-01-01T01:00:00Z</time>
      </trkpt>
      <trkpt lat="63.4422915" lon="10.470318">
        <ele>0.457</ele>
        <time>1970-01-01T01:00:00Z</time>
      </trkpt>
      <trkpt lat="63.44231333" lon="10.4703215">
        <ele>0.457</ele>
        <time>1970-01-01T01:00:00Z</time>
      </trkpt>
      <trkpt lat="63.44233783" lon="10.470329">
        <ele>0.457</ele>
        <time>1970-01-01T01:00:00Z</time>
      </trkpt>
      <trkpt lat="63.44236533" lon="10.47033583">
        <ele>0.457</ele>
        <time>1970-01-01T01:00:00Z</time>
      </trkpt>
      <trkpt lat="63.44239167" lon="10.47034483">
        <ele>0.457</ele>
        <time>1970-01-01T01:00:00Z</time>
      </trkpt>
      <trkpt lat="63.44241683" lon="10.47034733">
        <ele>0.457</ele>
        <time>1970-01-01T01:00:00Z</time>
      </trkpt>
      <trkpt lat="63.4424385" lon="10.47035317">
        <ele>0.61</ele>
        <time>1970-01-01T01:00:00Z</time>
      </trkpt>
      <trkpt lat="63.44246183" lon="10.47035217">
        <ele>0.61</ele>
        <time>1970-01-01T01:00:00Z</time>
      </trkpt>
      <trkpt lat="63.44248367" lon="10.47034767">
        <ele>0.762</ele>
        <time>1970-01-01T01:00:00Z</time>
      </trkpt>
      <trkpt lat="63.44250333" lon="10.47034083">
        <ele>0.762</ele>
        <time>1970-01-01T01:00:00Z</time>
      </trkpt>
      <trkpt lat="63.4425225" lon="10.47033633">
        <ele>0.762</ele>
        <time>1970-01-01T01:00:00Z</time>
      </trkpt>
      <trkpt lat="63.4425405" lon="10.47033217">
        <ele>0.762</ele>
        <time>1970-01-01T01:00:00Z</time>
      </trkpt>
      <trkpt lat="63.44256083" lon="10.47032583">
        <ele>0.762</ele>
        <time>1970-01-01T01:00:00Z</time>
      </trkpt>
      <trkpt lat="63.44258083" lon="10.47031717">
        <ele>0.762</ele>
        <time>1970-01-01T01:00:00Z</time>
      </trkpt>
      <trkpt lat="63.44260183" lon="10.47030367">
        <ele>0.762</ele>
        <time>1970-01-01T01:00:00Z</time>
      </trkpt>
      <trkpt lat="63.4426215" lon="10.47028833">
        <ele>0.762</ele>
        <time>1970-01-01T01:00:00Z</time>
      </trkpt>
      <trkpt lat="63.442639" lon="10.47027567">
        <ele>0.762</ele>
        <time>1970-01-01T01:00:00Z</time>
      </trkpt>
      <trkpt lat="63.44265567" lon="10.470265">
        <ele>0.762</ele>
        <time>1970-01-01T01:00:00Z</time>
      </trkpt>
      <trkpt lat="63.442675" lon="10.4702505">
        <ele>0.762</ele>
        <time>1970-01-01T01:00:00Z</time>
      </trkpt>
      <trkpt lat="63.442696" lon="10.47023">
        <ele>0.762</ele>
        <time>1970-01-01T01:00:00Z</time>
      </trkpt>
      <trkpt lat="63.44271983" lon="10.47021167">
        <ele>0.762</ele>
        <time>1970-01-01T01:00:00Z</time>
      </trkpt>
      <trkpt lat="63.44273983" lon="10.470199">
        <ele>0.762</ele>
        <time>1970-01-01T01:00:00Z</time>
      </trkpt>
      <trkpt lat="63.44275867" lon="10.4701905">
        <ele>0.61</ele>
        <time>1970-01-01T01:00:00Z</time>
      </trkpt>
      <trkpt lat="63.44277467" lon="10.47018083">
        <ele>0.61</ele>
        <time>1970-01-01T01:00:00Z</time>
      </trkpt>
      <trkpt lat="63.4427915" lon="10.4701675">
        <ele>0.61</ele>
        <time>1970-01-01T01:00:00Z</time>
      </trkpt>
      <trkpt lat="63.44280667" lon="10.47015367">
        <ele>0.61</ele>
        <time>1970-01-01T01:00:00Z</time>
      </trkpt>
      <trkpt lat="63.44282283" lon="10.47014317">
        <ele>0.61</ele>
        <time>1970-01-01T01:00:00Z</time>
      </trkpt>
      <trkpt lat="63.44284" lon="10.470137">
        <ele>0.61</ele>
        <time>1970-01-01T01:00:00Z</time>
      </trkpt>
      <trkpt lat="63.44286117" lon="10.4701325">
        <ele>0.61</ele>
        <time>1970-01-01T01:00:00Z</time>
      </trkpt>
      <trkpt lat="63.44288617" lon="10.470128">
        <ele>0.61</ele>
        <time>1970-01-01T01:00:00Z</time>
      </trkpt>
      <trkpt lat="63.44291367" lon="10.4701205">
        <ele>0.61</ele>
        <time>1970-01-01T01:00:00Z</time>
      </trkpt>
      <trkpt lat="63.44294333" lon="10.47011467">
        <ele>0.61</ele>
        <time>1970-01-01T01:00:00Z</time>
      </trkpt>
      <trkpt lat="63.4429695" lon="10.47010717">
        <ele>0.61</ele>
        <time>1970-01-01T01:00:00Z</time>
      </trkpt>
      <trkpt lat="63.44299317" lon="10.47010117">
        <ele>0.61</ele>
        <time>1970-01-01T01:00:00Z</time>
      </trkpt>
      <trkpt lat="63.44301467" lon="10.47009117">
        <ele>0.457</ele>
        <time>1970-01-01T01:00:00Z</time>
      </trkpt>
      <trkpt lat="63.443037" lon="10.47009033">
        <ele>0.457</ele>
        <time>1970-01-01T01:00:00Z</time>
      </trkpt>
      <trkpt lat="63.4430625" lon="10.47009267">
        <ele>0.457</ele>
        <time>1970-01-01T01:00:00Z</time>
      </trkpt>
      <trkpt lat="63.44308867" lon="10.47010283">
        <ele>0.457</ele>
        <time>1970-01-01T01:00:00Z</time>
      </trkpt>
      <trkpt lat="63.4431185" lon="10.4701115">
        <ele>0.457</ele>
        <time>1970-01-01T01:00:00Z</time>
      </trkpt>
      <trkpt lat="63.44314883" lon="10.47012083">
        <ele>0.457</ele>
        <time>1970-01-01T01:00:00Z</time>
      </trkpt>
      <trkpt lat="63.44318167" lon="10.47012417">
        <ele>0.457</ele>
        <time>1970-01-01T01:00:00Z</time>
      </trkpt>
      <trkpt lat="63.44321033" lon="10.47012033">
        <ele>0.457</ele>
        <time>1970-01-01T01:00:00Z</time>
      </trkpt>
      <trkpt lat="63.44323583" lon="10.470114">
        <ele>0.457</ele>
        <time>1970-01-01T01:00:00Z</time>
      </trkpt>
      <trkpt lat="63.443256" lon="10.47010983">
        <ele>0.457</ele>
        <time>1970-01-01T01:00:00Z</time>
      </trkpt>
      <trkpt lat="63.44327667" lon="10.4701025">
        <ele>0.457</ele>
        <time>1970-01-01T01:00:00Z</time>
      </trkpt>
      <trkpt lat="63.4432975" lon="10.4700905">
        <ele>0.457</ele>
        <time>1970-01-01T01:00:00Z</time>
      </trkpt>
      <trkpt lat="63.4433205" lon="10.47006767">
        <ele>0.305</ele>
        <time>1970-01-01T01:00:00Z</time>
      </trkpt>
      <trkpt lat="63.44334317" lon="10.47004217">
        <ele>0.305</ele>
        <time>1970-01-01T01:00:00Z</time>
      </trkpt>
      <trkpt lat="63.44336483" lon="10.47001333">
        <ele>0.305</ele>
        <time>1970-01-01T01:00:00Z</time>
      </trkpt>
      <trkpt lat="63.44338717" lon="10.46998367">
        <ele>0.305</ele>
        <time>1970-01-01T01:00:00Z</time>
      </trkpt>
      <trkpt lat="63.44341167" lon="10.46995183">
        <ele>0.305</ele>
        <time>1970-01-01T01:00:00Z</time>
      </trkpt>
      <trkpt lat="63.4434425" lon="10.46992217">
        <ele>0.305</ele>
        <time>1970-01-01T01:00:00Z</time>
      </trkpt>
      <trkpt lat="63.443471" lon="10.46990017">
        <ele>0.152</ele>
        <time>1970-01-01T01:00:00Z</time>
      </trkpt>
      <trkpt lat="63.44349867" lon="10.46988183">
        <ele>0.152</ele>
        <time>1970-01-01T01:00:00Z</time>
      </trkpt>
      <trkpt lat="63.44351983" lon="10.46986783">
        <ele>0.152</ele>
        <time>1970-01-01T01:00:00Z</time>
      </trkpt>
      <trkpt lat="63.44354267" lon="10.46985517">
        <ele>0.152</ele>
        <time>1970-01-01T01:00:00Z</time>
      </trkpt>
      <trkpt lat="63.44356317" lon="10.46984367">
        <ele>0</ele>
        <time>1970-01-01T01:00:00Z</time>
      </trkpt>
      <trkpt lat="63.443582" lon="10.4698295">
        <ele>0</ele>
        <time>1970-01-01T01:00:00Z</time>
      </trkpt>
      <trkpt lat="63.44359967" lon="10.46980767">
        <ele>0</ele>
        <time>1970-01-01T01:00:00Z</time>
      </trkpt>
      <trkpt lat="63.44361967" lon="10.46978633">
        <ele>0</ele>
        <time>1970-01-01T01:00:00Z</time>
      </trkpt>
      <trkpt lat="63.44364067" lon="10.46976533">
        <ele>0</ele>
        <time>1970-01-01T01:00:00Z</time>
      </trkpt>
      <trkpt lat="63.4436615" lon="10.46974533">
        <ele>0</ele>
        <time>1970-01-01T01:00:00Z</time>
      </trkpt>
      <trkpt lat="63.44368183" lon="10.4697235">
        <ele>0</ele>
        <time>1970-01-01T01:00:00Z</time>
      </trkpt>
      <trkpt lat="63.44370433" lon="10.46969533">
        <ele>0</ele>
        <time>1970-01-01T01:00:00Z</time>
      </trkpt>
      <trkpt lat="63.44372617" lon="10.4696615">
        <ele>0</ele>
        <time>1970-01-01T01:00:00Z</time>
      </trkpt>
      <trkpt lat="63.443747" lon="10.46961967">
        <ele>0</ele>
        <time>1970-01-01T01:00:00Z</time>
      </trkpt>
      <trkpt lat="63.44376317" lon="10.46957683">
        <ele>0</ele>
        <time>1970-01-01T01:00:00Z</time>
      </trkpt>
      <trkpt lat="63.443776" lon="10.46953633">
        <ele>0</ele>
        <time>1970-01-01T01:00:00Z</time>
      </trkpt>
      <trkpt lat="63.44378717" lon="10.46949433">
        <ele>0</ele>
        <time>1970-01-01T01:00:00Z</time>
      </trkpt>
      <trkpt lat="63.4438005" lon="10.46945533">
        <ele>0</ele>
        <time>1970-01-01T01:00:00Z</time>
      </trkpt>
      <trkpt lat="63.44381483" lon="10.469417">
        <ele>0</ele>
        <time>1970-01-01T01:00:00Z</time>
      </trkpt>
      <trkpt lat="63.44382667" lon="10.46938267">
        <ele>0</ele>
        <time>1970-01-01T01:00:00Z</time>
      </trkpt>
      <trkpt lat="63.44383583" lon="10.46934933">
        <ele>0.152</ele>
        <time>1970-01-01T01:00:00Z</time>
      </trkpt>
      <trkpt lat="63.44384717" lon="10.4693185">
        <ele>0.152</ele>
        <time>1970-01-01T01:00:00Z</time>
      </trkpt>
      <trkpt lat="63.44385917" lon="10.46929017">
        <ele>0.305</ele>
        <time>1970-01-01T01:00:00Z</time>
      </trkpt>
      <trkpt lat="63.44387317" lon="10.46925333">
        <ele>0.305</ele>
        <time>1970-01-01T01:00:00Z</time>
      </trkpt>
      <trkpt lat="63.44388617" lon="10.46921067">
        <ele>0.61</ele>
        <time>1970-01-01T01:00:00Z</time>
      </trkpt>
      <trkpt lat="63.443902" lon="10.46916767">
        <ele>0.61</ele>
        <time>1970-01-01T01:00:00Z</time>
      </trkpt>
      <trkpt lat="63.4439175" lon="10.46912983">
        <ele>0.914</ele>
        <time>1970-01-01T01:00:00Z</time>
      </trkpt>
      <trkpt lat="63.44393167" lon="10.46909267">
        <ele>0.914</ele>
        <time>1970-01-01T01:00:00Z</time>
      </trkpt>
      <trkpt lat="63.44394733" lon="10.46905383">
        <ele>1.219</ele>
        <time>1970-01-01T01:00:00Z</time>
      </trkpt>
      <trkpt lat="63.44396233" lon="10.46901567">
        <ele>1.219</ele>
        <time>1970-01-01T01:00:00Z</time>
      </trkpt>
      <trkpt lat="63.4439775" lon="10.46898017">
        <ele>1.524</ele>
        <time>1970-01-01T01:00:00Z</time>
      </trkpt>
      <trkpt lat="63.44399083" lon="10.4689415">
        <ele>1.524</ele>
        <time>1970-01-01T01:00:00Z</time>
      </trkpt>
      <trkpt lat="63.4439995" lon="10.46890617">
        <ele>1.981</ele>
        <time>1970-01-01T01:00:00Z</time>
      </trkpt>
      <trkpt lat="63.444006" lon="10.46886833">
        <ele>1.981</ele>
        <time>1970-01-01T01:00:00Z</time>
      </trkpt>
      <trkpt lat="63.44401083" lon="10.46883217">
        <ele>2.286</ele>
        <time>1970-01-01T01:00:00Z</time>
      </trkpt>
      <trkpt lat="63.444019" lon="10.46879583">
        <ele>2.286</ele>
        <time>1970-01-01T01:00:00Z</time>
      </trkpt>
      <trkpt lat="63.4440315" lon="10.46876367">
        <ele>2.591</ele>
        <time>1970-01-01T01:00:00Z</time>
      </trkpt>
      <trkpt lat="63.444045" lon="10.468731">
        <ele>2.591</ele>
        <time>1970-01-01T01:00:00Z</time>
      </trkpt>
      <trkpt lat="63.44405833" lon="10.46869367">
        <ele>2.896</ele>
        <time>1970-01-01T01:00:00Z</time>
      </trkpt>
      <trkpt lat="63.44407183" lon="10.468646">
        <ele>2.896</ele>
        <time>1970-01-01T01:00:00Z</time>
      </trkpt>
      <trkpt lat="63.444086" lon="10.46859983">
        <ele>3.2</ele>
        <time>1970-01-01T01:00:00Z</time>
      </trkpt>
      <trkpt lat="63.44410333" lon="10.46855333">
        <ele>3.2</ele>
        <time>1970-01-01T01:00:00Z</time>
      </trkpt>
      <trkpt lat="63.4441175" lon="10.46850917">
        <ele>3.353</ele>
        <time>1970-01-01T01:00:00Z</time>
      </trkpt>
      <trkpt lat="63.44412967" lon="10.46846283">
        <ele>3.353</ele>
        <time>1970-01-01T01:00:00Z</time>
      </trkpt>
      <trkpt lat="63.44414333" lon="10.468414">
        <ele>3.505</ele>
        <time>1970-01-01T01:00:00Z</time>
      </trkpt>
      <trkpt lat="63.44415583" lon="10.46836383">
        <ele>3.505</ele>
        <time>1970-01-01T01:00:00Z</time>
      </trkpt>
      <trkpt lat="63.44416483" lon="10.4682975">
        <ele>3.658</ele>
        <time>1970-01-01T01:00:00Z</time>
      </trkpt>
      <trkpt lat="63.44417" lon="10.46822117">
        <ele>3.658</ele>
        <time>1970-01-01T01:00:00Z</time>
      </trkpt>
      <trkpt lat="63.44417967" lon="10.468143">
        <ele>3.658</ele>
        <time>1970-01-01T01:00:00Z</time>
      </trkpt>
      <trkpt lat="63.44419367" lon="10.46807817">
        <ele>3.658</ele>
        <time>1970-01-01T01:00:00Z</time>
      </trkpt>
      <trkpt lat="63.44420733" lon="10.46801767">
        <ele>3.505</ele>
        <time>1970-01-01T01:00:00Z</time>
      </trkpt>
      <trkpt lat="63.444221" lon="10.4679545">
        <ele>3.505</ele>
        <time>1970-01-01T01:00:00Z</time>
      </trkpt>
      <trkpt lat="63.44423467" lon="10.46788467">
        <ele>3.353</ele>
        <time>1970-01-01T01:00:00Z</time>
      </trkpt>
      <trkpt lat="63.44425067" lon="10.4678175">
        <ele>3.353</ele>
        <time>1970-01-01T01:00:00Z</time>
      </trkpt>
      <trkpt lat="63.4442645" lon="10.467756">
        <ele>3.2</ele>
        <time>1970-01-01T01:00:00Z</time>
      </trkpt>
      <trkpt lat="63.44428033" lon="10.46770317">
        <ele>3.2</ele>
        <time>1970-01-01T01:00:00Z</time>
      </trkpt>
      <trkpt lat="63.444296" lon="10.4676525">
        <ele>3.048</ele>
        <time>1970-01-01T01:00:00Z</time>
      </trkpt>
      <trkpt lat="63.4443115" lon="10.46760467">
        <ele>3.048</ele>
        <time>1970-01-01T01:00:00Z</time>
      </trkpt>
      <trkpt lat="63.44432333" lon="10.4675645">
        <ele>2.743</ele>
        <time>1970-01-01T01:00:00Z</time>
      </trkpt>
      <trkpt lat="63.4443375" lon="10.4675265">
        <ele>2.743</ele>
        <time>1970-01-01T01:00:00Z</time>
      </trkpt>
      <trkpt lat="63.44435633" lon="10.467495">
        <ele>2.591</ele>
        <time>1970-01-01T01:00:00Z</time>
      </trkpt>
      <trkpt lat="63.44437617" lon="10.46746083">
        <ele>2.591</ele>
        <time>1970-01-01T01:00:00Z</time>
      </trkpt>
      <trkpt lat="63.444395" lon="10.4674315">
        <ele>2.286</ele>
        <time>1970-01-01T01:00:00Z</time>
      </trkpt>
      <trkpt lat="63.44441583" lon="10.46740583">
        <ele>2.286</ele>
        <time>1970-01-01T01:00:00Z</time>
      </trkpt>
      <trkpt lat="63.44444983" lon="10.46738533">
        <ele>2.134</ele>
        <time>1970-01-01T01:00:00Z</time>
      </trkpt>
      <trkpt lat="63.4444875" lon="10.46736867">
        <ele>2.134</ele>
        <time>1970-01-01T01:00:00Z</time>
      </trkpt>
      <trkpt lat="63.44452433" lon="10.4673525">
        <ele>1.981</ele>
        <time>1970-01-01T01:00:00Z</time>
      </trkpt>
      <trkpt lat="63.44454817" lon="10.46733417">
        <ele>1.981</ele>
        <time>1970-01-01T01:00:00Z</time>
      </trkpt>
      <trkpt lat="63.444569" lon="10.46731933">
        <ele>1.981</ele>
        <time>1970-01-01T01:00:00Z</time>
      </trkpt>
      <trkpt lat="63.4445845" lon="10.46730433">
        <ele>1.981</ele>
        <time>1970-01-01T01:00:00Z</time>
      </trkpt>
      <trkpt lat="63.44460033" lon="10.467291">
        <ele>1.981</ele>
        <time>1970-01-01T01:00:00Z</time>
      </trkpt>
      <trkpt lat="63.44461433" lon="10.46727433">
        <ele>1.981</ele>
        <time>1970-01-01T01:00:00Z</time>
      </trkpt>
      <trkpt lat="63.44463133" lon="10.46725833">
        <ele>1.981</ele>
        <time>1970-01-01T01:00:00Z</time>
      </trkpt>
      <trkpt lat="63.44464933" lon="10.46724467">
        <ele>1.981</ele>
        <time>1970-01-01T01:00:00Z</time>
      </trkpt>
      <trkpt lat="63.44466783" lon="10.46723217">
        <ele>2.134</ele>
        <time>1970-01-01T01:00:00Z</time>
      </trkpt>
      <trkpt lat="63.44468383" lon="10.46722">
        <ele>2.134</ele>
        <time>1970-01-01T01:00:00Z</time>
      </trkpt>
      <trkpt lat="63.44469917" lon="10.46720617">
        <ele>2.134</ele>
        <time>1970-01-01T01:00:00Z</time>
      </trkpt>
      <trkpt lat="63.444714" lon="10.46719267">
        <ele>2.134</ele>
        <time>1970-01-01T01:00:00Z</time>
      </trkpt>
      <trkpt lat="63.4447245" lon="10.46718317">
        <ele>2.286</ele>
        <time>1970-01-01T01:00:00Z</time>
      </trkpt>
      <trkpt lat="63.44472167" lon="10.46717217">
        <ele>2.286</ele>
        <time>1970-01-01T01:00:00Z</time>
      </trkpt>
      <trkpt lat="63.444712" lon="10.46716683">
        <ele>2.438</ele>
        <time>1970-01-01T01:00:00Z</time>
      </trkpt>
      <trkpt lat="63.44469617" lon="10.46716533">
        <ele>2.438</ele>
        <time>1970-01-01T01:00:00Z</time>
      </trkpt>
      <trkpt lat="63.444686" lon="10.46717417">
        <ele>2.591</ele>
        <time>1970-01-01T01:00:00Z</time>
      </trkpt>
      <trkpt lat="63.44467517" lon="10.46718567">
        <ele>2.591</ele>
        <time>1970-01-01T01:00:00Z</time>
      </trkpt>
      <trkpt lat="63.44466417" lon="10.46720017">
        <ele>2.743</ele>
        <time>1970-01-01T01:00:00Z</time>
      </trkpt>
      <trkpt lat="63.4446505" lon="10.4672185">
        <ele>2.743</ele>
        <time>1970-01-01T01:00:00Z</time>
      </trkpt>
      <trkpt lat="63.44463333" lon="10.46724483">
        <ele>2.743</ele>
        <time>1970-01-01T01:00:00Z</time>
      </trkpt>
      <trkpt lat="63.44461583" lon="10.467273">
        <ele>2.743</ele>
        <time>1970-01-01T01:00:00Z</time>
      </trkpt>
      <trkpt lat="63.44459833" lon="10.46730883">
        <ele>2.896</ele>
        <time>1970-01-01T01:00:00Z</time>
      </trkpt>
      <trkpt lat="63.44458" lon="10.46734567">
        <ele>2.896</ele>
        <time>1970-01-01T01:00:00Z</time>
      </trkpt>
      <trkpt lat="63.44456117" lon="10.46738167">
        <ele>2.896</ele>
        <time>1970-01-01T01:00:00Z</time>
      </trkpt>
      <trkpt lat="63.4445425" lon="10.4674145">
        <ele>2.896</ele>
        <time>1970-01-01T01:00:00Z</time>
      </trkpt>
      <trkpt lat="63.4445255" lon="10.46744683">
        <ele>3.048</ele>
        <time>1970-01-01T01:00:00Z</time>
      </trkpt>
      <trkpt lat="63.44450917" lon="10.46748417">
        <ele>3.048</ele>
        <time>1970-01-01T01:00:00Z</time>
      </trkpt>
      <trkpt lat="63.44449433" lon="10.46752633">
        <ele>3.048</ele>
        <time>1970-01-01T01:00:00Z</time>
      </trkpt>
      <trkpt lat="63.44448133" lon="10.467574">
        <ele>3.048</ele>
        <time>1970-01-01T01:00:00Z</time>
      </trkpt>
      <trkpt lat="63.44446933" lon="10.4676275">
        <ele>3.048</ele>
        <time>1970-01-01T01:00:00Z</time>
      </trkpt>
      <trkpt lat="63.44445717" lon="10.4676815">
        <ele>3.048</ele>
        <time>1970-01-01T01:00:00Z</time>
      </trkpt>
      <trkpt lat="63.44444383" lon="10.46773583">
        <ele>3.048</ele>
        <time>1970-01-01T01:00:00Z</time>
      </trkpt>
      <trkpt lat="63.44443083" lon="10.46778583">
        <ele>3.048</ele>
        <time>1970-01-01T01:00:00Z</time>
      </trkpt>
      <trkpt lat="63.44441833" lon="10.46783067">
        <ele>3.048</ele>
        <time>1970-01-01T01:00:00Z</time>
      </trkpt>
      <trkpt lat="63.44440417" lon="10.46786733">
        <ele>3.048</ele>
        <time>1970-01-01T01:00:00Z</time>
      </trkpt>
      <trkpt lat="63.44439067" lon="10.4679025">
        <ele>3.048</ele>
        <time>1970-01-01T01:00:00Z</time>
      </trkpt>
      <trkpt lat="63.44437817" lon="10.467938">
        <ele>3.048</ele>
        <time>1970-01-01T01:00:00Z</time>
      </trkpt>
      <trkpt lat="63.444368" lon="10.46797567">
        <ele>3.048</ele>
        <time>1970-01-01T01:00:00Z</time>
      </trkpt>
      <trkpt lat="63.44435867" lon="10.46801383">
        <ele>3.048</ele>
        <time>1970-01-01T01:00:00Z</time>
      </trkpt>
      <trkpt lat="63.44434733" lon="10.46805583">
        <ele>3.048</ele>
        <time>1970-01-01T01:00:00Z</time>
      </trkpt>
      <trkpt lat="63.4443345" lon="10.46809267">
        <ele>3.048</ele>
        <time>1970-01-01T01:00:00Z</time>
      </trkpt>
      <trkpt lat="63.44431967" lon="10.46812817">
        <ele>3.048</ele>
        <time>1970-01-01T01:00:00Z</time>
      </trkpt>
      <trkpt lat="63.44430333" lon="10.46815817">
        <ele>3.048</ele>
        <time>1970-01-01T01:00:00Z</time>
      </trkpt>
      <trkpt lat="63.44428733" lon="10.46819317">
        <ele>3.048</ele>
        <time>1970-01-01T01:00:00Z</time>
      </trkpt>
      <trkpt lat="63.44427217" lon="10.4682245">
        <ele>3.048</ele>
        <time>1970-01-01T01:00:00Z</time>
      </trkpt>
      <trkpt lat="63.4442575" lon="10.46825467">
        <ele>2.896</ele>
        <time>1970-01-01T01:00:00Z</time>
      </trkpt>
      <trkpt lat="63.444243" lon="10.4682855">
        <ele>2.896</ele>
        <time>1970-01-01T01:00:00Z</time>
      </trkpt>
      <trkpt lat="63.44422383" lon="10.46831833">
        <ele>2.896</ele>
        <time>1970-01-01T01:00:00Z</time>
      </trkpt>
      <trkpt lat="63.44420583" lon="10.4683535">
        <ele>2.896</ele>
        <time>1970-01-01T01:00:00Z</time>
      </trkpt>
      <trkpt lat="63.44418917" lon="10.46838633">
        <ele>2.743</ele>
        <time>1970-01-01T01:00:00Z</time>
      </trkpt>
      <trkpt lat="63.4441755" lon="10.4684205">
        <ele>2.743</ele>
        <time>1970-01-01T01:00:00Z</time>
      </trkpt>
      <trkpt lat="63.4441595" lon="10.46845383">
        <ele>2.591</ele>
        <time>1970-01-01T01:00:00Z</time>
      </trkpt>
      <trkpt lat="63.4441415" lon="10.46849033">
        <ele>2.591</ele>
        <time>1970-01-01T01:00:00Z</time>
      </trkpt>
      <trkpt lat="63.44412667" lon="10.46853067">
        <ele>2.438</ele>
        <time>1970-01-01T01:00:00Z</time>
      </trkpt>
      <trkpt lat="63.444113" lon="10.46857283">
        <ele>2.438</ele>
        <time>1970-01-01T01:00:00Z</time>
      </trkpt>
      <trkpt lat="63.44410267" lon="10.468615">
        <ele>2.438</ele>
        <time>1970-01-01T01:00:00Z</time>
      </trkpt>
      <trkpt lat="63.4440895" lon="10.46865">
        <ele>2.438</ele>
        <time>1970-01-01T01:00:00Z</time>
      </trkpt>
      <trkpt lat="63.44407483" lon="10.46868633">
        <ele>2.286</ele>
        <time>1970-01-01T01:00:00Z</time>
      </trkpt>
      <trkpt lat="63.444059" lon="10.468722">
        <ele>2.286</ele>
        <time>1970-01-01T01:00:00Z</time>
      </trkpt>
      <trkpt lat="63.44403917" lon="10.46876467">
        <ele>2.134</ele>
        <time>1970-01-01T01:00:00Z</time>
      </trkpt>
      <trkpt lat="63.44401817" lon="10.46880883">
        <ele>2.134</ele>
        <time>1970-01-01T01:00:00Z</time>
      </trkpt>
      <trkpt lat="63.44399733" lon="10.46885933">
        <ele>2.134</ele>
        <time>1970-01-01T01:00:00Z</time>
      </trkpt>
      <trkpt lat="63.44398067" lon="10.46891683">
        <ele>2.134</ele>
        <time>1970-01-01T01:00:00Z</time>
      </trkpt>
      <trkpt lat="63.44396433" lon="10.46898183">
        <ele>2.134</ele>
        <time>1970-01-01T01:00:00Z</time>
      </trkpt>
      <trkpt lat="63.44394583" lon="10.4690455">
        <ele>2.134</ele>
        <time>1970-01-01T01:00:00Z</time>
      </trkpt>
      <trkpt lat="63.44392833" lon="10.4691085">
        <ele>1.981</ele>
        <time>1970-01-01T01:00:00Z</time>
      </trkpt>
      <trkpt lat="63.44391467" lon="10.4691675">
        <ele>1.981</ele>
        <time>1970-01-01T01:00:00Z</time>
      </trkpt>
      <trkpt lat="63.44390133" lon="10.46922833">
        <ele>1.981</ele>
        <time>1970-01-01T01:00:00Z</time>
      </trkpt>
      <trkpt lat="63.44388783" lon="10.46928183">
        <ele>1.981</ele>
        <time>1970-01-01T01:00:00Z</time>
      </trkpt>
      <trkpt lat="63.443874" lon="10.46933367">
        <ele>1.981</ele>
        <time>1970-01-01T01:00:00Z</time>
      </trkpt>
      <trkpt lat="63.44385833" lon="10.46938317">
        <ele>1.981</ele>
        <time>1970-01-01T01:00:00Z</time>
      </trkpt>
      <trkpt lat="63.443842" lon="10.46943233">
        <ele>1.829</ele>
        <time>1970-01-01T01:00:00Z</time>
      </trkpt>
      <trkpt lat="63.44382017" lon="10.469479">
        <ele>1.829</ele>
        <time>1970-01-01T01:00:00Z</time>
      </trkpt>
      <trkpt lat="63.443799" lon="10.469525">
        <ele>1.829</ele>
        <time>1970-01-01T01:00:00Z</time>
      </trkpt>
      <trkpt lat="63.443776" lon="10.4695715">
        <ele>1.829</ele>
        <time>1970-01-01T01:00:00Z</time>
      </trkpt>
      <trkpt lat="63.443759" lon="10.4696165">
        <ele>1.829</ele>
        <time>1970-01-01T01:00:00Z</time>
      </trkpt>
      <trkpt lat="63.44374267" lon="10.469658">
        <ele>1.829</ele>
        <time>1970-01-01T01:00:00Z</time>
      </trkpt>
      <trkpt lat="63.44372833" lon="10.46970617">
        <ele>1.676</ele>
        <time>1970-01-01T01:00:00Z</time>
      </trkpt>
      <trkpt lat="63.4437105" lon="10.469752">
        <ele>1.676</ele>
        <time>1970-01-01T01:00:00Z</time>
      </trkpt>
      <trkpt lat="63.4436895" lon="10.46979117">
        <ele>1.676</ele>
        <time>1970-01-01T01:00:00Z</time>
      </trkpt>
      <trkpt lat="63.443665" lon="10.46981033">
        <ele>1.676</ele>
        <time>1970-01-01T01:00:00Z</time>
      </trkpt>
      <trkpt lat="63.4436375" lon="10.46982333">
        <ele>1.676</ele>
        <time>1970-01-01T01:00:00Z</time>
      </trkpt>
      <trkpt lat="63.4436115" lon="10.46983633">
        <ele>1.676</ele>
        <time>1970-01-01T01:00:00Z</time>
      </trkpt>
      <trkpt lat="63.44358417" lon="10.4698545">
        <ele>1.676</ele>
        <time>1970-01-01T01:00:00Z</time>
      </trkpt>
      <trkpt lat="63.44355817" lon="10.46988083">
        <ele>1.676</ele>
        <time>1970-01-01T01:00:00Z</time>
      </trkpt>
      <trkpt lat="63.4435325" lon="10.46990983">
        <ele>1.524</ele>
        <time>1970-01-01T01:00:00Z</time>
      </trkpt>
      <trkpt lat="63.443509" lon="10.46993733">
        <ele>1.524</ele>
        <time>1970-01-01T01:00:00Z</time>
      </trkpt>
      <trkpt lat="63.4434875" lon="10.46996267">
        <ele>1.524</ele>
        <time>1970-01-01T01:00:00Z</time>
      </trkpt>
      <trkpt lat="63.44346533" lon="10.46998583">
        <ele>1.524</ele>
        <time>1970-01-01T01:00:00Z</time>
      </trkpt>
      <trkpt lat="63.443443" lon="10.47001083">
        <ele>1.524</ele>
        <time>1970-01-01T01:00:00Z</time>
      </trkpt>
      <trkpt lat="63.44342183" lon="10.47003133">
        <ele>1.524</ele>
        <time>1970-01-01T01:00:00Z</time>
      </trkpt>
      <trkpt lat="63.4434015" lon="10.47005217">
        <ele>1.524</ele>
        <time>1970-01-01T01:00:00Z</time>
      </trkpt>
      <trkpt lat="63.44338" lon="10.47007017">
        <ele>1.524</ele>
        <time>1970-01-01T01:00:00Z</time>
      </trkpt>
      <trkpt lat="63.44335733" lon="10.4700875">
        <ele>1.524</ele>
        <time>1970-01-01T01:00:00Z</time>
      </trkpt>
      <trkpt lat="63.44333267" lon="10.470095">
        <ele>1.524</ele>
        <time>1970-01-01T01:00:00Z</time>
      </trkpt>
      <trkpt lat="63.44331033" lon="10.470103">
        <ele>1.676</ele>
        <time>1970-01-01T01:00:00Z</time>
      </trkpt>
      <trkpt lat="63.4432895" lon="10.47010383">
        <ele>1.676</ele>
        <time>1970-01-01T01:00:00Z</time>
      </trkpt>
      <trkpt lat="63.44327" lon="10.470109">
        <ele>1.676</ele>
        <time>1970-01-01T01:00:00Z</time>
      </trkpt>
      <trkpt lat="63.44325083" lon="10.47011233">
        <ele>1.676</ele>
        <time>1970-01-01T01:00:00Z</time>
      </trkpt>
      <trkpt lat="63.44323367" lon="10.47011633">
        <ele>1.676</ele>
        <time>1970-01-01T01:00:00Z</time>
      </trkpt>
      <trkpt lat="63.44321933" lon="10.470118">
        <ele>1.676</ele>
        <time>1970-01-01T01:00:00Z</time>
      </trkpt>
      <trkpt lat="63.4432095" lon="10.47011883">
        <ele>1.676</ele>
        <time>1970-01-01T01:00:00Z</time>
      </trkpt>
      <trkpt lat="63.44319933" lon="10.47012483">
        <ele>1.676</ele>
        <time>1970-01-01T01:00:00Z</time>
      </trkpt>
      <trkpt lat="63.44318817" lon="10.4701345">
        <ele>1.829</ele>
        <time>1970-01-01T01:00:00Z</time>
      </trkpt>
      <trkpt lat="63.44317467" lon="10.47015083">
        <ele>1.829</ele>
        <time>1970-01-01T01:00:00Z</time>
      </trkpt>
      <trkpt lat="63.44315933" lon="10.47016383">
        <ele>1.829</ele>
        <time>1970-01-01T01:00:00Z</time>
      </trkpt>
      <trkpt lat="63.443145" lon="10.47017667">
        <ele>1.829</ele>
        <time>1970-01-01T01:00:00Z</time>
      </trkpt>
      <trkpt lat="63.4431275" lon="10.47017967">
        <ele>1.981</ele>
        <time>1970-01-01T01:00:00Z</time>
      </trkpt>
      <trkpt lat="63.443111" lon="10.47018">
        <ele>1.981</ele>
        <time>1970-01-01T01:00:00Z</time>
      </trkpt>
      <trkpt lat="63.44309117" lon="10.47018083">
        <ele>1.981</ele>
        <time>1970-01-01T01:00:00Z</time>
      </trkpt>
      <trkpt lat="63.44306783" lon="10.4701805">
        <ele>1.981</ele>
        <time>1970-01-01T01:00:00Z</time>
      </trkpt>
      <trkpt lat="63.44304367" lon="10.47018067">
        <ele>2.134</ele>
        <time>1970-01-01T01:00:00Z</time>
      </trkpt>
      <trkpt lat="63.44302067" lon="10.470177">
        <ele>2.134</ele>
        <time>1970-01-01T01:00:00Z</time>
      </trkpt>
      <trkpt lat="63.44300067" lon="10.47017">
        <ele>2.438</ele>
        <time>1970-01-01T01:00:00Z</time>
      </trkpt>
      <trkpt lat="63.44298117" lon="10.47016517">
        <ele>2.438</ele>
        <time>1970-01-01T01:00:00Z</time>
      </trkpt>
      <trkpt lat="63.44296117" lon="10.47015833">
        <ele>2.591</ele>
        <time>1970-01-01T01:00:00Z</time>
      </trkpt>
      <trkpt lat="63.4429405" lon="10.4701625">
        <ele>2.591</ele>
        <time>1970-01-01T01:00:00Z</time>
      </trkpt>
      <trkpt lat="63.442918" lon="10.47016783">
        <ele>2.743</ele>
        <time>1970-01-01T01:00:00Z</time>
      </trkpt>
      <trkpt lat="63.442892" lon="10.47018367">
        <ele>2.743</ele>
        <time>1970-01-01T01:00:00Z</time>
      </trkpt>
      <trkpt lat="63.44286667" lon="10.4701945">
        <ele>2.896</ele>
        <time>1970-01-01T01:00:00Z</time>
      </trkpt>
      <trkpt lat="63.4428405" lon="10.470206">
        <ele>2.896</ele>
        <time>1970-01-01T01:00:00Z</time>
      </trkpt>
      <trkpt lat="63.442815" lon="10.47021633">
        <ele>3.048</ele>
        <time>1970-01-01T01:00:00Z</time>
      </trkpt>
      <trkpt lat="63.44278833" lon="10.47023433">
        <ele>3.048</ele>
        <time>1970-01-01T01:00:00Z</time>
      </trkpt>
      <trkpt lat="63.4427605" lon="10.47025717">
        <ele>3.2</ele>
        <time>1970-01-01T01:00:00Z</time>
      </trkpt>
      <trkpt lat="63.44273217" lon="10.47028167">
        <ele>3.2</ele>
        <time>1970-01-01T01:00:00Z</time>
      </trkpt>
      <trkpt lat="63.44270267" lon="10.4703055">
        <ele>3.353</ele>
        <time>1970-01-01T01:00:00Z</time>
      </trkpt>
      <trkpt lat="63.44267367" lon="10.4703265">
        <ele>3.353</ele>
        <time>1970-01-01T01:00:00Z</time>
      </trkpt>
      <trkpt lat="63.44264733" lon="10.47034567">
        <ele>3.505</ele>
        <time>1970-01-01T01:00:00Z</time>
      </trkpt>
      <trkpt lat="63.44262067" lon="10.47036217">
        <ele>3.505</ele>
        <time>1970-01-01T01:00:00Z</time>
      </trkpt>
      <trkpt lat="63.44259367" lon="10.470379">
        <ele>3.658</ele>
        <time>1970-01-01T01:00:00Z</time>
      </trkpt>
      <trkpt lat="63.44256683" lon="10.47039483">
        <ele>3.658</ele>
        <time>1970-01-01T01:00:00Z</time>
      </trkpt>
      <trkpt lat="63.44254" lon="10.47040433">
        <ele>3.81</ele>
        <time>1970-01-01T01:00:00Z</time>
      </trkpt>
      <trkpt lat="63.44251217" lon="10.470404">
        <ele>3.81</ele>
        <time>1970-01-01T01:00:00Z</time>
      </trkpt>
      <trkpt lat="63.44248383" lon="10.47039633">
        <ele>3.962</ele>
        <time>1970-01-01T01:00:00Z</time>
      </trkpt>
      <trkpt lat="63.44245917" lon="10.47038433">
        <ele>3.962</ele>
        <time>1970-01-01T01:00:00Z</time>
      </trkpt>
      <trkpt lat="63.44243683" lon="10.47037433">
        <ele>4.115</ele>
        <time>1970-01-01T01:00:00Z</time>
      </trkpt>
      <trkpt lat="63.442415" lon="10.47036333">
        <ele>4.115</ele>
        <time>1970-01-01T01:00:00Z</time>
      </trkpt>
      <trkpt lat="63.44239133" lon="10.47035883">
        <ele>4.267</ele>
        <time>1970-01-01T01:00:00Z</time>
      </trkpt>
      <trkpt lat="63.44236683" lon="10.47035633">
        <ele>4.267</ele>
        <time>1970-01-01T01:00:00Z</time>
      </trkpt>
      <trkpt lat="63.44233467" lon="10.47035317">
        <ele>4.267</ele>
        <time>1970-01-01T01:00:00Z</time>
      </trkpt>
      <trkpt lat="63.44230133" lon="10.47035">
        <ele>4.267</ele>
        <time>1970-01-01T01:00:00Z</time>
      </trkpt>
      <trkpt lat="63.44226433" lon="10.47034517">
        <ele>4.42</ele>
        <time>1970-01-01T01:00:00Z</time>
      </trkpt>
      <trkpt lat="63.44223017" lon="10.47034183">
        <ele>4.42</ele>
        <time>1970-01-01T01:00:00Z</time>
      </trkpt>
      <trkpt lat="63.44219633" lon="10.470339">
        <ele>4.267</ele>
        <time>1970-01-01T01:00:00Z</time>
      </trkpt>
      <trkpt lat="63.44216367" lon="10.47034567">
        <ele>4.267</ele>
        <time>1970-01-01T01:00:00Z</time>
      </trkpt>
      <trkpt lat="63.44213083" lon="10.47036033">
        <ele>4.267</ele>
        <time>1970-01-01T01:00:00Z</time>
      </trkpt>
      <trkpt lat="63.44209967" lon="10.47037167">
        <ele>4.267</ele>
        <time>1970-01-01T01:00:00Z</time>
      </trkpt>
      <trkpt lat="63.44206667" lon="10.470386">
        <ele>4.115</ele>
        <time>1970-01-01T01:00:00Z</time>
      </trkpt>
      <trkpt lat="63.44203583" lon="10.4704005">
        <ele>4.115</ele>
        <time>1970-01-01T01:00:00Z</time>
      </trkpt>
      <trkpt lat="63.44200183" lon="10.470421">
        <ele>3.962</ele>
        <time>1970-01-01T01:00:00Z</time>
      </trkpt>
      <trkpt lat="63.44197067" lon="10.470432">
        <ele>3.962</ele>
        <time>1970-01-01T01:00:00Z</time>
      </trkpt>
      <trkpt lat="63.44193933" lon="10.47044217">
        <ele>3.962</ele>
        <time>1970-01-01T01:00:00Z</time>
      </trkpt>
      <trkpt lat="63.44190867" lon="10.4704535">
        <ele>3.962</ele>
        <time>1970-01-01T01:00:00Z</time>
      </trkpt>
      <trkpt lat="63.44187867" lon="10.47046667">
        <ele>3.81</ele>
        <time>1970-01-01T01:00:00Z</time>
      </trkpt>
      <trkpt lat="63.44184967" lon="10.4704755">
        <ele>3.81</ele>
        <time>1970-01-01T01:00:00Z</time>
      </trkpt>
      <trkpt lat="63.44182267" lon="10.47047983">
        <ele>3.658</ele>
        <time>1970-01-01T01:00:00Z</time>
      </trkpt>
      <trkpt lat="63.44179717" lon="10.4704805">
        <ele>3.658</ele>
        <time>1970-01-01T01:00:00Z</time>
      </trkpt>
      <trkpt lat="63.4417715" lon="10.470482">
        <ele>3.658</ele>
        <time>1970-01-01T01:00:00Z</time>
      </trkpt>
      <trkpt lat="63.4417475" lon="10.4704855">
        <ele>3.658</ele>
        <time>1970-01-01T01:00:00Z</time>
      </trkpt>
      <trkpt lat="63.4417255" lon="10.47049117">
        <ele>3.505</ele>
        <time>1970-01-01T01:00:00Z</time>
      </trkpt>
      <trkpt lat="63.44170667" lon="10.4705">
        <ele>3.505</ele>
        <time>1970-01-01T01:00:00Z</time>
      </trkpt>
      <trkpt lat="63.4416895" lon="10.47051117">
        <ele>3.505</ele>
        <time>1970-01-01T01:00:00Z</time>
      </trkpt>
      <trkpt lat="63.44166967" lon="10.47052417">
        <ele>3.505</ele>
        <time>1970-01-01T01:00:00Z</time>
      </trkpt>
      <trkpt lat="63.44164867" lon="10.47053183">
        <ele>3.505</ele>
        <time>1970-01-01T01:00:00Z</time>
      </trkpt>
      <trkpt lat="63.44162617" lon="10.47054033">
        <ele>3.505</ele>
        <time>1970-01-01T01:00:00Z</time>
      </trkpt>
      <trkpt lat="63.441604" lon="10.47055167">
        <ele>3.353</ele>
        <time>1970-01-01T01:00:00Z</time>
      </trkpt>
      <trkpt lat="63.44158117" lon="10.47057117">
        <ele>3.353</ele>
        <time>1970-01-01T01:00:00Z</time>
      </trkpt>
      <trkpt lat="63.44155617" lon="10.47058917">
        <ele>3.353</ele>
        <time>1970-01-01T01:00:00Z</time>
      </trkpt>
      <trkpt lat="63.4415295" lon="10.47060483">
        <ele>3.353</ele>
        <time>1970-01-01T01:00:00Z</time>
      </trkpt>
      <trkpt lat="63.44150133" lon="10.4706155">
        <ele>3.353</ele>
        <time>1970-01-01T01:00:00Z</time>
      </trkpt>
      <trkpt lat="63.44147383" lon="10.4706275">
        <ele>3.353</ele>
        <time>1970-01-01T01:00:00Z</time>
      </trkpt>
      <trkpt lat="63.44144883" lon="10.4706395">
        <ele>3.353</ele>
        <time>1970-01-01T01:00:00Z</time>
      </trkpt>
      <trkpt lat="63.4414235" lon="10.47065483">
        <ele>3.353</ele>
        <time>1970-01-01T01:00:00Z</time>
      </trkpt>
      <trkpt lat="63.4413975" lon="10.47066883">
        <ele>3.2</ele>
        <time>1970-01-01T01:00:00Z</time>
      </trkpt>
      <trkpt lat="63.44137117" lon="10.47068533">
        <ele>3.2</ele>
        <time>1970-01-01T01:00:00Z</time>
      </trkpt>
      <trkpt lat="63.44134567" lon="10.47070333">
        <ele>3.2</ele>
        <time>1970-01-01T01:00:00Z</time>
      </trkpt>
      <trkpt lat="63.44132217" lon="10.47072367">
        <ele>3.2</ele>
        <time>1970-01-01T01:00:00Z</time>
      </trkpt>
      <trkpt lat="63.441298" lon="10.47074167">
        <ele>3.048</ele>
        <time>1970-01-01T01:00:00Z</time>
      </trkpt>
      <trkpt lat="63.4412745" lon="10.47076217">
        <ele>3.048</ele>
        <time>1970-01-01T01:00:00Z</time>
      </trkpt>
      <trkpt lat="63.4412515" lon="10.4707805">
        <ele>3.048</ele>
        <time>1970-01-01T01:00:00Z</time>
      </trkpt>
      <trkpt lat="63.441228" lon="10.47080083">
        <ele>3.048</ele>
        <time>1970-01-01T01:00:00Z</time>
      </trkpt>
      <trkpt lat="63.44120483" lon="10.47081917">
        <ele>2.896</ele>
        <time>1970-01-01T01:00:00Z</time>
      </trkpt>
      <trkpt lat="63.44118183" lon="10.47084367">
        <ele>2.896</ele>
        <time>1970-01-01T01:00:00Z</time>
      </trkpt>
      <trkpt lat="63.44115783" lon="10.4708715">
        <ele>2.896</ele>
        <time>1970-01-01T01:00:00Z</time>
      </trkpt>
      <trkpt lat="63.44113533" lon="10.470901">
        <ele>2.896</ele>
        <time>1970-01-01T01:00:00Z</time>
      </trkpt>
      <trkpt lat="63.44111083" lon="10.4709285">
        <ele>2.743</ele>
        <time>1970-01-01T01:00:00Z</time>
      </trkpt>
      <trkpt lat="63.441087" lon="10.47095433">
        <ele>2.743</ele>
        <time>1970-01-01T01:00:00Z</time>
      </trkpt>
      <trkpt lat="63.44106167" lon="10.47097833">
        <ele>2.743</ele>
        <time>1970-01-01T01:00:00Z</time>
      </trkpt>
      <trkpt lat="63.44103667" lon="10.47100167">
        <ele>2.743</ele>
        <time>1970-01-01T01:00:00Z</time>
      </trkpt>
      <trkpt lat="63.44101333" lon="10.47102633">
        <ele>2.591</ele>
        <time>1970-01-01T01:00:00Z</time>
      </trkpt>
      <trkpt lat="63.44099033" lon="10.47105">
        <ele>2.591</ele>
        <time>1970-01-01T01:00:00Z</time>
      </trkpt>
      <trkpt lat="63.4409675" lon="10.47107483">
        <ele>2.591</ele>
        <time>1970-01-01T01:00:00Z</time>
      </trkpt>
      <trkpt lat="63.44094517" lon="10.47109683">
        <ele>2.591</ele>
        <time>1970-01-01T01:00:00Z</time>
      </trkpt>
      <trkpt lat="63.44092267" lon="10.47112">
        <ele>2.438</ele>
        <time>1970-01-01T01:00:00Z</time>
      </trkpt>
      <trkpt lat="63.440899" lon="10.47114083">
        <ele>2.438</ele>
        <time>1970-01-01T01:00:00Z</time>
      </trkpt>
      <trkpt lat="63.4408745" lon="10.4711635">
        <ele>2.438</ele>
        <time>1970-01-01T01:00:00Z</time>
      </trkpt>
      <trkpt lat="63.44085033" lon="10.471189">
        <ele>2.438</ele>
        <time>1970-01-01T01:00:00Z</time>
      </trkpt>
      <trkpt lat="63.44082733" lon="10.47121467">
        <ele>2.438</ele>
        <time>1970-01-01T01:00:00Z</time>
      </trkpt>
      <trkpt lat="63.44080467" lon="10.47124033">
        <ele>2.438</ele>
        <time>1970-01-01T01:00:00Z</time>
      </trkpt>
      <trkpt lat="63.4407805" lon="10.4712615">
        <ele>2.286</ele>
        <time>1970-01-01T01:00:00Z</time>
      </trkpt>
      <trkpt lat="63.44075667" lon="10.471278">
        <ele>2.286</ele>
        <time>1970-01-01T01:00:00Z</time>
      </trkpt>
      <trkpt lat="63.4407325" lon="10.47129583">
        <ele>2.286</ele>
        <time>1970-01-01T01:00:00Z</time>
      </trkpt>
      <trkpt lat="63.44071217" lon="10.47131417">
        <ele>2.286</ele>
        <time>1970-01-01T01:00:00Z</time>
      </trkpt>
      <trkpt lat="63.44069333" lon="10.471335">
        <ele>2.134</ele>
        <time>1970-01-01T01:00:00Z</time>
      </trkpt>
      <trkpt lat="63.44067283" lon="10.47135567">
        <ele>2.134</ele>
        <time>1970-01-01T01:00:00Z</time>
      </trkpt>
      <trkpt lat="63.44065067" lon="10.47137967">
        <ele>2.134</ele>
        <time>1970-01-01T01:00:00Z</time>
      </trkpt>
      <trkpt lat="63.440628" lon="10.47140417">
        <ele>2.134</ele>
        <time>1970-01-01T01:00:00Z</time>
      </trkpt>
      <trkpt lat="63.4406065" lon="10.47142667">
        <ele>1.981</ele>
        <time>1970-01-01T01:00:00Z</time>
      </trkpt>
      <trkpt lat="63.44058417" lon="10.47144483">
        <ele>1.981</ele>
        <time>1970-01-01T01:00:00Z</time>
      </trkpt>
      <trkpt lat="63.44055767" lon="10.471461">
        <ele>1.981</ele>
        <time>1970-01-01T01:00:00Z</time>
      </trkpt>
      <trkpt lat="63.44053017" lon="10.47147583">
        <ele>1.981</ele>
        <time>1970-01-01T01:00:00Z</time>
      </trkpt>
      <trkpt lat="63.44050433" lon="10.47148983">
        <ele>1.981</ele>
        <time>1970-01-01T01:00:00Z</time>
      </trkpt>
      <trkpt lat="63.4404835" lon="10.47150567">
        <ele>1.981</ele>
        <time>1970-01-01T01:00:00Z</time>
      </trkpt>
      <trkpt lat="63.440466" lon="10.4715215">
        <ele>1.981</ele>
        <time>1970-01-01T01:00:00Z</time>
      </trkpt>
      <trkpt lat="63.440447" lon="10.47153917">
        <ele>1.981</ele>
        <time>1970-01-01T01:00:00Z</time>
      </trkpt>
      <trkpt lat="63.440427" lon="10.4715555">
        <ele>1.981</ele>
        <time>1970-01-01T01:00:00Z</time>
      </trkpt>
      <trkpt lat="63.440406" lon="10.47157567">
        <ele>1.981</ele>
        <time>1970-01-01T01:00:00Z</time>
      </trkpt>
      <trkpt lat="63.44038717" lon="10.4715995">
        <ele>1.981</ele>
        <time>1970-01-01T01:00:00Z</time>
      </trkpt>
      <trkpt lat="63.44036717" lon="10.47162417">
        <ele>1.981</ele>
        <time>1970-01-01T01:00:00Z</time>
      </trkpt>
      <trkpt lat="63.440346" lon="10.4716475">
        <ele>1.981</ele>
        <time>1970-01-01T01:00:00Z</time>
      </trkpt>
      <trkpt lat="63.44032133" lon="10.47167017">
        <ele>1.981</ele>
        <time>1970-01-01T01:00:00Z</time>
      </trkpt>
      <trkpt lat="63.44029567" lon="10.47169517">
        <ele>1.829</ele>
        <time>1970-01-01T01:00:00Z</time>
      </trkpt>
      <trkpt lat="63.44027" lon="10.47172133">
        <ele>1.829</ele>
        <time>1970-01-01T01:00:00Z</time>
      </trkpt>
      <trkpt lat="63.440245" lon="10.47174167">
        <ele>1.676</ele>
        <time>1970-01-01T01:00:00Z</time>
      </trkpt>
      <trkpt lat="63.4402215" lon="10.471762">
        <ele>1.676</ele>
        <time>1970-01-01T01:00:00Z</time>
      </trkpt>
      <trkpt lat="63.440198" lon="10.471779">
        <ele>1.676</ele>
        <time>1970-01-01T01:00:00Z</time>
      </trkpt>
      <trkpt lat="63.44017483" lon="10.47179883">
        <ele>1.676</ele>
        <time>1970-01-01T01:00:00Z</time>
      </trkpt>
      <trkpt lat="63.4401515" lon="10.47181683">
        <ele>1.524</ele>
        <time>1970-01-01T01:00:00Z</time>
      </trkpt>
      <trkpt lat="63.440126" lon="10.471834">
        <ele>1.524</ele>
        <time>1970-01-01T01:00:00Z</time>
      </trkpt>
      <trkpt lat="63.4401015" lon="10.4718495">
        <ele>1.372</ele>
        <time>1970-01-01T01:00:00Z</time>
      </trkpt>
      <trkpt lat="63.4400745" lon="10.4718655">
        <ele>1.372</ele>
        <time>1970-01-01T01:00:00Z</time>
      </trkpt>
      <trkpt lat="63.44005067" lon="10.47188233">
        <ele>1.372</ele>
        <time>1970-01-01T01:00:00Z</time>
      </trkpt>
      <trkpt lat="63.44002367" lon="10.47189833">
        <ele>1.372</ele>
        <time>1970-01-01T01:00:00Z</time>
      </trkpt>
      <trkpt lat="63.4399965" lon="10.47191283">
        <ele>1.219</ele>
        <time>1970-01-01T01:00:00Z</time>
      </trkpt>
      <trkpt lat="63.4399715" lon="10.4719275">
        <ele>1.219</ele>
        <time>1970-01-01T01:00:00Z</time>
      </trkpt>
      <trkpt lat="63.43994817" lon="10.47194517">
        <ele>1.067</ele>
        <time>1970-01-01T01:00:00Z</time>
      </trkpt>
      <trkpt lat="63.43992783" lon="10.4719645">
        <ele>1.067</ele>
        <time>1970-01-01T01:00:00Z</time>
      </trkpt>
      <trkpt lat="63.43990417" lon="10.4719845">
        <ele>1.067</ele>
        <time>1970-01-01T01:00:00Z</time>
      </trkpt>
      <trkpt lat="63.43988017" lon="10.47200267">
        <ele>1.067</ele>
        <time>1970-01-01T01:00:00Z</time>
      </trkpt>
      <trkpt lat="63.43985533" lon="10.47201783">
        <ele>1.067</ele>
        <time>1970-01-01T01:00:00Z</time>
      </trkpt>
      <trkpt lat="63.4398305" lon="10.47202967">
        <ele>1.067</ele>
        <time>1970-01-01T01:00:00Z</time>
      </trkpt>
      <trkpt lat="63.43980617" lon="10.472036">
        <ele>1.067</ele>
        <time>1970-01-01T01:00:00Z</time>
      </trkpt>
      <trkpt lat="63.43978033" lon="10.4720375">
        <ele>1.067</ele>
        <time>1970-01-01T01:00:00Z</time>
      </trkpt>
      <trkpt lat="63.43975267" lon="10.472036">
        <ele>0.914</ele>
        <time>1970-01-01T01:00:00Z</time>
      </trkpt>
      <trkpt lat="63.43972367" lon="10.47203633">
        <ele>0.914</ele>
        <time>1970-01-01T01:00:00Z</time>
      </trkpt>
      <trkpt lat="63.439696" lon="10.47204033">
        <ele>0.914</ele>
        <time>1970-01-01T01:00:00Z</time>
      </trkpt>
      <trkpt lat="63.4396675" lon="10.47204817">
        <ele>0.914</ele>
        <time>1970-01-01T01:00:00Z</time>
      </trkpt>
      <trkpt lat="63.43963983" lon="10.47205467">
        <ele>0.762</ele>
        <time>1970-01-01T01:00:00Z</time>
      </trkpt>
      <trkpt lat="63.4396115" lon="10.47206283">
        <ele>0.762</ele>
        <time>1970-01-01T01:00:00Z</time>
      </trkpt>
      <trkpt lat="63.43958433" lon="10.47206883">
        <ele>0.762</ele>
        <time>1970-01-01T01:00:00Z</time>
      </trkpt>
      <trkpt lat="63.43955583" lon="10.47207467">
        <ele>0.762</ele>
        <time>1970-01-01T01:00:00Z</time>
      </trkpt>
      <trkpt lat="63.43952817" lon="10.472079">
        <ele>0.61</ele>
        <time>1970-01-01T01:00:00Z</time>
      </trkpt>
      <trkpt lat="63.43950183" lon="10.47208167">
        <ele>0.61</ele>
        <time>1970-01-01T01:00:00Z</time>
      </trkpt>
      <trkpt lat="63.43947683" lon="10.47208167">
        <ele>0.61</ele>
        <time>1970-01-01T01:00:00Z</time>
      </trkpt>
      <trkpt lat="63.439451" lon="10.472083">
        <ele>0.61</ele>
        <time>1970-01-01T01:00:00Z</time>
      </trkpt>
      <trkpt lat="63.439427" lon="10.47208383">
        <ele>0.61</ele>
        <time>1970-01-01T01:00:00Z</time>
      </trkpt>
      <trkpt lat="63.43940283" lon="10.47209067">
        <ele>0.61</ele>
        <time>1970-01-01T01:00:00Z</time>
      </trkpt>
      <trkpt lat="63.4393815" lon="10.47209683">
        <ele>0.457</ele>
        <time>1970-01-01T01:00:00Z</time>
      </trkpt>
      <trkpt lat="63.43936033" lon="10.47210283">
        <ele>0.457</ele>
        <time>1970-01-01T01:00:00Z</time>
      </trkpt>
      <trkpt lat="63.43934183" lon="10.4721085">
        <ele>0.457</ele>
        <time>1970-01-01T01:00:00Z</time>
      </trkpt>
      <trkpt lat="63.439326" lon="10.47211567">
        <ele>0.457</ele>
        <time>1970-01-01T01:00:00Z</time>
      </trkpt>
      <trkpt lat="63.43931117" lon="10.472131">
        <ele>0.457</ele>
        <time>1970-01-01T01:00:00Z</time>
      </trkpt>
      <trkpt lat="63.43929267" lon="10.47215417">
        <ele>0.457</ele>
        <time>1970-01-01T01:00:00Z</time>
      </trkpt>
      <trkpt lat="63.43927333" lon="10.47218567">
        <ele>0.457</ele>
        <time>1970-01-01T01:00:00Z</time>
      </trkpt>
      <trkpt lat="63.43925" lon="10.47222083">
        <ele>0.457</ele>
        <time>1970-01-01T01:00:00Z</time>
      </trkpt>
      <trkpt lat="63.43923083" lon="10.472253">
        <ele>0.457</ele>
        <time>1970-01-01T01:00:00Z</time>
      </trkpt>
      <trkpt lat="63.4392065" lon="10.47227767">
        <ele>0.457</ele>
        <time>1970-01-01T01:00:00Z</time>
      </trkpt>
      <trkpt lat="63.43918333" lon="10.47229183">
        <ele>0.457</ele>
        <time>1970-01-01T01:00:00Z</time>
      </trkpt>
      <trkpt lat="63.43915967" lon="10.47230367">
        <ele>0.457</ele>
        <time>1970-01-01T01:00:00Z</time>
      </trkpt>
      <trkpt lat="63.43913833" lon="10.47231383">
        <ele>0.457</ele>
        <time>1970-01-01T01:00:00Z</time>
      </trkpt>
      <trkpt lat="63.43911717" lon="10.4723305">
        <ele>0.457</ele>
        <time>1970-01-01T01:00:00Z</time>
      </trkpt>
      <trkpt lat="63.4390915" lon="10.47234967">
        <ele>0.305</ele>
        <time>1970-01-01T01:00:00Z</time>
      </trkpt>
      <trkpt lat="63.439066" lon="10.47237033">
        <ele>0.305</ele>
        <time>1970-01-01T01:00:00Z</time>
      </trkpt>
      <trkpt lat="63.4390435" lon="10.47239467">
        <ele>0.305</ele>
        <time>1970-01-01T01:00:00Z</time>
      </trkpt>
      <trkpt lat="63.4390255" lon="10.47242217">
        <ele>0.305</ele>
        <time>1970-01-01T01:00:00Z</time>
      </trkpt>
      <trkpt lat="63.43900733" lon="10.47245683">
        <ele>0.305</ele>
        <time>1970-01-01T01:00:00Z</time>
      </trkpt>
      <trkpt lat="63.43898583" lon="10.47249117">
        <ele>0.305</ele>
        <time>1970-01-01T01:00:00Z</time>
      </trkpt>
      <trkpt lat="63.4389645" lon="10.472526">
        <ele>0.457</ele>
        <time>1970-01-01T01:00:00Z</time>
      </trkpt>
      <trkpt lat="63.43894617" lon="10.47255883">
        <ele>0.457</ele>
        <time>1970-01-01T01:00:00Z</time>
      </trkpt>
      <trkpt lat="63.438929" lon="10.47258617">
        <ele>0.457</ele>
        <time>1970-01-01T01:00:00Z</time>
      </trkpt>
      <trkpt lat="63.438914" lon="10.4726085">
        <ele>0.457</ele>
        <time>1970-01-01T01:00:00Z</time>
      </trkpt>
      <trkpt lat="63.43889433" lon="10.47262383">
        <ele>0.457</ele>
        <time>1970-01-01T01:00:00Z</time>
      </trkpt>
      <trkpt lat="63.43887183" lon="10.47264167">
        <ele>0.457</ele>
        <time>1970-01-01T01:00:00Z</time>
      </trkpt>
      <trkpt lat="63.43884533" lon="10.47265917">
        <ele>0.61</ele>
        <time>1970-01-01T01:00:00Z</time>
      </trkpt>
      <trkpt lat="63.438821" lon="10.47267717">
        <ele>0.61</ele>
        <time>1970-01-01T01:00:00Z</time>
      </trkpt>
      <trkpt lat="63.438801" lon="10.472696">
        <ele>0.61</ele>
        <time>1970-01-01T01:00:00Z</time>
      </trkpt>
      <trkpt lat="63.4387825" lon="10.47271817">
        <ele>0.61</ele>
        <time>1970-01-01T01:00:00Z</time>
      </trkpt>
      <trkpt lat="63.43876583" lon="10.472741">
        <ele>0.61</ele>
        <time>1970-01-01T01:00:00Z</time>
      </trkpt>
      <trkpt lat="63.43874867" lon="10.4727555">
        <ele>0.61</ele>
        <time>1970-01-01T01:00:00Z</time>
      </trkpt>
      <trkpt lat="63.43873" lon="10.47276183">
        <ele>0.762</ele>
        <time>1970-01-01T01:00:00Z</time>
      </trkpt>
      <trkpt lat="63.43870567" lon="10.472754">
        <ele>0.762</ele>
        <time>1970-01-01T01:00:00Z</time>
      </trkpt>
      <trkpt lat="63.43867967" lon="10.47274117">
        <ele>0.914</ele>
        <time>1970-01-01T01:00:00Z</time>
      </trkpt>
      <trkpt lat="63.43865417" lon="10.47272333">
        <ele>0.914</ele>
        <time>1970-01-01T01:00:00Z</time>
      </trkpt>
      <trkpt lat="63.438634" lon="10.47271133">
        <ele>0.914</ele>
        <time>1970-01-01T01:00:00Z</time>
      </trkpt>
      <trkpt lat="63.4386125" lon="10.472709">
        <ele>0.914</ele>
        <time>1970-01-01T01:00:00Z</time>
      </trkpt>
      <trkpt lat="63.4385925" lon="10.47271817">
        <ele>0.914</ele>
        <time>1970-01-01T01:00:00Z</time>
      </trkpt>
      <trkpt lat="63.43857267" lon="10.47273283">
        <ele>0.914</ele>
        <time>1970-01-01T01:00:00Z</time>
      </trkpt>
      <trkpt lat="63.4385535" lon="10.47275033">
        <ele>1.067</ele>
        <time>1970-01-01T01:00:00Z</time>
      </trkpt>
      <trkpt lat="63.43852967" lon="10.472768">
        <ele>1.067</ele>
        <time>1970-01-01T01:00:00Z</time>
      </trkpt>
      <trkpt lat="63.43850267" lon="10.47279033">
        <ele>1.067</ele>
        <time>1970-01-01T01:00:00Z</time>
      </trkpt>
      <trkpt lat="63.4384735" lon="10.47281483">
        <ele>1.067</ele>
        <time>1970-01-01T01:00:00Z</time>
      </trkpt>
      <trkpt lat="63.43845" lon="10.47284883">
        <ele>1.067</ele>
        <time>1970-01-01T01:00:00Z</time>
      </trkpt>
      <trkpt lat="63.43843117" lon="10.47289567">
        <ele>1.067</ele>
        <time>1970-01-01T01:00:00Z</time>
      </trkpt>
      <trkpt lat="63.43842283" lon="10.47296">
        <ele>1.067</ele>
        <time>1970-01-01T01:00:00Z</time>
      </trkpt>
      <trkpt lat="63.43841667" lon="10.47302567">
        <ele>1.067</ele>
        <time>1970-01-01T01:00:00Z</time>
      </trkpt>
      <trkpt lat="63.43841367" lon="10.47308583">
        <ele>1.067</ele>
        <time>1970-01-01T01:00:00Z</time>
      </trkpt>
      <trkpt lat="63.43840983" lon="10.4731355">
        <ele>1.067</ele>
        <time>1970-01-01T01:00:00Z</time>
      </trkpt>
      <trkpt lat="63.43840733" lon="10.47318667">
        <ele>0.914</ele>
        <time>1970-01-01T01:00:00Z</time>
      </trkpt>
      <trkpt lat="63.43840433" lon="10.473237">
        <ele>0.914</ele>
        <time>1970-01-01T01:00:00Z</time>
      </trkpt>
      <trkpt lat="63.4383985" lon="10.47328967">
        <ele>0.914</ele>
        <time>1970-01-01T01:00:00Z</time>
      </trkpt>
      <trkpt lat="63.438393" lon="10.47334217">
        <ele>0.914</ele>
        <time>1970-01-01T01:00:00Z</time>
      </trkpt>
      <trkpt lat="63.4383845" lon="10.47340067">
        <ele>0.914</ele>
        <time>1970-01-01T01:00:00Z</time>
      </trkpt>
      <trkpt lat="63.43837667" lon="10.4734615">
        <ele>0.914</ele>
        <time>1970-01-01T01:00:00Z</time>
      </trkpt>
      <trkpt lat="63.438369" lon="10.47352583">
        <ele>0.914</ele>
        <time>1970-01-01T01:00:00Z</time>
      </trkpt>
      <trkpt lat="63.43836183" lon="10.47359717">
        <ele>0.914</ele>
        <time>1970-01-01T01:00:00Z</time>
      </trkpt>
      <trkpt lat="63.43835817" lon="10.47366667">
        <ele>0.914</ele>
        <time>1970-01-01T01:00:00Z</time>
      </trkpt>
      <trkpt lat="63.43835633" lon="10.47373933">
        <ele>0.914</ele>
        <time>1970-01-01T01:00:00Z</time>
      </trkpt>
      <trkpt lat="63.43835733" lon="10.4738075">
        <ele>0.914</ele>
        <time>1970-01-01T01:00:00Z</time>
      </trkpt>
      <trkpt lat="63.43835617" lon="10.4738685">
        <ele>0.914</ele>
        <time>1970-01-01T01:00:00Z</time>
      </trkpt>
      <trkpt lat="63.43835283" lon="10.4739245">
        <ele>0.914</ele>
        <time>1970-01-01T01:00:00Z</time>
      </trkpt>
      <trkpt lat="63.43834917" lon="10.47397717">
        <ele>0.914</ele>
        <time>1970-01-01T01:00:00Z</time>
      </trkpt>
      <trkpt lat="63.438347" lon="10.47403433">
        <ele>1.067</ele>
        <time>1970-01-01T01:00:00Z</time>
      </trkpt>
      <trkpt lat="63.43834633" lon="10.47409133">
        <ele>1.067</ele>
        <time>1970-01-01T01:00:00Z</time>
      </trkpt>
      <trkpt lat="63.4383465" lon="10.47414867">
        <ele>1.067</ele>
        <time>1970-01-01T01:00:00Z</time>
      </trkpt>
      <trkpt lat="63.438347" lon="10.4742095">
        <ele>1.067</ele>
        <time>1970-01-01T01:00:00Z</time>
      </trkpt>
      <trkpt lat="63.43834483" lon="10.47426933">
        <ele>1.219</ele>
        <time>1970-01-01T01:00:00Z</time>
      </trkpt>
      <trkpt lat="63.43834383" lon="10.47433067">
        <ele>1.219</ele>
        <time>1970-01-01T01:00:00Z</time>
      </trkpt>
      <trkpt lat="63.43834483" lon="10.474393">
        <ele>1.372</ele>
        <time>1970-01-01T01:00:00Z</time>
      </trkpt>
      <trkpt lat="63.43834883" lon="10.47445367">
        <ele>1.372</ele>
        <time>1970-01-01T01:00:00Z</time>
      </trkpt>
      <trkpt lat="63.438352" lon="10.4745115">
        <ele>1.524</ele>
        <time>1970-01-01T01:00:00Z</time>
      </trkpt>
      <trkpt lat="63.438354" lon="10.47457033">
        <ele>1.524</ele>
        <time>1970-01-01T01:00:00Z</time>
      </trkpt>
      <trkpt lat="63.43835483" lon="10.47462933">
        <ele>1.524</ele>
        <time>1970-01-01T01:00:00Z</time>
      </trkpt>
      <trkpt lat="63.4383565" lon="10.47469067">
        <ele>1.524</ele>
        <time>1970-01-01T01:00:00Z</time>
      </trkpt>
      <trkpt lat="63.43835933" lon="10.47474783">
        <ele>1.676</ele>
        <time>1970-01-01T01:00:00Z</time>
      </trkpt>
      <trkpt lat="63.43836333" lon="10.47480417">
        <ele>1.676</ele>
        <time>1970-01-01T01:00:00Z</time>
      </trkpt>
      <trkpt lat="63.43836883" lon="10.47486">
        <ele>1.829</ele>
        <time>1970-01-01T01:00:00Z</time>
      </trkpt>
      <trkpt lat="63.4383735" lon="10.47491083">
        <ele>1.829</ele>
        <time>1970-01-01T01:00:00Z</time>
      </trkpt>
      <trkpt lat="63.43837917" lon="10.47496467">
        <ele>1.981</ele>
        <time>1970-01-01T01:00:00Z</time>
      </trkpt>
      <trkpt lat="63.43838533" lon="10.47501283">
        <ele>1.981</ele>
        <time>1970-01-01T01:00:00Z</time>
      </trkpt>
      <trkpt lat="63.43839167" lon="10.47506483">
        <ele>2.134</ele>
        <time>1970-01-01T01:00:00Z</time>
      </trkpt>
      <trkpt lat="63.43839833" lon="10.47511383">
        <ele>2.134</ele>
        <time>1970-01-01T01:00:00Z</time>
      </trkpt>
      <trkpt lat="63.43840533" lon="10.47516283">
        <ele>2.134</ele>
        <time>1970-01-01T01:00:00Z</time>
      </trkpt>
      <trkpt lat="63.43841467" lon="10.47521067">
        <ele>2.134</ele>
        <time>1970-01-01T01:00:00Z</time>
      </trkpt>
      <trkpt lat="63.43842533" lon="10.47525633">
        <ele>2.286</ele>
        <time>1970-01-01T01:00:00Z</time>
      </trkpt>
      <trkpt lat="63.43843667" lon="10.4753005">
        <ele>2.286</ele>
        <time>1970-01-01T01:00:00Z</time>
      </trkpt>
      <trkpt lat="63.43844817" lon="10.47534333">
        <ele>2.438</ele>
        <time>1970-01-01T01:00:00Z</time>
      </trkpt>
      <trkpt lat="63.43845883" lon="10.47538283">
        <ele>2.438</ele>
        <time>1970-01-01T01:00:00Z</time>
      </trkpt>
      <trkpt lat="63.43847017" lon="10.47542717">
        <ele>2.591</ele>
        <time>1970-01-01T01:00:00Z</time>
      </trkpt>
      <trkpt lat="63.438481" lon="10.4754675">
        <ele>2.591</ele>
        <time>1970-01-01T01:00:00Z</time>
      </trkpt>
      <trkpt lat="63.43849333" lon="10.47551">
        <ele>2.743</ele>
        <time>1970-01-01T01:00:00Z</time>
      </trkpt>
      <trkpt lat="63.43850583" lon="10.47554983">
        <ele>2.743</ele>
        <time>1970-01-01T01:00:00Z</time>
      </trkpt>
      <trkpt lat="63.4385185" lon="10.47558783">
        <ele>2.896</ele>
        <time>1970-01-01T01:00:00Z</time>
      </trkpt>
      <trkpt lat="63.4385315" lon="10.47562633">
        <ele>2.896</ele>
        <time>1970-01-01T01:00:00Z</time>
      </trkpt>
      <trkpt lat="63.43854533" lon="10.47566233">
        <ele>3.048</ele>
        <time>1970-01-01T01:00:00Z</time>
      </trkpt>
      <trkpt lat="63.43855983" lon="10.47569833">
        <ele>3.048</ele>
        <time>1970-01-01T01:00:00Z</time>
      </trkpt>
      <trkpt lat="63.438575" lon="10.47573183">
        <ele>3.048</ele>
        <time>1970-01-01T01:00:00Z</time>
      </trkpt>
      <trkpt lat="63.438589" lon="10.47576267">
        <ele>3.048</ele>
        <time>1970-01-01T01:00:00Z</time>
      </trkpt>
      <trkpt lat="63.43860483" lon="10.47579317">
        <ele>3.2</ele>
        <time>1970-01-01T01:00:00Z</time>
      </trkpt>
      <trkpt lat="63.43862017" lon="10.475822">
        <ele>3.2</ele>
        <time>1970-01-01T01:00:00Z</time>
      </trkpt>
      <trkpt lat="63.4386365" lon="10.47584667">
        <ele>3.353</ele>
        <time>1970-01-01T01:00:00Z</time>
      </trkpt>
      <trkpt lat="63.43865467" lon="10.47586833">
        <ele>3.353</ele>
        <time>1970-01-01T01:00:00Z</time>
      </trkpt>
      <trkpt lat="63.43867267" lon="10.47588433">
        <ele>3.658</ele>
        <time>1970-01-01T01:00:00Z</time>
      </trkpt>
      <trkpt lat="63.4386935" lon="10.47589633">
        <ele>3.658</ele>
        <time>1970-01-01T01:00:00Z</time>
      </trkpt>
      <trkpt lat="63.43871483" lon="10.47590533">
        <ele>3.81</ele>
        <time>1970-01-01T01:00:00Z</time>
      </trkpt>
      <trkpt lat="63.438739" lon="10.47591217">
        <ele>3.81</ele>
        <time>1970-01-01T01:00:00Z</time>
      </trkpt>
      <trkpt lat="63.43876483" lon="10.47592133">
        <ele>3.962</ele>
        <time>1970-01-01T01:00:00Z</time>
      </trkpt>
      <trkpt lat="63.43879117" lon="10.47593267">
        <ele>3.962</ele>
        <time>1970-01-01T01:00:00Z</time>
      </trkpt>
      <trkpt lat="63.4388155" lon="10.47594683">
        <ele>4.115</ele>
        <time>1970-01-01T01:00:00Z</time>
      </trkpt>
      <trkpt lat="63.43884167" lon="10.4759605">
        <ele>4.115</ele>
        <time>1970-01-01T01:00:00Z</time>
      </trkpt>
      <trkpt lat="63.438869" lon="10.47596967">
        <ele>4.42</ele>
        <time>1970-01-01T01:00:00Z</time>
      </trkpt>
      <trkpt lat="63.438899" lon="10.4759785">
        <ele>4.42</ele>
        <time>1970-01-01T01:00:00Z</time>
      </trkpt>
      <trkpt lat="63.43892617" lon="10.47598733">
        <ele>4.572</ele>
        <time>1970-01-01T01:00:00Z</time>
      </trkpt>
      <trkpt lat="63.43895233" lon="10.47600017">
        <ele>4.572</ele>
        <time>1970-01-01T01:00:00Z</time>
      </trkpt>
      <trkpt lat="63.438978" lon="10.4760125">
        <ele>4.724</ele>
        <time>1970-01-01T01:00:00Z</time>
      </trkpt>
      <trkpt lat="63.439008" lon="10.47602583">
        <ele>4.724</ele>
        <time>1970-01-01T01:00:00Z</time>
      </trkpt>
      <trkpt lat="63.43903767" lon="10.47603883">
        <ele>5.029</ele>
        <time>1970-01-01T01:00:00Z</time>
      </trkpt>
      <trkpt lat="63.43906733" lon="10.47605233">
        <ele>5.029</ele>
        <time>1970-01-01T01:00:00Z</time>
      </trkpt>
      <trkpt lat="63.43909267" lon="10.47606567">
        <ele>5.182</ele>
        <time>1970-01-01T01:00:00Z</time>
      </trkpt>
      <trkpt lat="63.43911533" lon="10.47607917">
        <ele>5.182</ele>
        <time>1970-01-01T01:00:00Z</time>
      </trkpt>
      <trkpt lat="63.4391415" lon="10.47608983">
        <ele>5.486</ele>
        <time>1970-01-01T01:00:00Z</time>
      </trkpt>
      <trkpt lat="63.4391675" lon="10.47610233">
        <ele>5.486</ele>
        <time>1970-01-01T01:00:00Z</time>
      </trkpt>
      <trkpt lat="63.4392" lon="10.4761115">
        <ele>5.639</ele>
        <time>1970-01-01T01:00:00Z</time>
      </trkpt>
      <trkpt lat="63.43923133" lon="10.47612033">
        <ele>5.639</ele>
        <time>1970-01-01T01:00:00Z</time>
      </trkpt>
      <trkpt lat="63.439264" lon="10.476128">
        <ele>5.791</ele>
        <time>1970-01-01T01:00:00Z</time>
      </trkpt>
      <trkpt lat="63.43929533" lon="10.4761395">
        <ele>5.791</ele>
        <time>1970-01-01T01:00:00Z</time>
      </trkpt>
      <trkpt lat="63.43932383" lon="10.47615467">
        <ele>6.096</ele>
        <time>1970-01-01T01:00:00Z</time>
      </trkpt>
      <trkpt lat="63.4393525" lon="10.47617033">
        <ele>6.096</ele>
        <time>1970-01-01T01:00:00Z</time>
      </trkpt>
      <trkpt lat="63.43937933" lon="10.47618067">
        <ele>6.248</ele>
        <time>1970-01-01T01:00:00Z</time>
      </trkpt>
      <trkpt lat="63.43940783" lon="10.476186">
        <ele>6.248</ele>
        <time>1970-01-01T01:00:00Z</time>
      </trkpt>
      <trkpt lat="63.43943583" lon="10.4761895">
        <ele>6.553</ele>
        <time>1970-01-01T01:00:00Z</time>
      </trkpt>
      <trkpt lat="63.439463" lon="10.4761895">
        <ele>6.553</ele>
        <time>1970-01-01T01:00:00Z</time>
      </trkpt>
      <trkpt lat="63.43949117" lon="10.47618033">
        <ele>6.706</ele>
        <time>1970-01-01T01:00:00Z</time>
      </trkpt>
      <trkpt lat="63.43951767" lon="10.4761625">
        <ele>6.706</ele>
        <time>1970-01-01T01:00:00Z</time>
      </trkpt>
      <trkpt lat="63.439543" lon="10.4761445">
        <ele>6.858</ele>
        <time>1970-01-01T01:00:00Z</time>
      </trkpt>
      <trkpt lat="63.43956833" lon="10.47613333">
        <ele>6.858</ele>
        <time>1970-01-01T01:00:00Z</time>
      </trkpt>
      <trkpt lat="63.43959367" lon="10.476129">
        <ele>7.01</ele>
        <time>1970-01-01T01:00:00Z</time>
      </trkpt>
      <trkpt lat="63.43962" lon="10.4761285">
        <ele>7.01</ele>
        <time>1970-01-01T01:00:00Z</time>
      </trkpt>
      <trkpt lat="63.43964217" lon="10.47613467">
        <ele>7.163</ele>
        <time>1970-01-01T01:00:00Z</time>
      </trkpt>
      <trkpt lat="63.43966267" lon="10.47614633">
        <ele>7.163</ele>
        <time>1970-01-01T01:00:00Z</time>
      </trkpt>
      <trkpt lat="63.43968217" lon="10.476165">
        <ele>7.315</ele>
        <time>1970-01-01T01:00:00Z</time>
      </trkpt>
      <trkpt lat="63.43969767" lon="10.47620017">
        <ele>7.315</ele>
        <time>1970-01-01T01:00:00Z</time>
      </trkpt>
      <trkpt lat="63.4397125" lon="10.47624583">
        <ele>7.315</ele>
        <time>1970-01-01T01:00:00Z</time>
      </trkpt>
      <trkpt lat="63.43972967" lon="10.47630967">
        <ele>7.315</ele>
        <time>1970-01-01T01:00:00Z</time>
      </trkpt>
      <trkpt lat="63.43974867" lon="10.47636733">
        <ele>7.163</ele>
        <time>1970-01-01T01:00:00Z</time>
      </trkpt>
      <trkpt lat="63.43976917" lon="10.4764265">
        <ele>7.163</ele>
        <time>1970-01-01T01:00:00Z</time>
      </trkpt>
      <trkpt lat="63.4397875" lon="10.4764775">
        <ele>7.163</ele>
        <time>1970-01-01T01:00:00Z</time>
      </trkpt>
      <trkpt lat="63.43980667" lon="10.4765285">
        <ele>7.163</ele>
        <time>1970-01-01T01:00:00Z</time>
      </trkpt>
      <trkpt lat="63.43982483" lon="10.47658017">
        <ele>7.01</ele>
        <time>1970-01-01T01:00:00Z</time>
      </trkpt>
      <trkpt lat="63.4398405" lon="10.4766315">
        <ele>7.01</ele>
        <time>1970-01-01T01:00:00Z</time>
      </trkpt>
      <trkpt lat="63.439853" lon="10.47668217">
        <ele>7.01</ele>
        <time>1970-01-01T01:00:00Z</time>
      </trkpt>
      <trkpt lat="63.43986333" lon="10.47673133">
        <ele>7.01</ele>
        <time>1970-01-01T01:00:00Z</time>
      </trkpt>
      <trkpt lat="63.43987283" lon="10.47677933">
        <ele>6.858</ele>
        <time>1970-01-01T01:00:00Z</time>
      </trkpt>
      <trkpt lat="63.439885" lon="10.476831">
        <ele>6.858</ele>
        <time>1970-01-01T01:00:00Z</time>
      </trkpt>
      <trkpt lat="63.43989917" lon="10.4768845">
        <ele>6.858</ele>
        <time>1970-01-01T01:00:00Z</time>
      </trkpt>
      <trkpt lat="63.439914" lon="10.47693717">
        <ele>6.858</ele>
        <time>1970-01-01T01:00:00Z</time>
      </trkpt>
      <trkpt lat="63.43992767" lon="10.47699117">
        <ele>6.858</ele>
        <time>1970-01-01T01:00:00Z</time>
      </trkpt>
      <trkpt lat="63.4399405" lon="10.47704267">
        <ele>6.858</ele>
        <time>1970-01-01T01:00:00Z</time>
      </trkpt>
      <trkpt lat="63.4399535" lon="10.47709617">
        <ele>6.858</ele>
        <time>1970-01-01T01:00:00Z</time>
      </trkpt>
      <trkpt lat="63.43996867" lon="10.477149">
        <ele>6.858</ele>
        <time>1970-01-01T01:00:00Z</time>
      </trkpt>
      <trkpt lat="63.4399825" lon="10.47719783">
        <ele>6.858</ele>
        <time>1970-01-01T01:00:00Z</time>
      </trkpt>
      <trkpt lat="63.43999817" lon="10.47724683">
        <ele>6.858</ele>
        <time>1970-01-01T01:00:00Z</time>
      </trkpt>
      <trkpt lat="63.44001267" lon="10.47729467">
        <ele>6.858</ele>
        <time>1970-01-01T01:00:00Z</time>
      </trkpt>
      <trkpt lat="63.44002683" lon="10.477344">
        <ele>6.858</ele>
        <time>1970-01-01T01:00:00Z</time>
      </trkpt>
      <trkpt lat="63.44003833" lon="10.47739317">
        <ele>6.858</ele>
        <time>1970-01-01T01:00:00Z</time>
      </trkpt>
      <trkpt lat="63.44004933" lon="10.47744083">
        <ele>6.858</ele>
        <time>1970-01-01T01:00:00Z</time>
      </trkpt>
      <trkpt lat="63.44006017" lon="10.47749133">
        <ele>6.858</ele>
        <time>1970-01-01T01:00:00Z</time>
      </trkpt>
      <trkpt lat="63.44007033" lon="10.4775425">
        <ele>6.858</ele>
        <time>1970-01-01T01:00:00Z</time>
      </trkpt>
      <trkpt lat="63.44008117" lon="10.47759267">
        <ele>7.01</ele>
        <time>1970-01-01T01:00:00Z</time>
      </trkpt>
      <trkpt lat="63.44009383" lon="10.477645">
        <ele>7.01</ele>
        <time>1970-01-01T01:00:00Z</time>
      </trkpt>
      <trkpt lat="63.440108" lon="10.4776965">
        <ele>7.01</ele>
        <time>1970-01-01T01:00:00Z</time>
      </trkpt>
      <trkpt lat="63.44012167" lon="10.477751">
        <ele>7.01</ele>
        <time>1970-01-01T01:00:00Z</time>
      </trkpt>
      <trkpt lat="63.440135" lon="10.477808">
        <ele>7.01</ele>
        <time>1970-01-01T01:00:00Z</time>
      </trkpt>
      <trkpt lat="63.44014767" lon="10.47786133">
        <ele>7.01</ele>
        <time>1970-01-01T01:00:00Z</time>
      </trkpt>
      <trkpt lat="63.44016083" lon="10.47791617">
        <ele>7.163</ele>
        <time>1970-01-01T01:00:00Z</time>
      </trkpt>
      <trkpt lat="63.44017417" lon="10.477965">
        <ele>7.163</ele>
        <time>1970-01-01T01:00:00Z</time>
      </trkpt>
      <trkpt lat="63.440188" lon="10.47801683">
        <ele>7.163</ele>
        <time>1970-01-01T01:00:00Z</time>
      </trkpt>
      <trkpt lat="63.4402015" lon="10.47806383">
        <ele>7.163</ele>
        <time>1970-01-01T01:00:00Z</time>
      </trkpt>
      <trkpt lat="63.44021517" lon="10.47811033">
        <ele>7.315</ele>
        <time>1970-01-01T01:00:00Z</time>
      </trkpt>
      <trkpt lat="63.440229" lon="10.47815867">
        <ele>7.315</ele>
        <time>1970-01-01T01:00:00Z</time>
      </trkpt>
      <trkpt lat="63.4402435" lon="10.47820833">
        <ele>7.468</ele>
        <time>1970-01-01T01:00:00Z</time>
      </trkpt>
      <trkpt lat="63.44025683" lon="10.47825917">
        <ele>7.468</ele>
        <time>1970-01-01T01:00:00Z</time>
      </trkpt>
      <trkpt lat="63.4402705" lon="10.47831383">
        <ele>7.62</ele>
        <time>1970-01-01T01:00:00Z</time>
      </trkpt>
      <trkpt lat="63.440283" lon="10.47836967">
        <ele>7.62</ele>
        <time>1970-01-01T01:00:00Z</time>
      </trkpt>
      <trkpt lat="63.44029533" lon="10.4784245">
        <ele>7.62</ele>
        <time>1970-01-01T01:00:00Z</time>
      </trkpt>
      <trkpt lat="63.44030883" lon="10.4784775">
        <ele>7.62</ele>
        <time>1970-01-01T01:00:00Z</time>
      </trkpt>
      <trkpt lat="63.4403225" lon="10.47852983">
        <ele>7.772</ele>
        <time>1970-01-01T01:00:00Z</time>
      </trkpt>
      <trkpt lat="63.44033517" lon="10.478582">
        <ele>7.772</ele>
        <time>1970-01-01T01:00:00Z</time>
      </trkpt>
      <trkpt lat="63.44034467" lon="10.47862883">
        <ele>7.925</ele>
        <time>1970-01-01T01:00:00Z</time>
      </trkpt>
      <trkpt lat="63.44035383" lon="10.47867367">
        <ele>7.925</ele>
        <time>1970-01-01T01:00:00Z</time>
      </trkpt>
      <trkpt lat="63.44036467" lon="10.4787265">
        <ele>8.077</ele>
        <time>1970-01-01T01:00:00Z</time>
      </trkpt>
      <trkpt lat="63.44037617" lon="10.478781">
        <ele>8.077</ele>
        <time>1970-01-01T01:00:00Z</time>
      </trkpt>
      <trkpt lat="63.44038717" lon="10.47884">
        <ele>8.23</ele>
        <time>1970-01-01T01:00:00Z</time>
      </trkpt>
      <trkpt lat="63.44039733" lon="10.47889917">
        <ele>8.23</ele>
        <time>1970-01-01T01:00:00Z</time>
      </trkpt>
      <trkpt lat="63.44040683" lon="10.4789605">
        <ele>8.23</ele>
        <time>1970-01-01T01:00:00Z</time>
      </trkpt>
      <trkpt lat="63.44041583" lon="10.479023">
        <ele>8.23</ele>
        <time>1970-01-01T01:00:00Z</time>
      </trkpt>
      <trkpt lat="63.44042183" lon="10.4790775">
        <ele>8.382</ele>
        <time>1970-01-01T01:00:00Z</time>
      </trkpt>
      <trkpt lat="63.4404265" lon="10.4791305">
        <ele>8.382</ele>
        <time>1970-01-01T01:00:00Z</time>
      </trkpt>
      <trkpt lat="63.44043033" lon="10.4791795">
        <ele>8.382</ele>
        <time>1970-01-01T01:00:00Z</time>
      </trkpt>
      <trkpt lat="63.44043783" lon="10.479229">
        <ele>8.382</ele>
        <time>1970-01-01T01:00:00Z</time>
      </trkpt>
      <trkpt lat="63.44044733" lon="10.47927867">
        <ele>8.535</ele>
        <time>1970-01-01T01:00:00Z</time>
      </trkpt>
      <trkpt lat="63.44045817" lon="10.47933117">
        <ele>8.535</ele>
        <time>1970-01-01T01:00:00Z</time>
      </trkpt>
      <trkpt lat="63.44046767" lon="10.47938733">
        <ele>8.535</ele>
        <time>1970-01-01T01:00:00Z</time>
      </trkpt>
      <trkpt lat="63.44047717" lon="10.47944167">
        <ele>8.535</ele>
        <time>1970-01-01T01:00:00Z</time>
      </trkpt>
      <trkpt lat="63.440485" lon="10.47949567">
        <ele>8.535</ele>
        <time>1970-01-01T01:00:00Z</time>
      </trkpt>
      <trkpt lat="63.44049283" lon="10.47954583">
        <ele>8.535</ele>
        <time>1970-01-01T01:00:00Z</time>
      </trkpt>
      <trkpt lat="63.44049867" lon="10.4796">
        <ele>8.535</ele>
        <time>1970-01-01T01:00:00Z</time>
      </trkpt>
      <trkpt lat="63.44050583" lon="10.47965167">
        <ele>8.535</ele>
        <time>1970-01-01T01:00:00Z</time>
      </trkpt>
      <trkpt lat="63.440514" lon="10.47970833">
        <ele>8.535</ele>
        <time>1970-01-01T01:00:00Z</time>
      </trkpt>
      <trkpt lat="63.440523" lon="10.47976267">
        <ele>8.535</ele>
        <time>1970-01-01T01:00:00Z</time>
      </trkpt>
      <trkpt lat="63.440529" lon="10.4798185">
        <ele>8.687</ele>
        <time>1970-01-01T01:00:00Z</time>
      </trkpt>
      <trkpt lat="63.44053233" lon="10.47987217">
        <ele>8.687</ele>
        <time>1970-01-01T01:00:00Z</time>
      </trkpt>
      <trkpt lat="63.44053767" lon="10.4799255">
        <ele>8.687</ele>
        <time>1970-01-01T01:00:00Z</time>
      </trkpt>
      <trkpt lat="63.4405485" lon="10.47997867">
        <ele>8.687</ele>
        <time>1970-01-01T01:00:00Z</time>
      </trkpt>
      <trkpt lat="63.4405615" lon="10.48002967">
        <ele>8.687</ele>
        <time>1970-01-01T01:00:00Z</time>
      </trkpt>
      <trkpt lat="63.44057717" lon="10.4800785">
        <ele>8.687</ele>
        <time>1970-01-01T01:00:00Z</time>
      </trkpt>
      <trkpt lat="63.44059133" lon="10.48012917">
        <ele>8.839</ele>
        <time>1970-01-01T01:00:00Z</time>
      </trkpt>
      <trkpt lat="63.44060617" lon="10.48018083">
        <ele>8.839</ele>
        <time>1970-01-01T01:00:00Z</time>
      </trkpt>
      <trkpt lat="63.4406175" lon="10.48023417">
        <ele>8.839</ele>
        <time>1970-01-01T01:00:00Z</time>
      </trkpt>
      <trkpt lat="63.44062867" lon="10.4802875">
        <ele>8.839</ele>
        <time>1970-01-01T01:00:00Z</time>
      </trkpt>
      <trkpt lat="63.44063967" lon="10.48033867">
        <ele>8.992</ele>
        <time>1970-01-01T01:00:00Z</time>
      </trkpt>
      <trkpt lat="63.44065217" lon="10.48038967">
        <ele>8.992</ele>
        <time>1970-01-01T01:00:00Z</time>
      </trkpt>
      <trkpt lat="63.4406655" lon="10.48044033">
        <ele>8.992</ele>
        <time>1970-01-01T01:00:00Z</time>
      </trkpt>
      <trkpt lat="63.44067817" lon="10.48049117">
        <ele>8.992</ele>
        <time>1970-01-01T01:00:00Z</time>
      </trkpt>
      <trkpt lat="63.44069" lon="10.48054667">
        <ele>9.144</ele>
        <time>1970-01-01T01:00:00Z</time>
      </trkpt>
      <trkpt lat="63.4407" lon="10.48060133">
        <ele>9.144</ele>
        <time>1970-01-01T01:00:00Z</time>
      </trkpt>
      <trkpt lat="63.44071067" lon="10.4806575">
        <ele>9.144</ele>
        <time>1970-01-01T01:00:00Z</time>
      </trkpt>
      <trkpt lat="63.44071983" lon="10.48071267">
        <ele>9.144</ele>
        <time>1970-01-01T01:00:00Z</time>
      </trkpt>
      <trkpt lat="63.44073017" lon="10.48076833">
        <ele>9.144</ele>
        <time>1970-01-01T01:00:00Z</time>
      </trkpt>
      <trkpt lat="63.4407395" lon="10.48082333">
        <ele>9.144</ele>
        <time>1970-01-01T01:00:00Z</time>
      </trkpt>
      <trkpt lat="63.44074783" lon="10.480878">
        <ele>8.992</ele>
        <time>1970-01-01T01:00:00Z</time>
      </trkpt>
      <trkpt lat="63.44075417" lon="10.48093167">
        <ele>8.992</ele>
        <time>1970-01-01T01:00:00Z</time>
      </trkpt>
      <trkpt lat="63.44075967" lon="10.4809865">
        <ele>8.992</ele>
        <time>1970-01-01T01:00:00Z</time>
      </trkpt>
      <trkpt lat="63.44076183" lon="10.48104283">
        <ele>8.992</ele>
        <time>1970-01-01T01:00:00Z</time>
      </trkpt>
      <trkpt lat="63.44076317" lon="10.4810955">
        <ele>8.839</ele>
        <time>1970-01-01T01:00:00Z</time>
      </trkpt>
      <trkpt lat="63.44076433" lon="10.481147">
        <ele>8.839</ele>
        <time>1970-01-01T01:00:00Z</time>
      </trkpt>
      <trkpt lat="63.44077033" lon="10.48119817">
        <ele>8.687</ele>
        <time>1970-01-01T01:00:00Z</time>
      </trkpt>
      <trkpt lat="63.44077767" lon="10.4812545">
        <ele>8.687</ele>
        <time>1970-01-01T01:00:00Z</time>
      </trkpt>
      <trkpt lat="63.4407865" lon="10.48131433">
        <ele>8.535</ele>
        <time>1970-01-01T01:00:00Z</time>
      </trkpt>
      <trkpt lat="63.440795" lon="10.48137217">
        <ele>8.535</ele>
        <time>1970-01-01T01:00:00Z</time>
      </trkpt>
      <trkpt lat="63.4408035" lon="10.48142567">
        <ele>8.382</ele>
        <time>1970-01-01T01:00:00Z</time>
      </trkpt>
      <trkpt lat="63.4408105" lon="10.48147717">
        <ele>8.382</ele>
        <time>1970-01-01T01:00:00Z</time>
      </trkpt>
      <trkpt lat="63.44081667" lon="10.48152317">
        <ele>8.23</ele>
        <time>1970-01-01T01:00:00Z</time>
      </trkpt>
      <trkpt lat="63.4408235" lon="10.4815755">
        <ele>8.23</ele>
        <time>1970-01-01T01:00:00Z</time>
      </trkpt>
      <trkpt lat="63.440832" lon="10.4816285">
        <ele>8.077</ele>
        <time>1970-01-01T01:00:00Z</time>
      </trkpt>
      <trkpt lat="63.44084033" lon="10.481684">
        <ele>8.077</ele>
        <time>1970-01-01T01:00:00Z</time>
      </trkpt>
      <trkpt lat="63.44084817" lon="10.48173667">
        <ele>7.925</ele>
        <time>1970-01-01T01:00:00Z</time>
      </trkpt>
      <trkpt lat="63.44085517" lon="10.48178533">
        <ele>7.925</ele>
        <time>1970-01-01T01:00:00Z</time>
      </trkpt>
      <trkpt lat="63.44086333" lon="10.48183517">
        <ele>7.772</ele>
        <time>1970-01-01T01:00:00Z</time>
      </trkpt>
      <trkpt lat="63.44087217" lon="10.48188417">
        <ele>7.772</ele>
        <time>1970-01-01T01:00:00Z</time>
      </trkpt>
      <trkpt lat="63.44088367" lon="10.48193217">
        <ele>7.62</ele>
        <time>1970-01-01T01:00:00Z</time>
      </trkpt>
      <trkpt lat="63.44089633" lon="10.48197917">
        <ele>7.62</ele>
        <time>1970-01-01T01:00:00Z</time>
      </trkpt>
      <trkpt lat="63.4409115" lon="10.48202083">
        <ele>7.62</ele>
        <time>1970-01-01T01:00:00Z</time>
      </trkpt>
      <trkpt lat="63.440926" lon="10.482058">
        <ele>7.62</ele>
        <time>1970-01-01T01:00:00Z</time>
      </trkpt>
      <trkpt lat="63.440943" lon="10.482094">
        <ele>7.468</ele>
        <time>1970-01-01T01:00:00Z</time>
      </trkpt>
      <trkpt lat="63.44096067" lon="10.48213167">
        <ele>7.468</ele>
        <time>1970-01-01T01:00:00Z</time>
      </trkpt>
      <trkpt lat="63.44097867" lon="10.4821715">
        <ele>7.468</ele>
        <time>1970-01-01T01:00:00Z</time>
      </trkpt>
      <trkpt lat="63.44099583" lon="10.48220933">
        <ele>7.468</ele>
        <time>1970-01-01T01:00:00Z</time>
      </trkpt>
      <trkpt lat="63.44101217" lon="10.48224617">
        <ele>7.468</ele>
        <time>1970-01-01T01:00:00Z</time>
      </trkpt>
      <trkpt lat="63.44102883" lon="10.48228383">
        <ele>7.468</ele>
        <time>1970-01-01T01:00:00Z</time>
      </trkpt>
      <trkpt lat="63.44104667" lon="10.48232233">
        <ele>7.468</ele>
        <time>1970-01-01T01:00:00Z</time>
      </trkpt>
      <trkpt lat="63.44106483" lon="10.48236017">
        <ele>7.468</ele>
        <time>1970-01-01T01:00:00Z</time>
      </trkpt>
      <trkpt lat="63.44108383" lon="10.48239917">
        <ele>7.468</ele>
        <time>1970-01-01T01:00:00Z</time>
      </trkpt>
      <trkpt lat="63.44110283" lon="10.48243883">
        <ele>7.468</ele>
        <time>1970-01-01T01:00:00Z</time>
      </trkpt>
      <trkpt lat="63.44112233" lon="10.48248367">
        <ele>7.62</ele>
        <time>1970-01-01T01:00:00Z</time>
      </trkpt>
      <trkpt lat="63.4411405" lon="10.48252867">
        <ele>7.62</ele>
        <time>1970-01-01T01:00:00Z</time>
      </trkpt>
      <trkpt lat="63.441157" lon="10.48256983">
        <ele>7.772</ele>
        <time>1970-01-01T01:00:00Z</time>
      </trkpt>
      <trkpt lat="63.44117067" lon="10.48260817">
        <ele>7.772</ele>
        <time>1970-01-01T01:00:00Z</time>
      </trkpt>
      <trkpt lat="63.44118467" lon="10.482645">
        <ele>7.925</ele>
        <time>1970-01-01T01:00:00Z</time>
      </trkpt>
      <trkpt lat="63.44119917" lon="10.48268233">
        <ele>7.925</ele>
        <time>1970-01-01T01:00:00Z</time>
      </trkpt>
      <trkpt lat="63.4412155" lon="10.48272317">
        <ele>8.077</ele>
        <time>1970-01-01T01:00:00Z</time>
      </trkpt>
      <trkpt lat="63.44123183" lon="10.48276317">
        <ele>8.077</ele>
        <time>1970-01-01T01:00:00Z</time>
      </trkpt>
      <trkpt lat="63.441249" lon="10.48280317">
        <ele>8.382</ele>
        <time>1970-01-01T01:00:00Z</time>
      </trkpt>
      <trkpt lat="63.44126483" lon="10.48283683">
        <ele>8.382</ele>
        <time>1970-01-01T01:00:00Z</time>
      </trkpt>
      <trkpt lat="63.441282" lon="10.48287">
        <ele>8.687</ele>
        <time>1970-01-01T01:00:00Z</time>
      </trkpt>
      <trkpt lat="63.44129817" lon="10.48290367">
        <ele>8.687</ele>
        <time>1970-01-01T01:00:00Z</time>
      </trkpt>
      <trkpt lat="63.44131433" lon="10.4829405">
        <ele>8.992</ele>
        <time>1970-01-01T01:00:00Z</time>
      </trkpt>
      <trkpt lat="63.4413295" lon="10.4829775">
        <ele>8.992</ele>
        <time>1970-01-01T01:00:00Z</time>
      </trkpt>
      <trkpt lat="63.44134333" lon="10.483015">
        <ele>9.449</ele>
        <time>1970-01-01T01:00:00Z</time>
      </trkpt>
      <trkpt lat="63.44135817" lon="10.48305483">
        <ele>9.449</ele>
        <time>1970-01-01T01:00:00Z</time>
      </trkpt>
      <trkpt lat="63.44136983" lon="10.48309667">
        <ele>9.754</ele>
        <time>1970-01-01T01:00:00Z</time>
      </trkpt>
      <trkpt lat="63.44138" lon="10.4831435">
        <ele>9.754</ele>
        <time>1970-01-01T01:00:00Z</time>
      </trkpt>
      <trkpt lat="63.4413855" lon="10.48319017">
        <ele>10.211</ele>
        <time>1970-01-01T01:00:00Z</time>
      </trkpt>
      <trkpt lat="63.44138883" lon="10.48323783">
        <ele>10.211</ele>
        <time>1970-01-01T01:00:00Z</time>
      </trkpt>
      <trkpt lat="63.44139267" lon="10.48328483">
        <ele>10.516</ele>
        <time>1970-01-01T01:00:00Z</time>
      </trkpt>
      <trkpt lat="63.4413965" lon="10.48332267">
        <ele>10.516</ele>
        <time>1970-01-01T01:00:00Z</time>
      </trkpt>
      <trkpt lat="63.4414035" lon="10.48335333">
        <ele>10.973</ele>
        <time>1970-01-01T01:00:00Z</time>
      </trkpt>
      <trkpt lat="63.44141467" lon="10.48337633">
        <ele>10.973</ele>
        <time>1970-01-01T01:00:00Z</time>
      </trkpt>
      <trkpt lat="63.44142833" lon="10.483397">
        <ele>11.278</ele>
        <time>1970-01-01T01:00:00Z</time>
      </trkpt>
      <trkpt lat="63.44144283" lon="10.48341667">
        <ele>11.278</ele>
        <time>1970-01-01T01:00:00Z</time>
      </trkpt>
      <trkpt lat="63.44145633" lon="10.48343683">
        <ele>11.583</ele>
        <time>1970-01-01T01:00:00Z</time>
      </trkpt>
      <trkpt lat="63.4414715" lon="10.48346183">
        <ele>11.583</ele>
        <time>1970-01-01T01:00:00Z</time>
      </trkpt>
      <trkpt lat="63.4414895" lon="10.4834915">
        <ele>11.887</ele>
        <time>1970-01-01T01:00:00Z</time>
      </trkpt>
      <trkpt lat="63.44150583" lon="10.48353183">
        <ele>11.887</ele>
        <time>1970-01-01T01:00:00Z</time>
      </trkpt>
      <trkpt lat="63.44152183" lon="10.48357983">
        <ele>12.04</ele>
        <time>1970-01-01T01:00:00Z</time>
      </trkpt>
      <trkpt lat="63.441536" lon="10.4836355">
        <ele>12.04</ele>
        <time>1970-01-01T01:00:00Z</time>
      </trkpt>
      <trkpt lat="63.44155033" lon="10.48367983">
        <ele>12.345</ele>
        <time>1970-01-01T01:00:00Z</time>
      </trkpt>
      <trkpt lat="63.44156367" lon="10.48371933">
        <ele>12.345</ele>
        <time>1970-01-01T01:00:00Z</time>
      </trkpt>
      <trkpt lat="63.44157617" lon="10.48375383">
        <ele>12.649</ele>
        <time>1970-01-01T01:00:00Z</time>
      </trkpt>
      <trkpt lat="63.4415845" lon="10.48379117">
        <ele>12.649</ele>
        <time>1970-01-01T01:00:00Z</time>
      </trkpt>
      <trkpt lat="63.44159333" lon="10.48382467">
        <ele>12.954</ele>
        <time>1970-01-01T01:00:00Z</time>
      </trkpt>
      <trkpt lat="63.44160483" lon="10.4838485">
        <ele>12.954</ele>
        <time>1970-01-01T01:00:00Z</time>
      </trkpt>
      <trkpt lat="63.4416225" lon="10.48386083">
        <ele>13.107</ele>
        <time>1970-01-01T01:00:00Z</time>
      </trkpt>
      <trkpt lat="63.44164083" lon="10.4838665">
        <ele>13.107</ele>
        <time>1970-01-01T01:00:00Z</time>
      </trkpt>
      <trkpt lat="63.44166017" lon="10.483872">
        <ele>13.411</ele>
        <time>1970-01-01T01:00:00Z</time>
      </trkpt>
      <trkpt lat="63.44167933" lon="10.48388067">
        <ele>13.411</ele>
        <time>1970-01-01T01:00:00Z</time>
      </trkpt>
      <trkpt lat="63.4417005" lon="10.4838925">
        <ele>13.716</ele>
        <time>1970-01-01T01:00:00Z</time>
      </trkpt>
      <trkpt lat="63.44172117" lon="10.48390633">
        <ele>13.716</ele>
        <time>1970-01-01T01:00:00Z</time>
      </trkpt>
      <trkpt lat="63.441748" lon="10.48391967">
        <ele>13.869</ele>
        <time>1970-01-01T01:00:00Z</time>
      </trkpt>
      <trkpt lat="63.44177283" lon="10.48393117">
        <ele>13.869</ele>
        <time>1970-01-01T01:00:00Z</time>
      </trkpt>
      <trkpt lat="63.441797" lon="10.4839415">
        <ele>14.173</ele>
        <time>1970-01-01T01:00:00Z</time>
      </trkpt>
      <trkpt lat="63.44181483" lon="10.48395733">
        <ele>14.173</ele>
        <time>1970-01-01T01:00:00Z</time>
      </trkpt>
      <trkpt lat="63.44183583" lon="10.483979">
        <ele>14.326</ele>
        <time>1970-01-01T01:00:00Z</time>
      </trkpt>
      <trkpt lat="63.44186117" lon="10.48400833">
        <ele>14.326</ele>
        <time>1970-01-01T01:00:00Z</time>
      </trkpt>
      <trkpt lat="63.4418885" lon="10.4840435">
        <ele>14.631</ele>
        <time>1970-01-01T01:00:00Z</time>
      </trkpt>
      <trkpt lat="63.44191433" lon="10.4840845">
        <ele>14.631</ele>
        <time>1970-01-01T01:00:00Z</time>
      </trkpt>
      <trkpt lat="63.44193733" lon="10.484125">
        <ele>14.783</ele>
        <time>1970-01-01T01:00:00Z</time>
      </trkpt>
      <trkpt lat="63.44196283" lon="10.48417467">
        <ele>14.783</ele>
        <time>1970-01-01T01:00:00Z</time>
      </trkpt>
      <trkpt lat="63.44198417" lon="10.48422133">
        <ele>15.088</ele>
        <time>1970-01-01T01:00:00Z</time>
      </trkpt>
      <trkpt lat="63.442002" lon="10.48427233">
        <ele>15.088</ele>
        <time>1970-01-01T01:00:00Z</time>
      </trkpt>
      <trkpt lat="63.4420145" lon="10.48431717">
        <ele>15.393</ele>
        <time>1970-01-01T01:00:00Z</time>
      </trkpt>
      <trkpt lat="63.44202883" lon="10.4843705">
        <ele>15.393</ele>
        <time>1970-01-01T01:00:00Z</time>
      </trkpt>
      <trkpt lat="63.44204283" lon="10.4844255">
        <ele>15.545</ele>
        <time>1970-01-01T01:00:00Z</time>
      </trkpt>
      <trkpt lat="63.44205317" lon="10.4844845">
        <ele>15.545</ele>
        <time>1970-01-01T01:00:00Z</time>
      </trkpt>
      <trkpt lat="63.4420595" lon="10.4845435">
        <ele>15.85</ele>
        <time>1970-01-01T01:00:00Z</time>
      </trkpt>
      <trkpt lat="63.442063" lon="10.4846105">
        <ele>15.85</ele>
        <time>1970-01-01T01:00:00Z</time>
      </trkpt>
      <trkpt lat="63.44206417" lon="10.48467533">
        <ele>16.002</ele>
        <time>1970-01-01T01:00:00Z</time>
      </trkpt>
      <trkpt lat="63.4420665" lon="10.4847345">
        <ele>16.002</ele>
        <time>1970-01-01T01:00:00Z</time>
      </trkpt>
      <trkpt lat="63.44206833" lon="10.48479133">
        <ele>16.155</ele>
        <time>1970-01-01T01:00:00Z</time>
      </trkpt>
      <trkpt lat="63.44206967" lon="10.48484983">
        <ele>16.155</ele>
        <time>1970-01-01T01:00:00Z</time>
      </trkpt>
      <trkpt lat="63.44206667" lon="10.484912">
        <ele>16.307</ele>
        <time>1970-01-01T01:00:00Z</time>
      </trkpt>
      <trkpt lat="63.44205917" lon="10.4849715">
        <ele>16.307</ele>
        <time>1970-01-01T01:00:00Z</time>
      </trkpt>
      <trkpt lat="63.4420475" lon="10.48503133">
        <ele>16.459</ele>
        <time>1970-01-01T01:00:00Z</time>
      </trkpt>
      <trkpt lat="63.44203467" lon="10.4850935">
        <ele>16.459</ele>
        <time>1970-01-01T01:00:00Z</time>
      </trkpt>
      <trkpt lat="63.4420205" lon="10.4851615">
        <ele>16.612</ele>
        <time>1970-01-01T01:00:00Z</time>
      </trkpt>
      <trkpt lat="63.44201" lon="10.48523067">
        <ele>16.612</ele>
        <time>1970-01-01T01:00:00Z</time>
      </trkpt>
      <trkpt lat="63.4419995" lon="10.48529933">
        <ele>16.612</ele>
        <time>1970-01-01T01:00:00Z</time>
      </trkpt>
      <trkpt lat="63.44198933" lon="10.485357">
        <ele>16.612</ele>
        <time>1970-01-01T01:00:00Z</time>
      </trkpt>
      <trkpt lat="63.441976" lon="10.48540717">
        <ele>16.764</ele>
        <time>1970-01-01T01:00:00Z</time>
      </trkpt>
      <trkpt lat="63.441958" lon="10.48544933">
        <ele>16.764</ele>
        <time>1970-01-01T01:00:00Z</time>
      </trkpt>
      <trkpt lat="63.44193617" lon="10.48549117">
        <ele>16.764</ele>
        <time>1970-01-01T01:00:00Z</time>
      </trkpt>
      <trkpt lat="63.44191033" lon="10.48553483">
        <ele>16.764</ele>
        <time>1970-01-01T01:00:00Z</time>
      </trkpt>
      <trkpt lat="63.4418855" lon="10.48558183">
        <ele>16.764</ele>
        <time>1970-01-01T01:00:00Z</time>
      </trkpt>
      <trkpt lat="63.44186333" lon="10.48562783">
        <ele>16.764</ele>
        <time>1970-01-01T01:00:00Z</time>
      </trkpt>
      <trkpt lat="63.44184583" lon="10.48567433">
        <ele>16.612</ele>
        <time>1970-01-01T01:00:00Z</time>
      </trkpt>
      <trkpt lat="63.44183067" lon="10.48572167">
        <ele>16.612</ele>
        <time>1970-01-01T01:00:00Z</time>
      </trkpt>
      <trkpt lat="63.44181683" lon="10.485773">
        <ele>16.459</ele>
        <time>1970-01-01T01:00:00Z</time>
      </trkpt>
      <trkpt lat="63.44180117" lon="10.48582133">
        <ele>16.459</ele>
        <time>1970-01-01T01:00:00Z</time>
      </trkpt>
      <trkpt lat="63.4417855" lon="10.48586167">
        <ele>16.307</ele>
        <time>1970-01-01T01:00:00Z</time>
      </trkpt>
      <trkpt lat="63.44176767" lon="10.48590583">
        <ele>16.307</ele>
        <time>1970-01-01T01:00:00Z</time>
      </trkpt>
      <trkpt lat="63.44174683" lon="10.48595467">
        <ele>16.155</ele>
        <time>1970-01-01T01:00:00Z</time>
      </trkpt>
      <trkpt lat="63.44172667" lon="10.48602067">
        <ele>16.155</ele>
        <time>1970-01-01T01:00:00Z</time>
      </trkpt>
      <trkpt lat="63.44171067" lon="10.48608783">
        <ele>15.85</ele>
        <time>1970-01-01T01:00:00Z</time>
      </trkpt>
      <trkpt lat="63.44169867" lon="10.48615867">
        <ele>15.85</ele>
        <time>1970-01-01T01:00:00Z</time>
      </trkpt>
      <trkpt lat="63.441685" lon="10.48622133">
        <ele>15.697</ele>
        <time>1970-01-01T01:00:00Z</time>
      </trkpt>
      <trkpt lat="63.44166983" lon="10.486278">
        <ele>15.697</ele>
        <time>1970-01-01T01:00:00Z</time>
      </trkpt>
      <trkpt lat="63.44165683" lon="10.48633217">
        <ele>15.393</ele>
        <time>1970-01-01T01:00:00Z</time>
      </trkpt>
      <trkpt lat="63.44165067" lon="10.48638867">
        <ele>15.393</ele>
        <time>1970-01-01T01:00:00Z</time>
      </trkpt>
      <trkpt lat="63.4416475" lon="10.4864505">
        <ele>15.088</ele>
        <time>1970-01-01T01:00:00Z</time>
      </trkpt>
      <trkpt lat="63.44164667" lon="10.48651483">
        <ele>15.088</ele>
        <time>1970-01-01T01:00:00Z</time>
      </trkpt>
      <trkpt lat="63.44164433" lon="10.48658017">
        <ele>14.935</ele>
        <time>1970-01-01T01:00:00Z</time>
      </trkpt>
      <trkpt lat="63.44164217" lon="10.48664483">
        <ele>14.935</ele>
        <time>1970-01-01T01:00:00Z</time>
      </trkpt>
      <trkpt lat="63.44164183" lon="10.486709">
        <ele>14.631</ele>
        <time>1970-01-01T01:00:00Z</time>
      </trkpt>
      <trkpt lat="63.44164217" lon="10.48677283">
        <ele>14.631</ele>
        <time>1970-01-01T01:00:00Z</time>
      </trkpt>
      <trkpt lat="63.44164067" lon="10.4868395">
        <ele>14.478</ele>
        <time>1970-01-01T01:00:00Z</time>
      </trkpt>
      <trkpt lat="63.44162783" lon="10.4869065">
        <ele>14.478</ele>
        <time>1970-01-01T01:00:00Z</time>
      </trkpt>
      <trkpt lat="63.44160583" lon="10.48697017">
        <ele>14.173</ele>
        <time>1970-01-01T01:00:00Z</time>
      </trkpt>
      <trkpt lat="63.4415805" lon="10.48701983">
        <ele>14.173</ele>
        <time>1970-01-01T01:00:00Z</time>
      </trkpt>
      <trkpt lat="63.4415585" lon="10.487057">
        <ele>13.869</ele>
        <time>1970-01-01T01:00:00Z</time>
      </trkpt>
      <trkpt lat="63.44153717" lon="10.48708517">
        <ele>13.869</ele>
        <time>1970-01-01T01:00:00Z</time>
      </trkpt>
      <trkpt lat="63.4415145" lon="10.48711217">
        <ele>13.564</ele>
        <time>1970-01-01T01:00:00Z</time>
      </trkpt>
      <trkpt lat="63.44149017" lon="10.48713733">
        <ele>13.564</ele>
        <time>1970-01-01T01:00:00Z</time>
      </trkpt>
      <trkpt lat="63.44146617" lon="10.48716">
        <ele>13.411</ele>
        <time>1970-01-01T01:00:00Z</time>
      </trkpt>
      <trkpt lat="63.44144167" lon="10.487183">
        <ele>13.411</ele>
        <time>1970-01-01T01:00:00Z</time>
      </trkpt>
      <trkpt lat="63.44141683" lon="10.48720317">
        <ele>13.107</ele>
        <time>1970-01-01T01:00:00Z</time>
      </trkpt>
      <trkpt lat="63.44139383" lon="10.48721867">
        <ele>13.107</ele>
        <time>1970-01-01T01:00:00Z</time>
      </trkpt>
      <trkpt lat="63.44136783" lon="10.4872275">
        <ele>12.802</ele>
        <time>1970-01-01T01:00:00Z</time>
      </trkpt>
      <trkpt lat="63.44134117" lon="10.48722917">
        <ele>12.802</ele>
        <time>1970-01-01T01:00:00Z</time>
      </trkpt>
      <trkpt lat="63.44131167" lon="10.48722783">
        <ele>12.649</ele>
        <time>1970-01-01T01:00:00Z</time>
      </trkpt>
      <trkpt lat="63.44128417" lon="10.48721817">
        <ele>12.649</ele>
        <time>1970-01-01T01:00:00Z</time>
      </trkpt>
      <trkpt lat="63.44126033" lon="10.4872">
        <ele>12.345</ele>
        <time>1970-01-01T01:00:00Z</time>
      </trkpt>
      <trkpt lat="63.44123833" lon="10.48717133">
        <ele>12.345</ele>
        <time>1970-01-01T01:00:00Z</time>
      </trkpt>
      <trkpt lat="63.44121933" lon="10.48714">
        <ele>12.192</ele>
        <time>1970-01-01T01:00:00Z</time>
      </trkpt>
      <trkpt lat="63.44119983" lon="10.48711017">
        <ele>12.192</ele>
        <time>1970-01-01T01:00:00Z</time>
      </trkpt>
      <trkpt lat="63.4411795" lon="10.48708267">
        <ele>12.04</ele>
        <time>1970-01-01T01:00:00Z</time>
      </trkpt>
      <trkpt lat="63.44116" lon="10.48706067">
        <ele>12.04</ele>
        <time>1970-01-01T01:00:00Z</time>
      </trkpt>
      <trkpt lat="63.4411395" lon="10.48704083">
        <ele>11.887</ele>
        <time>1970-01-01T01:00:00Z</time>
      </trkpt>
      <trkpt lat="63.44111917" lon="10.48702433">
        <ele>11.887</ele>
        <time>1970-01-01T01:00:00Z</time>
      </trkpt>
      <trkpt lat="63.44109433" lon="10.48700367">
        <ele>11.583</ele>
        <time>1970-01-01T01:00:00Z</time>
      </trkpt>
      <trkpt lat="63.44106367" lon="10.48698267">
        <ele>11.583</ele>
        <time>1970-01-01T01:00:00Z</time>
      </trkpt>
      <trkpt lat="63.44103267" lon="10.48696917">
        <ele>11.43</ele>
        <time>1970-01-01T01:00:00Z</time>
      </trkpt>
      <trkpt lat="63.4410025" lon="10.48695967">
        <ele>11.43</ele>
        <time>1970-01-01T01:00:00Z</time>
      </trkpt>
      <trkpt lat="63.44097433" lon="10.48695733">
        <ele>11.278</ele>
        <time>1970-01-01T01:00:00Z</time>
      </trkpt>
      <trkpt lat="63.440946" lon="10.48695267">
        <ele>11.278</ele>
        <time>1970-01-01T01:00:00Z</time>
      </trkpt>
      <trkpt lat="63.44091733" lon="10.4869535">
        <ele>10.973</ele>
        <time>1970-01-01T01:00:00Z</time>
      </trkpt>
      <trkpt lat="63.44089117" lon="10.48695483">
        <ele>10.973</ele>
        <time>1970-01-01T01:00:00Z</time>
      </trkpt>
      <trkpt lat="63.44086483" lon="10.48695767">
        <ele>10.821</ele>
        <time>1970-01-01T01:00:00Z</time>
      </trkpt>
      <trkpt lat="63.44083783" lon="10.48695433">
        <ele>10.821</ele>
        <time>1970-01-01T01:00:00Z</time>
      </trkpt>
      <trkpt lat="63.44081083" lon="10.4869485">
        <ele>10.668</ele>
        <time>1970-01-01T01:00:00Z</time>
      </trkpt>
      <trkpt lat="63.44078583" lon="10.48693683">
        <ele>10.668</ele>
        <time>1970-01-01T01:00:00Z</time>
      </trkpt>
      <trkpt lat="63.440761" lon="10.48692283">
        <ele>10.516</ele>
        <time>1970-01-01T01:00:00Z</time>
      </trkpt>
      <trkpt lat="63.4407365" lon="10.4869015">
        <ele>10.516</ele>
        <time>1970-01-01T01:00:00Z</time>
      </trkpt>
      <trkpt lat="63.44071033" lon="10.48687833">
        <ele>10.363</ele>
        <time>1970-01-01T01:00:00Z</time>
      </trkpt>
      <trkpt lat="63.44068533" lon="10.48686017">
        <ele>10.363</ele>
        <time>1970-01-01T01:00:00Z</time>
      </trkpt>
      <trkpt lat="63.4406595" lon="10.48684333">
        <ele>10.059</ele>
        <time>1970-01-01T01:00:00Z</time>
      </trkpt>
      <trkpt lat="63.4406335" lon="10.486831">
        <ele>10.059</ele>
        <time>1970-01-01T01:00:00Z</time>
      </trkpt>
      <trkpt lat="63.4406095" lon="10.48681833">
        <ele>9.906</ele>
        <time>1970-01-01T01:00:00Z</time>
      </trkpt>
      <trkpt lat="63.44058733" lon="10.48680667">
        <ele>9.906</ele>
        <time>1970-01-01T01:00:00Z</time>
      </trkpt>
      <trkpt lat="63.44056717" lon="10.48679183">
        <ele>9.754</ele>
        <time>1970-01-01T01:00:00Z</time>
      </trkpt>
      <trkpt lat="63.440548" lon="10.48677383">
        <ele>9.754</ele>
        <time>1970-01-01T01:00:00Z</time>
      </trkpt>
      <trkpt lat="63.44052883" lon="10.48676">
        <ele>9.601</ele>
        <time>1970-01-01T01:00:00Z</time>
      </trkpt>
      <trkpt lat="63.4405105" lon="10.48675">
        <ele>9.601</ele>
        <time>1970-01-01T01:00:00Z</time>
      </trkpt>
      <trkpt lat="63.440491" lon="10.4867455">
        <ele>9.601</ele>
        <time>1970-01-01T01:00:00Z</time>
      </trkpt>
      <trkpt lat="63.44046933" lon="10.48673883">
        <ele>9.601</ele>
        <time>1970-01-01T01:00:00Z</time>
      </trkpt>
      <trkpt lat="63.440447" lon="10.48673033">
        <ele>9.449</ele>
        <time>1970-01-01T01:00:00Z</time>
      </trkpt>
      <trkpt lat="63.440424" lon="10.486719">
        <ele>9.449</ele>
        <time>1970-01-01T01:00:00Z</time>
      </trkpt>
      <trkpt lat="63.44040267" lon="10.48671317">
        <ele>9.449</ele>
        <time>1970-01-01T01:00:00Z</time>
      </trkpt>
      <trkpt lat="63.4403815" lon="10.48670967">
        <ele>9.449</ele>
        <time>1970-01-01T01:00:00Z</time>
      </trkpt>
      <trkpt lat="63.4403615" lon="10.486708">
        <ele>9.297</ele>
        <time>1970-01-01T01:00:00Z</time>
      </trkpt>
      <trkpt lat="63.44034183" lon="10.48670733">
        <ele>9.297</ele>
        <time>1970-01-01T01:00:00Z</time>
      </trkpt>
      <trkpt lat="63.44031983" lon="10.48670867">
        <ele>9.297</ele>
        <time>1970-01-01T01:00:00Z</time>
      </trkpt>
      <trkpt lat="63.44029417" lon="10.48671183">
        <ele>9.297</ele>
        <time>1970-01-01T01:00:00Z</time>
      </trkpt>
      <trkpt lat="63.4402665" lon="10.48671783">
        <ele>9.144</ele>
        <time>1970-01-01T01:00:00Z</time>
      </trkpt>
      <trkpt lat="63.44023367" lon="10.486727">
        <ele>9.144</ele>
        <time>1970-01-01T01:00:00Z</time>
      </trkpt>
      <trkpt lat="63.44020183" lon="10.48673983">
        <ele>9.144</ele>
        <time>1970-01-01T01:00:00Z</time>
      </trkpt>
      <trkpt lat="63.44016983" lon="10.48675117">
        <ele>9.144</ele>
        <time>1970-01-01T01:00:00Z</time>
      </trkpt>
      <trkpt lat="63.4401405" lon="10.4867625">
        <ele>9.144</ele>
        <time>1970-01-01T01:00:00Z</time>
      </trkpt>
      <trkpt lat="63.44011117" lon="10.48677217">
        <ele>9.144</ele>
        <time>1970-01-01T01:00:00Z</time>
      </trkpt>
      <trkpt lat="63.44007867" lon="10.48678083">
        <ele>9.144</ele>
        <time>1970-01-01T01:00:00Z</time>
      </trkpt>
      <trkpt lat="63.44004783" lon="10.4867885">
        <ele>9.144</ele>
        <time>1970-01-01T01:00:00Z</time>
      </trkpt>
      <trkpt lat="63.44001667" lon="10.4867925">
        <ele>8.992</ele>
        <time>1970-01-01T01:00:00Z</time>
      </trkpt>
      <trkpt lat="63.4399885" lon="10.48679933">
        <ele>8.992</ele>
        <time>1970-01-01T01:00:00Z</time>
      </trkpt>
      <trkpt lat="63.4399625" lon="10.48680933">
        <ele>8.839</ele>
        <time>1970-01-01T01:00:00Z</time>
      </trkpt>
      <trkpt lat="63.43993583" lon="10.4868225">
        <ele>8.839</ele>
        <time>1970-01-01T01:00:00Z</time>
      </trkpt>
      <trkpt lat="63.43991083" lon="10.486833">
        <ele>8.687</ele>
        <time>1970-01-01T01:00:00Z</time>
      </trkpt>
      <trkpt lat="63.439884" lon="10.48684117">
        <ele>8.687</ele>
        <time>1970-01-01T01:00:00Z</time>
      </trkpt>
      <trkpt lat="63.43985683" lon="10.48684467">
        <ele>8.535</ele>
        <time>1970-01-01T01:00:00Z</time>
      </trkpt>
      <trkpt lat="63.4398305" lon="10.48685117">
        <ele>8.535</ele>
        <time>1970-01-01T01:00:00Z</time>
      </trkpt>
      <trkpt lat="63.43980333" lon="10.48685783">
        <ele>8.382</ele>
        <time>1970-01-01T01:00:00Z</time>
      </trkpt>
      <trkpt lat="63.43977833" lon="10.48686717">
        <ele>8.382</ele>
        <time>1970-01-01T01:00:00Z</time>
      </trkpt>
      <trkpt lat="63.43975267" lon="10.4868725">
        <ele>8.23</ele>
        <time>1970-01-01T01:00:00Z</time>
      </trkpt>
      <trkpt lat="63.4397285" lon="10.4868825">
        <ele>8.23</ele>
        <time>1970-01-01T01:00:00Z</time>
      </trkpt>
      <trkpt lat="63.4397055" lon="10.48689683">
        <ele>8.077</ele>
        <time>1970-01-01T01:00:00Z</time>
      </trkpt>
      <trkpt lat="63.439682" lon="10.48691533">
        <ele>8.077</ele>
        <time>1970-01-01T01:00:00Z</time>
      </trkpt>
      <trkpt lat="63.4396585" lon="10.48693033">
        <ele>7.925</ele>
        <time>1970-01-01T01:00:00Z</time>
      </trkpt>
      <trkpt lat="63.43963533" lon="10.48694533">
        <ele>7.925</ele>
        <time>1970-01-01T01:00:00Z</time>
      </trkpt>
      <trkpt lat="63.43961117" lon="10.486964">
        <ele>7.772</ele>
        <time>1970-01-01T01:00:00Z</time>
      </trkpt>
      <trkpt lat="63.43958733" lon="10.48698533">
        <ele>7.772</ele>
        <time>1970-01-01T01:00:00Z</time>
      </trkpt>
      <trkpt lat="63.439563" lon="10.487007">
        <ele>7.772</ele>
        <time>1970-01-01T01:00:00Z</time>
      </trkpt>
      <trkpt lat="63.43953933" lon="10.48702667">
        <ele>7.772</ele>
        <time>1970-01-01T01:00:00Z</time>
      </trkpt>
      <trkpt lat="63.43951667" lon="10.487046">
        <ele>7.62</ele>
        <time>1970-01-01T01:00:00Z</time>
      </trkpt>
      <trkpt lat="63.43949317" lon="10.48706467">
        <ele>7.62</ele>
        <time>1970-01-01T01:00:00Z</time>
      </trkpt>
      <trkpt lat="63.43947083" lon="10.48708367">
        <ele>7.62</ele>
        <time>1970-01-01T01:00:00Z</time>
      </trkpt>
      <trkpt lat="63.43944717" lon="10.487102">
        <ele>7.62</ele>
        <time>1970-01-01T01:00:00Z</time>
      </trkpt>
      <trkpt lat="63.43942283" lon="10.48712283">
        <ele>7.62</ele>
        <time>1970-01-01T01:00:00Z</time>
      </trkpt>
      <trkpt lat="63.439399" lon="10.487144">
        <ele>7.62</ele>
        <time>1970-01-01T01:00:00Z</time>
      </trkpt>
      <trkpt lat="63.43937517" lon="10.4871645">
        <ele>7.62</ele>
        <time>1970-01-01T01:00:00Z</time>
      </trkpt>
      <trkpt lat="63.43935283" lon="10.4871835">
        <ele>7.62</ele>
        <time>1970-01-01T01:00:00Z</time>
      </trkpt>
      <trkpt lat="63.43933083" lon="10.48720317">
        <ele>7.468</ele>
        <time>1970-01-01T01:00:00Z</time>
      </trkpt>
      <trkpt lat="63.43930917" lon="10.48722517">
        <ele>7.468</ele>
        <time>1970-01-01T01:00:00Z</time>
      </trkpt>
      <trkpt lat="63.43928733" lon="10.4872485">
        <ele>7.468</ele>
        <time>1970-01-01T01:00:00Z</time>
      </trkpt>
      <trkpt lat="63.43926417" lon="10.48727367">
        <ele>7.468</ele>
        <time>1970-01-01T01:00:00Z</time>
      </trkpt>
      <trkpt lat="63.43924083" lon="10.4872985">
        <ele>7.468</ele>
        <time>1970-01-01T01:00:00Z</time>
      </trkpt>
      <trkpt lat="63.439219" lon="10.48732567">
        <ele>7.468</ele>
        <time>1970-01-01T01:00:00Z</time>
      </trkpt>
      <trkpt lat="63.43919733" lon="10.48735317">
        <ele>7.468</ele>
        <time>1970-01-01T01:00:00Z</time>
      </trkpt>
      <trkpt lat="63.439175" lon="10.48738083">
        <ele>7.468</ele>
        <time>1970-01-01T01:00:00Z</time>
      </trkpt>
      <trkpt lat="63.43914967" lon="10.48740567">
        <ele>7.468</ele>
        <time>1970-01-01T01:00:00Z</time>
      </trkpt>
      <trkpt lat="63.4391255" lon="10.4874335">
        <ele>7.468</ele>
        <time>1970-01-01T01:00:00Z</time>
      </trkpt>
      <trkpt lat="63.439103" lon="10.48746183">
        <ele>7.468</ele>
        <time>1970-01-01T01:00:00Z</time>
      </trkpt>
      <trkpt lat="63.43908017" lon="10.48749067">
        <ele>7.468</ele>
        <time>1970-01-01T01:00:00Z</time>
      </trkpt>
      <trkpt lat="63.43905583" lon="10.48751633">
        <ele>7.315</ele>
        <time>1970-01-01T01:00:00Z</time>
      </trkpt>
      <trkpt lat="63.439031" lon="10.4875415">
        <ele>7.315</ele>
        <time>1970-01-01T01:00:00Z</time>
      </trkpt>
      <trkpt lat="63.43900667" lon="10.4875695">
        <ele>7.315</ele>
        <time>1970-01-01T01:00:00Z</time>
      </trkpt>
      <trkpt lat="63.43898367" lon="10.4875965">
        <ele>7.315</ele>
        <time>1970-01-01T01:00:00Z</time>
      </trkpt>
      <trkpt lat="63.43896083" lon="10.48762467">
        <ele>7.315</ele>
        <time>1970-01-01T01:00:00Z</time>
      </trkpt>
      <trkpt lat="63.43893883" lon="10.4876515">
        <ele>7.315</ele>
        <time>1970-01-01T01:00:00Z</time>
      </trkpt>
      <trkpt lat="63.43891533" lon="10.4876785">
        <ele>7.315</ele>
        <time>1970-01-01T01:00:00Z</time>
      </trkpt>
      <trkpt lat="63.43889083" lon="10.487706">
        <ele>7.315</ele>
        <time>1970-01-01T01:00:00Z</time>
      </trkpt>
      <trkpt lat="63.43886717" lon="10.48773017">
        <ele>7.315</ele>
        <time>1970-01-01T01:00:00Z</time>
      </trkpt>
      <trkpt lat="63.43884383" lon="10.48775583">
        <ele>7.315</ele>
        <time>1970-01-01T01:00:00Z</time>
      </trkpt>
      <trkpt lat="63.43881967" lon="10.48778317">
        <ele>7.163</ele>
        <time>1970-01-01T01:00:00Z</time>
      </trkpt>
      <trkpt lat="63.43879667" lon="10.48781283">
        <ele>7.163</ele>
        <time>1970-01-01T01:00:00Z</time>
      </trkpt>
      <trkpt lat="63.43877567" lon="10.48784">
        <ele>7.163</ele>
        <time>1970-01-01T01:00:00Z</time>
      </trkpt>
      <trkpt lat="63.43875867" lon="10.487863">
        <ele>7.163</ele>
        <time>1970-01-01T01:00:00Z</time>
      </trkpt>
      <trkpt lat="63.43874283" lon="10.48788267">
        <ele>7.163</ele>
        <time>1970-01-01T01:00:00Z</time>
      </trkpt>
      <trkpt lat="63.438731" lon="10.48790133">
        <ele>7.163</ele>
        <time>1970-01-01T01:00:00Z</time>
      </trkpt>
      <trkpt lat="63.43872183" lon="10.48791767">
        <ele>7.163</ele>
        <time>1970-01-01T01:00:00Z</time>
      </trkpt>
      <trkpt lat="63.43871483" lon="10.48793317">
        <ele>7.163</ele>
        <time>1970-01-01T01:00:00Z</time>
      </trkpt>
      <trkpt lat="63.43870783" lon="10.48794667">
        <ele>7.163</ele>
        <time>1970-01-01T01:00:00Z</time>
      </trkpt>
      <trkpt lat="63.4387015" lon="10.48795933">
        <ele>7.163</ele>
        <time>1970-01-01T01:00:00Z</time>
      </trkpt>
      <trkpt lat="63.43869617" lon="10.487975">
        <ele>7.163</ele>
        <time>1970-01-01T01:00:00Z</time>
      </trkpt>
      <trkpt lat="63.43868967" lon="10.4879915">
        <ele>7.163</ele>
        <time>1970-01-01T01:00:00Z</time>
      </trkpt>
      <trkpt lat="63.43868317" lon="10.48800717">
        <ele>7.163</ele>
        <time>1970-01-01T01:00:00Z</time>
      </trkpt>
      <trkpt lat="63.438676" lon="10.48801667">
        <ele>7.163</ele>
        <time>1970-01-01T01:00:00Z</time>
      </trkpt>
      <trkpt lat="63.4386725" lon="10.488023">
        <ele>7.163</ele>
        <time>1970-01-01T01:00:00Z</time>
      </trkpt>
      <trkpt lat="63.43867133" lon="10.48803">
        <ele>7.163</ele>
        <time>1970-01-01T01:00:00Z</time>
      </trkpt>
      <trkpt lat="63.43867133" lon="10.48803233">
        <ele>7.163</ele>
        <time>1970-01-01T01:00:00Z</time>
      </trkpt>
      <trkpt lat="63.4386695" lon="10.48803283">
        <ele>7.163</ele>
        <time>1970-01-01T01:00:00Z</time>
      </trkpt>
      <trkpt lat="63.43866783" lon="10.48803">
        <ele>7.315</ele>
        <time>1970-01-01T01:00:00Z</time>
      </trkpt>
      <trkpt lat="63.43866683" lon="10.48803117">
        <ele>7.315</ele>
        <time>1970-01-01T01:00:00Z</time>
      </trkpt>
      <trkpt lat="63.43866733" lon="10.488029">
        <ele>7.315</ele>
        <time>1970-01-01T01:00:00Z</time>
      </trkpt>
      <trkpt lat="63.43866733" lon="10.48802583">
        <ele>7.315</ele>
        <time>1970-01-01T01:00:00Z</time>
      </trkpt>
      <trkpt lat="63.438667" lon="10.48802067">
        <ele>7.315</ele>
        <time>1970-01-01T01:00:00Z</time>
      </trkpt>
      <trkpt lat="63.4386655" lon="10.48801783">
        <ele>7.315</ele>
        <time>1970-01-01T01:00:00Z</time>
      </trkpt>
      <trkpt lat="63.438664" lon="10.48801567">
        <ele>7.468</ele>
        <time>1970-01-01T01:00:00Z</time>
      </trkpt>
      <trkpt lat="63.43866267" lon="10.488012">
        <ele>7.468</ele>
        <time>1970-01-01T01:00:00Z</time>
      </trkpt>
      <trkpt lat="63.43866167" lon="10.4880105">
        <ele>7.468</ele>
        <time>1970-01-01T01:00:00Z</time>
      </trkpt>
    </trkseg>
  </trk>
</gpx>